<?xml version="1.0" encoding="UTF-8" standalone="no" ?>
<gpx xmlns="http://www.topografix.com/GPX/1/1" xmlns:xsi="http://www.w3.org/2001/XMLSchema-instance" xsi:schemaLocation="http://www.topografix.com/GPX/1/1 http://www.topografix.com/GPX/1/1/gpx.xsd" version="1.1" creator="VisuGPX - https://www.visugpx.com">
  <metadata>
    <name>Circuit de l\'Arpiha depuis Camp d\'Argent</name>
    <desc><![CDATA[avec le Team Y2S]]></desc>
  </metadata>
  <trk>
    <name><![CDATA[Y2S Day 1]]></name>
    <desc><![CDATA[Michel, Claudine, Latisha, Sophie & Derek]]></desc>
    <trkseg>
      <trkpt lat="43.97944" lon="7.39189">
        <ele>1628.4000244141</ele>
        <time>2014-08-23T12:09:13.000Z</time>
      </trkpt>
      <trkpt lat="43.97943" lon="7.39183">
        <ele>1628.1999511719</ele>
        <time>2014-08-23T12:09:18.000Z</time>
      </trkpt>
      <trkpt lat="43.9794" lon="7.39184">
        <ele>1627.1999511719</ele>
        <time>2014-08-23T12:09:19.000Z</time>
      </trkpt>
      <trkpt lat="43.97934" lon="7.39183">
        <ele>1625.5999755859</ele>
        <time>2014-08-23T12:09:22.000Z</time>
      </trkpt>
      <trkpt lat="43.97936" lon="7.39188">
        <ele>1625.5999755859</ele>
        <time>2014-08-23T12:09:31.000Z</time>
      </trkpt>
      <trkpt lat="43.97937" lon="7.39184">
        <ele>1626.1999511719</ele>
        <time>2014-08-23T12:09:33.000Z</time>
      </trkpt>
      <trkpt lat="43.97941" lon="7.39181">
        <ele>1628</ele>
        <time>2014-08-23T12:09:51.000Z</time>
      </trkpt>
      <trkpt lat="43.97939" lon="7.39177">
        <ele>1628</ele>
        <time>2014-08-23T12:09:55.000Z</time>
      </trkpt>
      <trkpt lat="43.97936" lon="7.39179">
        <ele>1627.1999511719</ele>
        <time>2014-08-23T12:09:57.000Z</time>
      </trkpt>
      <trkpt lat="43.97934" lon="7.39179">
        <ele>1626.4000244141</ele>
        <time>2014-08-23T12:10:00.000Z</time>
      </trkpt>
      <trkpt lat="43.97932" lon="7.39179">
        <ele>1626</ele>
        <time>2014-08-23T12:10:10.000Z</time>
      </trkpt>
      <trkpt lat="43.97929" lon="7.39177">
        <ele>1625.5999755859</ele>
        <time>2014-08-23T12:10:14.000Z</time>
      </trkpt>
      <trkpt lat="43.9793" lon="7.39175">
        <ele>1626.1999511719</ele>
        <time>2014-08-23T12:10:15.000Z</time>
      </trkpt>
      <trkpt lat="43.97929" lon="7.39171">
        <ele>1626.5999755859</ele>
        <time>2014-08-23T12:10:18.000Z</time>
      </trkpt>
      <trkpt lat="43.97927" lon="7.39159">
        <ele>1627.4000244141</ele>
        <time>2014-08-23T12:10:26.000Z</time>
      </trkpt>
      <trkpt lat="43.97924" lon="7.39156">
        <ele>1626.5999755859</ele>
        <time>2014-08-23T12:10:31.000Z</time>
      </trkpt>
      <trkpt lat="43.97919" lon="7.39158">
        <ele>1625.4000244141</ele>
        <time>2014-08-23T12:10:35.000Z</time>
      </trkpt>
      <trkpt lat="43.97915" lon="7.3915">
        <ele>1624.1999511719</ele>
        <time>2014-08-23T12:10:45.000Z</time>
      </trkpt>
      <trkpt lat="43.97915" lon="7.39147">
        <ele>1624.5999755859</ele>
        <time>2014-08-23T12:10:46.000Z</time>
      </trkpt>
      <trkpt lat="43.97917" lon="7.39138">
        <ele>1625.1999511719</ele>
        <time>2014-08-23T12:10:50.000Z</time>
      </trkpt>
      <trkpt lat="43.97919" lon="7.39135">
        <ele>1625.5999755859</ele>
        <time>2014-08-23T12:10:51.000Z</time>
      </trkpt>
      <trkpt lat="43.97924" lon="7.39126">
        <ele>1627.1999511719</ele>
        <time>2014-08-23T12:10:56.000Z</time>
      </trkpt>
      <trkpt lat="43.97926" lon="7.39119">
        <ele>1628</ele>
        <time>2014-08-23T12:11:03.000Z</time>
      </trkpt>
      <trkpt lat="43.97931" lon="7.39111">
        <ele>1629.5999755859</ele>
        <time>2014-08-23T12:11:11.000Z</time>
      </trkpt>
      <trkpt lat="43.97935" lon="7.39107">
        <ele>1630.8000488281</ele>
        <time>2014-08-23T12:11:18.000Z</time>
      </trkpt>
      <trkpt lat="43.97936" lon="7.39104">
        <ele>1631</ele>
        <time>2014-08-23T12:11:23.000Z</time>
      </trkpt>
      <trkpt lat="43.97936" lon="7.39098">
        <ele>1631.1999511719</ele>
        <time>2014-08-23T12:11:26.000Z</time>
      </trkpt>
      <trkpt lat="43.97935" lon="7.39096">
        <ele>1631</ele>
        <time>2014-08-23T12:11:27.000Z</time>
      </trkpt>
      <trkpt lat="43.9794" lon="7.39087">
        <ele>1632.5999755859</ele>
        <time>2014-08-23T12:11:32.000Z</time>
      </trkpt>
      <trkpt lat="43.97945" lon="7.39083">
        <ele>1634.5999755859</ele>
        <time>2014-08-23T12:11:35.000Z</time>
      </trkpt>
      <trkpt lat="43.97947" lon="7.39081">
        <ele>1635.5999755859</ele>
        <time>2014-08-23T12:11:37.000Z</time>
      </trkpt>
      <trkpt lat="43.97947" lon="7.3908">
        <ele>1635.5999755859</ele>
        <time>2014-08-23T12:11:38.000Z</time>
      </trkpt>
      <trkpt lat="43.97951" lon="7.3907">
        <ele>1635.4000244141</ele>
        <time>2014-08-23T12:11:46.000Z</time>
      </trkpt>
      <trkpt lat="43.97955" lon="7.39059">
        <ele>1635.1999511719</ele>
        <time>2014-08-23T12:11:57.000Z</time>
      </trkpt>
      <trkpt lat="43.97957" lon="7.39057">
        <ele>1635.8000488281</ele>
        <time>2014-08-23T12:11:59.000Z</time>
      </trkpt>
      <trkpt lat="43.97955" lon="7.39057">
        <ele>1635.1999511719</ele>
        <time>2014-08-23T12:12:01.000Z</time>
      </trkpt>
      <trkpt lat="43.97955" lon="7.3905">
        <ele>1633.5999755859</ele>
        <time>2014-08-23T12:12:06.000Z</time>
      </trkpt>
      <trkpt lat="43.9796" lon="7.39043">
        <ele>1634.4000244141</ele>
        <time>2014-08-23T12:12:12.000Z</time>
      </trkpt>
      <trkpt lat="43.97964" lon="7.39036">
        <ele>1635</ele>
        <time>2014-08-23T12:12:16.000Z</time>
      </trkpt>
      <trkpt lat="43.97971" lon="7.39033">
        <ele>1637.8000488281</ele>
        <time>2014-08-23T12:12:19.000Z</time>
      </trkpt>
      <trkpt lat="43.97971" lon="7.39027">
        <ele>1637</ele>
        <time>2014-08-23T12:12:22.000Z</time>
      </trkpt>
      <trkpt lat="43.97972" lon="7.39023">
        <ele>1635.8000488281</ele>
        <time>2014-08-23T12:12:25.000Z</time>
      </trkpt>
      <trkpt lat="43.97971" lon="7.39018">
        <ele>1634.4000244141</ele>
        <time>2014-08-23T12:12:30.000Z</time>
      </trkpt>
      <trkpt lat="43.97972" lon="7.39015">
        <ele>1633.8000488281</ele>
        <time>2014-08-23T12:12:32.000Z</time>
      </trkpt>
      <trkpt lat="43.97974" lon="7.39005">
        <ele>1631.8000488281</ele>
        <time>2014-08-23T12:12:37.000Z</time>
      </trkpt>
      <trkpt lat="43.97976" lon="7.38997">
        <ele>1630.4000244141</ele>
        <time>2014-08-23T12:12:43.000Z</time>
      </trkpt>
      <trkpt lat="43.97975" lon="7.38988">
        <ele>1629.4000244141</ele>
        <time>2014-08-23T12:12:49.000Z</time>
      </trkpt>
      <trkpt lat="43.97981" lon="7.38973">
        <ele>1630.4000244141</ele>
        <time>2014-08-23T12:12:56.000Z</time>
      </trkpt>
      <trkpt lat="43.97981" lon="7.38971">
        <ele>1630.1999511719</ele>
        <time>2014-08-23T12:13:02.000Z</time>
      </trkpt>
      <trkpt lat="43.97983" lon="7.3897">
        <ele>1630.5999755859</ele>
        <time>2014-08-23T12:13:05.000Z</time>
      </trkpt>
      <trkpt lat="43.97984" lon="7.38969">
        <ele>1631</ele>
        <time>2014-08-23T12:13:08.000Z</time>
      </trkpt>
      <trkpt lat="43.97988" lon="7.38968">
        <ele>1632.5999755859</ele>
        <time>2014-08-23T12:13:14.000Z</time>
      </trkpt>
      <trkpt lat="43.97993" lon="7.3897">
        <ele>1635.1999511719</ele>
        <time>2014-08-23T12:13:19.000Z</time>
      </trkpt>
      <trkpt lat="43.97994" lon="7.38971">
        <ele>1635.5999755859</ele>
        <time>2014-08-23T12:13:20.000Z</time>
      </trkpt>
      <trkpt lat="43.98" lon="7.38975">
        <ele>1638.4000244141</ele>
        <time>2014-08-23T12:13:24.000Z</time>
      </trkpt>
      <trkpt lat="43.97993" lon="7.3898">
        <ele>1636.1999511719</ele>
        <time>2014-08-23T12:13:29.000Z</time>
      </trkpt>
      <trkpt lat="43.97994" lon="7.38984">
        <ele>1636.8000488281</ele>
        <time>2014-08-23T12:13:34.000Z</time>
      </trkpt>
      <trkpt lat="43.97996" lon="7.38986">
        <ele>1637.5999755859</ele>
        <time>2014-08-23T12:13:39.000Z</time>
      </trkpt>
      <trkpt lat="43.97996" lon="7.38993">
        <ele>1638.1999511719</ele>
        <time>2014-08-23T12:13:48.000Z</time>
      </trkpt>
      <trkpt lat="43.97991" lon="7.38999">
        <ele>1637.1999511719</ele>
        <time>2014-08-23T12:13:51.000Z</time>
      </trkpt>
      <trkpt lat="43.97984" lon="7.39012">
        <ele>1637.8000488281</ele>
        <time>2014-08-23T12:13:56.000Z</time>
      </trkpt>
      <trkpt lat="43.98215" lon="7.38821">
        <ele>1647</ele>
        <time>2014-08-23T12:15:10.000Z</time>
      </trkpt>
      <trkpt lat="43.98215" lon="7.38826">
        <ele>1647.1999511719</ele>
        <time>2014-08-23T12:15:11.000Z</time>
      </trkpt>
      <trkpt lat="43.98216" lon="7.38827">
        <ele>1648</ele>
        <time>2014-08-23T12:15:13.000Z</time>
      </trkpt>
      <trkpt lat="43.98216" lon="7.38829">
        <ele>1648</ele>
        <time>2014-08-23T12:15:15.000Z</time>
      </trkpt>
      <trkpt lat="43.98096" lon="7.38971">
        <ele>1658.8000488281</ele>
        <time>2014-08-23T12:15:17.000Z</time>
      </trkpt>
      <trkpt lat="43.98101" lon="7.38971">
        <ele>1659.1999511719</ele>
        <time>2014-08-23T12:15:19.000Z</time>
      </trkpt>
      <trkpt lat="43.98141" lon="7.38946">
        <ele>1659.1999511719</ele>
        <time>2014-08-23T12:15:44.000Z</time>
      </trkpt>
      <trkpt lat="43.98147" lon="7.38946">
        <ele>1661</ele>
        <time>2014-08-23T12:15:47.000Z</time>
      </trkpt>
      <trkpt lat="43.98153" lon="7.38944">
        <ele>1662.1999511719</ele>
        <time>2014-08-23T12:15:49.000Z</time>
      </trkpt>
      <trkpt lat="43.98156" lon="7.38936">
        <ele>1659.8000488281</ele>
        <time>2014-08-23T12:15:53.000Z</time>
      </trkpt>
      <trkpt lat="43.98161" lon="7.38931">
        <ele>1659.1999511719</ele>
        <time>2014-08-23T12:15:55.000Z</time>
      </trkpt>
      <trkpt lat="43.98173" lon="7.3893">
        <ele>1662.5999755859</ele>
        <time>2014-08-23T12:16:48.000Z</time>
      </trkpt>
      <trkpt lat="43.98172" lon="7.38929">
        <ele>1661.5999755859</ele>
        <time>2014-08-23T12:16:51.000Z</time>
      </trkpt>
      <trkpt lat="43.98168" lon="7.3893">
        <ele>1660.8000488281</ele>
        <time>2014-08-23T12:16:54.000Z</time>
      </trkpt>
      <trkpt lat="43.98172" lon="7.38926">
        <ele>1660.8000488281</ele>
        <time>2014-08-23T12:17:00.000Z</time>
      </trkpt>
      <trkpt lat="43.98175" lon="7.38925">
        <ele>1660.8000488281</ele>
        <time>2014-08-23T12:17:03.000Z</time>
      </trkpt>
      <trkpt lat="43.98178" lon="7.38923">
        <ele>1661.5999755859</ele>
        <time>2014-08-23T12:17:06.000Z</time>
      </trkpt>
      <trkpt lat="43.98177" lon="7.38923">
        <ele>1661</ele>
        <time>2014-08-23T12:17:07.000Z</time>
      </trkpt>
      <trkpt lat="43.98176" lon="7.38924">
        <ele>1661</ele>
        <time>2014-08-23T12:17:10.000Z</time>
      </trkpt>
      <trkpt lat="43.9819" lon="7.38923">
        <ele>1664.8000488281</ele>
        <time>2014-08-23T12:17:36.000Z</time>
      </trkpt>
      <trkpt lat="43.98193" lon="7.3892">
        <ele>1664.5999755859</ele>
        <time>2014-08-23T12:17:40.000Z</time>
      </trkpt>
      <trkpt lat="43.98203" lon="7.38916">
        <ele>1665.4000244141</ele>
        <time>2014-08-23T12:17:47.000Z</time>
      </trkpt>
      <trkpt lat="43.98212" lon="7.38912">
        <ele>1666.5999755859</ele>
        <time>2014-08-23T12:17:54.000Z</time>
      </trkpt>
      <trkpt lat="43.98213" lon="7.3891">
        <ele>1666.5999755859</ele>
        <time>2014-08-23T12:17:55.000Z</time>
      </trkpt>
      <trkpt lat="43.98222" lon="7.38903">
        <ele>1666.8000488281</ele>
        <time>2014-08-23T12:18:01.000Z</time>
      </trkpt>
      <trkpt lat="43.98232" lon="7.3889">
        <ele>1665.5999755859</ele>
        <time>2014-08-23T12:18:09.000Z</time>
      </trkpt>
      <trkpt lat="43.98234" lon="7.38882">
        <ele>1663.4000244141</ele>
        <time>2014-08-23T12:18:15.000Z</time>
      </trkpt>
      <trkpt lat="43.98241" lon="7.38877">
        <ele>1664.8000488281</ele>
        <time>2014-08-23T12:18:26.000Z</time>
      </trkpt>
      <trkpt lat="43.98241" lon="7.38863">
        <ele>1663.8000488281</ele>
        <time>2014-08-23T12:18:34.000Z</time>
      </trkpt>
      <trkpt lat="43.98242" lon="7.38857">
        <ele>1663.4000244141</ele>
        <time>2014-08-23T12:18:39.000Z</time>
      </trkpt>
      <trkpt lat="43.98244" lon="7.38852">
        <ele>1664.4000244141</ele>
        <time>2014-08-23T12:18:42.000Z</time>
      </trkpt>
      <trkpt lat="43.98246" lon="7.38847">
        <ele>1665</ele>
        <time>2014-08-23T12:18:45.000Z</time>
      </trkpt>
      <trkpt lat="43.9825" lon="7.38837">
        <ele>1666</ele>
        <time>2014-08-23T12:18:50.000Z</time>
      </trkpt>
      <trkpt lat="43.98258" lon="7.38815">
        <ele>1667.8000488281</ele>
        <time>2014-08-23T12:19:01.000Z</time>
      </trkpt>
      <trkpt lat="43.98259" lon="7.38801">
        <ele>1667.1999511719</ele>
        <time>2014-08-23T12:19:10.000Z</time>
      </trkpt>
      <trkpt lat="43.98259" lon="7.388">
        <ele>1667.4000244141</ele>
        <time>2014-08-23T12:19:11.000Z</time>
      </trkpt>
      <trkpt lat="43.9826" lon="7.38797">
        <ele>1667.5999755859</ele>
        <time>2014-08-23T12:19:16.000Z</time>
      </trkpt>
      <trkpt lat="43.98266" lon="7.38787">
        <ele>1669.8000488281</ele>
        <time>2014-08-23T12:19:24.000Z</time>
      </trkpt>
      <trkpt lat="43.98269" lon="7.38779">
        <ele>1670.5999755859</ele>
        <time>2014-08-23T12:19:32.000Z</time>
      </trkpt>
      <trkpt lat="43.98271" lon="7.38773">
        <ele>1671</ele>
        <time>2014-08-23T12:19:41.000Z</time>
      </trkpt>
      <trkpt lat="43.9827" lon="7.38774">
        <ele>1671</ele>
        <time>2014-08-23T12:19:47.000Z</time>
      </trkpt>
      <trkpt lat="43.98266" lon="7.38782">
        <ele>1669.4000244141</ele>
        <time>2014-08-23T12:19:59.000Z</time>
      </trkpt>
      <trkpt lat="43.98274" lon="7.38789">
        <ele>1674.1999511719</ele>
        <time>2014-08-23T12:20:08.000Z</time>
      </trkpt>
      <trkpt lat="43.98279" lon="7.38795">
        <ele>1674.4000244141</ele>
        <time>2014-08-23T12:20:13.000Z</time>
      </trkpt>
      <trkpt lat="43.98279" lon="7.38797">
        <ele>1674.5999755859</ele>
        <time>2014-08-23T12:20:15.000Z</time>
      </trkpt>
      <trkpt lat="43.9828" lon="7.38801">
        <ele>1674.8000488281</ele>
        <time>2014-08-23T12:20:18.000Z</time>
      </trkpt>
      <trkpt lat="43.98281" lon="7.38802">
        <ele>1674.8000488281</ele>
        <time>2014-08-23T12:20:20.000Z</time>
      </trkpt>
      <trkpt lat="43.98282" lon="7.38801">
        <ele>1674.5999755859</ele>
        <time>2014-08-23T12:20:21.000Z</time>
      </trkpt>
      <trkpt lat="43.98287" lon="7.38797">
        <ele>1673.8000488281</ele>
        <time>2014-08-23T12:20:26.000Z</time>
      </trkpt>
      <trkpt lat="43.9829" lon="7.38791">
        <ele>1673</ele>
        <time>2014-08-23T12:20:31.000Z</time>
      </trkpt>
      <trkpt lat="43.9829" lon="7.38787">
        <ele>1672.5999755859</ele>
        <time>2014-08-23T12:20:35.000Z</time>
      </trkpt>
      <trkpt lat="43.9829" lon="7.38783">
        <ele>1672.1999511719</ele>
        <time>2014-08-23T12:20:39.000Z</time>
      </trkpt>
      <trkpt lat="43.9829" lon="7.38778">
        <ele>1671.8000488281</ele>
        <time>2014-08-23T12:20:43.000Z</time>
      </trkpt>
      <trkpt lat="43.98292" lon="7.38773">
        <ele>1671.1999511719</ele>
        <time>2014-08-23T12:20:48.000Z</time>
      </trkpt>
      <trkpt lat="43.98293" lon="7.38768">
        <ele>1670.5999755859</ele>
        <time>2014-08-23T12:20:50.000Z</time>
      </trkpt>
      <trkpt lat="43.98292" lon="7.38762">
        <ele>1670.1999511719</ele>
        <time>2014-08-23T12:20:54.000Z</time>
      </trkpt>
      <trkpt lat="43.98293" lon="7.38758">
        <ele>1669.8000488281</ele>
        <time>2014-08-23T12:20:56.000Z</time>
      </trkpt>
      <trkpt lat="43.98293" lon="7.38754">
        <ele>1669.4000244141</ele>
        <time>2014-08-23T12:21:01.000Z</time>
      </trkpt>
      <trkpt lat="43.98295" lon="7.38752">
        <ele>1669.1999511719</ele>
        <time>2014-08-23T12:21:03.000Z</time>
      </trkpt>
      <trkpt lat="43.98294" lon="7.38748">
        <ele>1668.8000488281</ele>
        <time>2014-08-23T12:21:06.000Z</time>
      </trkpt>
      <trkpt lat="43.98293" lon="7.38748">
        <ele>1669</ele>
        <time>2014-08-23T12:21:11.000Z</time>
      </trkpt>
      <trkpt lat="43.98294" lon="7.38745">
        <ele>1669</ele>
        <time>2014-08-23T12:21:12.000Z</time>
      </trkpt>
      <trkpt lat="43.98294" lon="7.3874">
        <ele>1669.4000244141</ele>
        <time>2014-08-23T12:21:17.000Z</time>
      </trkpt>
      <trkpt lat="43.98294" lon="7.3873">
        <ele>1669.8000488281</ele>
        <time>2014-08-23T12:21:23.000Z</time>
      </trkpt>
      <trkpt lat="43.98293" lon="7.38727">
        <ele>1670</ele>
        <time>2014-08-23T12:21:25.000Z</time>
      </trkpt>
      <trkpt lat="43.98293" lon="7.38718">
        <ele>1670.4000244141</ele>
        <time>2014-08-23T12:21:29.000Z</time>
      </trkpt>
      <trkpt lat="43.98293" lon="7.38716">
        <ele>1670.5999755859</ele>
        <time>2014-08-23T12:21:30.000Z</time>
      </trkpt>
      <trkpt lat="43.9829" lon="7.38707">
        <ele>1671.4000244141</ele>
        <time>2014-08-23T12:21:35.000Z</time>
      </trkpt>
      <trkpt lat="43.9829" lon="7.38705">
        <ele>1671.4000244141</ele>
        <time>2014-08-23T12:21:37.000Z</time>
      </trkpt>
      <trkpt lat="43.98291" lon="7.387">
        <ele>1671.5999755859</ele>
        <time>2014-08-23T12:21:42.000Z</time>
      </trkpt>
      <trkpt lat="43.98294" lon="7.38688">
        <ele>1671.8000488281</ele>
        <time>2014-08-23T12:21:51.000Z</time>
      </trkpt>
      <trkpt lat="43.98295" lon="7.38687">
        <ele>1671.8000488281</ele>
        <time>2014-08-23T12:21:57.000Z</time>
      </trkpt>
      <trkpt lat="43.98293" lon="7.38684">
        <ele>1672.1999511719</ele>
        <time>2014-08-23T12:22:00.000Z</time>
      </trkpt>
      <trkpt lat="43.9829" lon="7.38677">
        <ele>1672.5999755859</ele>
        <time>2014-08-23T12:22:03.000Z</time>
      </trkpt>
      <trkpt lat="43.98291" lon="7.38663">
        <ele>1672.5999755859</ele>
        <time>2014-08-23T12:22:08.000Z</time>
      </trkpt>
      <trkpt lat="43.98293" lon="7.38654">
        <ele>1672.4000244141</ele>
        <time>2014-08-23T12:22:12.000Z</time>
      </trkpt>
      <trkpt lat="43.98296" lon="7.38651">
        <ele>1672</ele>
        <time>2014-08-23T12:22:14.000Z</time>
      </trkpt>
      <trkpt lat="43.98301" lon="7.38643">
        <ele>1671.4000244141</ele>
        <time>2014-08-23T12:22:20.000Z</time>
      </trkpt>
      <trkpt lat="43.983" lon="7.38645">
        <ele>1671.5999755859</ele>
        <time>2014-08-23T12:22:23.000Z</time>
      </trkpt>
      <trkpt lat="43.98296" lon="7.38648">
        <ele>1672</ele>
        <time>2014-08-23T12:22:26.000Z</time>
      </trkpt>
      <trkpt lat="43.98295" lon="7.38646">
        <ele>1672.1999511719</ele>
        <time>2014-08-23T12:22:32.000Z</time>
      </trkpt>
      <trkpt lat="43.98297" lon="7.3864">
        <ele>1672.1999511719</ele>
        <time>2014-08-23T12:22:36.000Z</time>
      </trkpt>
      <trkpt lat="43.98299" lon="7.38638">
        <ele>1671.8000488281</ele>
        <time>2014-08-23T12:22:41.000Z</time>
      </trkpt>
      <trkpt lat="43.98302" lon="7.38633">
        <ele>1671.5999755859</ele>
        <time>2014-08-23T12:22:49.000Z</time>
      </trkpt>
      <trkpt lat="43.98302" lon="7.38631">
        <ele>1671.5999755859</ele>
        <time>2014-08-23T12:22:54.000Z</time>
      </trkpt>
      <trkpt lat="43.98304" lon="7.38624">
        <ele>1671.4000244141</ele>
        <time>2014-08-23T12:22:58.000Z</time>
      </trkpt>
      <trkpt lat="43.98307" lon="7.38623">
        <ele>1671</ele>
        <time>2014-08-23T12:23:01.000Z</time>
      </trkpt>
      <trkpt lat="43.98308" lon="7.38619">
        <ele>1670.8000488281</ele>
        <time>2014-08-23T12:23:03.000Z</time>
      </trkpt>
      <trkpt lat="43.98309" lon="7.38616">
        <ele>1670.8000488281</ele>
        <time>2014-08-23T12:23:05.000Z</time>
      </trkpt>
      <trkpt lat="43.9831" lon="7.38611">
        <ele>1671</ele>
        <time>2014-08-23T12:23:07.000Z</time>
      </trkpt>
      <trkpt lat="43.9831" lon="7.38608">
        <ele>1671.1999511719</ele>
        <time>2014-08-23T12:23:11.000Z</time>
      </trkpt>
      <trkpt lat="43.98312" lon="7.38607">
        <ele>1671</ele>
        <time>2014-08-23T12:23:12.000Z</time>
      </trkpt>
      <trkpt lat="43.98318" lon="7.38598">
        <ele>1670.8000488281</ele>
        <time>2014-08-23T12:23:15.000Z</time>
      </trkpt>
      <trkpt lat="43.98319" lon="7.38585">
        <ele>1671.4000244141</ele>
        <time>2014-08-23T12:23:21.000Z</time>
      </trkpt>
      <trkpt lat="43.9832" lon="7.38581">
        <ele>1671.4000244141</ele>
        <time>2014-08-23T12:23:27.000Z</time>
      </trkpt>
      <trkpt lat="43.98323" lon="7.38572">
        <ele>1669.1999511719</ele>
        <time>2014-08-23T12:23:31.000Z</time>
      </trkpt>
      <trkpt lat="43.98325" lon="7.38569">
        <ele>1668</ele>
        <time>2014-08-23T12:23:36.000Z</time>
      </trkpt>
      <trkpt lat="43.98329" lon="7.38558">
        <ele>1665</ele>
        <time>2014-08-23T12:23:40.000Z</time>
      </trkpt>
      <trkpt lat="43.98332" lon="7.3855">
        <ele>1664.4000244141</ele>
        <time>2014-08-23T12:23:43.000Z</time>
      </trkpt>
      <trkpt lat="43.98333" lon="7.38548">
        <ele>1664.4000244141</ele>
        <time>2014-08-23T12:23:45.000Z</time>
      </trkpt>
      <trkpt lat="43.9834" lon="7.38536">
        <ele>1665.4000244141</ele>
        <time>2014-08-23T12:23:51.000Z</time>
      </trkpt>
      <trkpt lat="43.9834" lon="7.38524">
        <ele>1665.4000244141</ele>
        <time>2014-08-23T12:23:57.000Z</time>
      </trkpt>
      <trkpt lat="43.98338" lon="7.38525">
        <ele>1665.1999511719</ele>
        <time>2014-08-23T12:23:58.000Z</time>
      </trkpt>
      <trkpt lat="43.98334" lon="7.38523">
        <ele>1664.8000488281</ele>
        <time>2014-08-23T12:24:02.000Z</time>
      </trkpt>
      <trkpt lat="43.98332" lon="7.38519">
        <ele>1664.5999755859</ele>
        <time>2014-08-23T12:24:18.000Z</time>
      </trkpt>
      <trkpt lat="43.98338" lon="7.38512">
        <ele>1665.4000244141</ele>
        <time>2014-08-23T12:24:21.000Z</time>
      </trkpt>
      <trkpt lat="43.98338" lon="7.38507">
        <ele>1665.5999755859</ele>
        <time>2014-08-23T12:24:23.000Z</time>
      </trkpt>
      <trkpt lat="43.98339" lon="7.385">
        <ele>1665.5999755859</ele>
        <time>2014-08-23T12:24:26.000Z</time>
      </trkpt>
      <trkpt lat="43.98342" lon="7.3849">
        <ele>1663.5999755859</ele>
        <time>2014-08-23T12:24:31.000Z</time>
      </trkpt>
      <trkpt lat="43.9834" lon="7.38483">
        <ele>1661.1999511719</ele>
        <time>2014-08-23T12:24:35.000Z</time>
      </trkpt>
      <trkpt lat="43.98341" lon="7.38468">
        <ele>1659.4000244141</ele>
        <time>2014-08-23T12:24:41.000Z</time>
      </trkpt>
      <trkpt lat="43.9834" lon="7.38461">
        <ele>1658.1999511719</ele>
        <time>2014-08-23T12:24:46.000Z</time>
      </trkpt>
      <trkpt lat="43.98342" lon="7.38457">
        <ele>1658.1999511719</ele>
        <time>2014-08-23T12:24:48.000Z</time>
      </trkpt>
      <trkpt lat="43.98347" lon="7.3845">
        <ele>1659.1999511719</ele>
        <time>2014-08-23T12:24:56.000Z</time>
      </trkpt>
      <trkpt lat="43.98352" lon="7.38443">
        <ele>1660</ele>
        <time>2014-08-23T12:24:59.000Z</time>
      </trkpt>
      <trkpt lat="43.9835" lon="7.38434">
        <ele>1658.4000244141</ele>
        <time>2014-08-23T12:25:04.000Z</time>
      </trkpt>
      <trkpt lat="43.98351" lon="7.38425">
        <ele>1658</ele>
        <time>2014-08-23T12:25:09.000Z</time>
      </trkpt>
      <trkpt lat="43.98351" lon="7.38422">
        <ele>1657.4000244141</ele>
        <time>2014-08-23T12:25:11.000Z</time>
      </trkpt>
      <trkpt lat="43.98346" lon="7.38421">
        <ele>1655.5999755859</ele>
        <time>2014-08-23T12:25:14.000Z</time>
      </trkpt>
      <trkpt lat="43.98342" lon="7.38418">
        <ele>1654.1999511719</ele>
        <time>2014-08-23T12:25:18.000Z</time>
      </trkpt>
      <trkpt lat="43.98343" lon="7.38415">
        <ele>1654.1999511719</ele>
        <time>2014-08-23T12:25:19.000Z</time>
      </trkpt>
      <trkpt lat="43.98347" lon="7.38405">
        <ele>1653</ele>
        <time>2014-08-23T12:25:23.000Z</time>
      </trkpt>
      <trkpt lat="43.98347" lon="7.38404">
        <ele>1653</ele>
        <time>2014-08-23T12:25:24.000Z</time>
      </trkpt>
      <trkpt lat="43.98347" lon="7.384">
        <ele>1652.5999755859</ele>
        <time>2014-08-23T12:25:30.000Z</time>
      </trkpt>
      <trkpt lat="43.98349" lon="7.38397">
        <ele>1653.4000244141</ele>
        <time>2014-08-23T12:25:31.000Z</time>
      </trkpt>
      <trkpt lat="43.98356" lon="7.38382">
        <ele>1655.8000488281</ele>
        <time>2014-08-23T12:25:35.000Z</time>
      </trkpt>
      <trkpt lat="43.98357" lon="7.38378">
        <ele>1655.5999755859</ele>
        <time>2014-08-23T12:25:37.000Z</time>
      </trkpt>
      <trkpt lat="43.98353" lon="7.38381">
        <ele>1654.1999511719</ele>
        <time>2014-08-23T12:25:40.000Z</time>
      </trkpt>
      <trkpt lat="43.9835" lon="7.38382">
        <ele>1652.8000488281</ele>
        <time>2014-08-23T12:25:44.000Z</time>
      </trkpt>
      <trkpt lat="43.98349" lon="7.38374">
        <ele>1651.4000244141</ele>
        <time>2014-08-23T12:25:48.000Z</time>
      </trkpt>
      <trkpt lat="43.98349" lon="7.3837">
        <ele>1651.4000244141</ele>
        <time>2014-08-23T12:25:49.000Z</time>
      </trkpt>
      <trkpt lat="43.98352" lon="7.38371">
        <ele>1652.5999755859</ele>
        <time>2014-08-23T12:25:53.000Z</time>
      </trkpt>
      <trkpt lat="43.98353" lon="7.38371">
        <ele>1653.1999511719</ele>
        <time>2014-08-23T12:25:54.000Z</time>
      </trkpt>
      <trkpt lat="43.98352" lon="7.3837">
        <ele>1652.8000488281</ele>
        <time>2014-08-23T12:25:57.000Z</time>
      </trkpt>
      <trkpt lat="43.98347" lon="7.38368">
        <ele>1650.4000244141</ele>
        <time>2014-08-23T12:26:01.000Z</time>
      </trkpt>
      <trkpt lat="43.98345" lon="7.38368">
        <ele>1649.4000244141</ele>
        <time>2014-08-23T12:26:04.000Z</time>
      </trkpt>
      <trkpt lat="43.98345" lon="7.38365">
        <ele>1649</ele>
        <time>2014-08-23T12:26:05.000Z</time>
      </trkpt>
      <trkpt lat="43.98345" lon="7.38363">
        <ele>1648.8000488281</ele>
        <time>2014-08-23T12:26:06.000Z</time>
      </trkpt>
      <trkpt lat="43.98344" lon="7.38357">
        <ele>1647.8000488281</ele>
        <time>2014-08-23T12:26:09.000Z</time>
      </trkpt>
      <trkpt lat="43.98344" lon="7.38351">
        <ele>1647.4000244141</ele>
        <time>2014-08-23T12:26:12.000Z</time>
      </trkpt>
      <trkpt lat="43.98345" lon="7.3833">
        <ele>1646.4000244141</ele>
        <time>2014-08-23T12:26:19.000Z</time>
      </trkpt>
      <trkpt lat="43.98345" lon="7.38319">
        <ele>1646</ele>
        <time>2014-08-23T12:26:26.000Z</time>
      </trkpt>
      <trkpt lat="43.98343" lon="7.38322">
        <ele>1644.8000488281</ele>
        <time>2014-08-23T12:26:28.000Z</time>
      </trkpt>
      <trkpt lat="43.98337" lon="7.38327">
        <ele>1642.5999755859</ele>
        <time>2014-08-23T12:26:32.000Z</time>
      </trkpt>
      <trkpt lat="43.98335" lon="7.38327">
        <ele>1641.4000244141</ele>
        <time>2014-08-23T12:26:34.000Z</time>
      </trkpt>
      <trkpt lat="43.98333" lon="7.38318">
        <ele>1639.8000488281</ele>
        <time>2014-08-23T12:26:39.000Z</time>
      </trkpt>
      <trkpt lat="43.98333" lon="7.38313">
        <ele>1639.4000244141</ele>
        <time>2014-08-23T12:26:42.000Z</time>
      </trkpt>
      <trkpt lat="43.98333" lon="7.38306">
        <ele>1639.4000244141</ele>
        <time>2014-08-23T12:26:45.000Z</time>
      </trkpt>
      <trkpt lat="43.98333" lon="7.38304">
        <ele>1639</ele>
        <time>2014-08-23T12:26:46.000Z</time>
      </trkpt>
      <trkpt lat="43.98332" lon="7.38298">
        <ele>1637.8000488281</ele>
        <time>2014-08-23T12:26:49.000Z</time>
      </trkpt>
      <trkpt lat="43.98329" lon="7.38296">
        <ele>1636.1999511719</ele>
        <time>2014-08-23T12:26:52.000Z</time>
      </trkpt>
      <trkpt lat="43.98328" lon="7.38284">
        <ele>1634.8000488281</ele>
        <time>2014-08-23T12:27:19.000Z</time>
      </trkpt>
      <trkpt lat="43.98328" lon="7.38277">
        <ele>1634</ele>
        <time>2014-08-23T12:27:24.000Z</time>
      </trkpt>
      <trkpt lat="43.98329" lon="7.38274">
        <ele>1634.1999511719</ele>
        <time>2014-08-23T12:27:27.000Z</time>
      </trkpt>
      <trkpt lat="43.98329" lon="7.38271">
        <ele>1634</ele>
        <time>2014-08-23T12:27:32.000Z</time>
      </trkpt>
      <trkpt lat="43.98333" lon="7.38267">
        <ele>1635.4000244141</ele>
        <time>2014-08-23T12:27:36.000Z</time>
      </trkpt>
      <trkpt lat="43.98332" lon="7.38261">
        <ele>1634.4000244141</ele>
        <time>2014-08-23T12:27:56.000Z</time>
      </trkpt>
      <trkpt lat="43.98335" lon="7.38262">
        <ele>1636</ele>
        <time>2014-08-23T12:27:58.000Z</time>
      </trkpt>
      <trkpt lat="43.9834" lon="7.38259">
        <ele>1637.5999755859</ele>
        <time>2014-08-23T12:28:01.000Z</time>
      </trkpt>
      <trkpt lat="43.98341" lon="7.38254">
        <ele>1637.8000488281</ele>
        <time>2014-08-23T12:28:06.000Z</time>
      </trkpt>
      <trkpt lat="43.98342" lon="7.38251">
        <ele>1638</ele>
        <time>2014-08-23T12:28:08.000Z</time>
      </trkpt>
      <trkpt lat="43.98343" lon="7.38242">
        <ele>1636.8000488281</ele>
        <time>2014-08-23T12:28:13.000Z</time>
      </trkpt>
      <trkpt lat="43.98347" lon="7.3824">
        <ele>1638.1999511719</ele>
        <time>2014-08-23T12:28:16.000Z</time>
      </trkpt>
      <trkpt lat="43.98354" lon="7.38227">
        <ele>1640.5999755859</ele>
        <time>2014-08-23T12:28:30.000Z</time>
      </trkpt>
      <trkpt lat="43.98353" lon="7.38222">
        <ele>1640</ele>
        <time>2014-08-23T12:28:32.000Z</time>
      </trkpt>
      <trkpt lat="43.9835" lon="7.3821">
        <ele>1637.1999511719</ele>
        <time>2014-08-23T12:28:35.000Z</time>
      </trkpt>
      <trkpt lat="43.9835" lon="7.38196">
        <ele>1635.4000244141</ele>
        <time>2014-08-23T12:28:40.000Z</time>
      </trkpt>
      <trkpt lat="43.98345" lon="7.38182">
        <ele>1631.4000244141</ele>
        <time>2014-08-23T12:28:45.000Z</time>
      </trkpt>
      <trkpt lat="43.98347" lon="7.38174">
        <ele>1632</ele>
        <time>2014-08-23T12:28:47.000Z</time>
      </trkpt>
      <trkpt lat="43.98343" lon="7.38171">
        <ele>1629.5999755859</ele>
        <time>2014-08-23T12:28:49.000Z</time>
      </trkpt>
      <trkpt lat="43.9834" lon="7.38164">
        <ele>1627.4000244141</ele>
        <time>2014-08-23T12:28:52.000Z</time>
      </trkpt>
      <trkpt lat="43.98337" lon="7.38156">
        <ele>1625.5999755859</ele>
        <time>2014-08-23T12:28:55.000Z</time>
      </trkpt>
      <trkpt lat="43.98337" lon="7.38147">
        <ele>1625.5999755859</ele>
        <time>2014-08-23T12:28:58.000Z</time>
      </trkpt>
      <trkpt lat="43.98337" lon="7.38142">
        <ele>1625.5999755859</ele>
        <time>2014-08-23T12:29:00.000Z</time>
      </trkpt>
      <trkpt lat="43.98326" lon="7.38125">
        <ele>1619.1999511719</ele>
        <time>2014-08-23T12:29:06.000Z</time>
      </trkpt>
      <trkpt lat="43.98324" lon="7.38116">
        <ele>1617.5999755859</ele>
        <time>2014-08-23T12:29:09.000Z</time>
      </trkpt>
      <trkpt lat="43.98324" lon="7.38109">
        <ele>1617.4000244141</ele>
        <time>2014-08-23T12:29:11.000Z</time>
      </trkpt>
      <trkpt lat="43.98328" lon="7.38096">
        <ele>1618.1999511719</ele>
        <time>2014-08-23T12:29:16.000Z</time>
      </trkpt>
      <trkpt lat="43.98329" lon="7.38093">
        <ele>1618.8000488281</ele>
        <time>2014-08-23T12:29:17.000Z</time>
      </trkpt>
      <trkpt lat="43.98331" lon="7.38087">
        <ele>1619.5999755859</ele>
        <time>2014-08-23T12:29:20.000Z</time>
      </trkpt>
      <trkpt lat="43.98322" lon="7.38076">
        <ele>1613.4000244141</ele>
        <time>2014-08-23T12:29:25.000Z</time>
      </trkpt>
      <trkpt lat="43.98327" lon="7.38072">
        <ele>1615.1999511719</ele>
        <time>2014-08-23T12:29:28.000Z</time>
      </trkpt>
      <trkpt lat="43.98327" lon="7.38071">
        <ele>1615.1999511719</ele>
        <time>2014-08-23T12:29:29.000Z</time>
      </trkpt>
      <trkpt lat="43.98333" lon="7.38069">
        <ele>1617.1999511719</ele>
        <time>2014-08-23T12:29:30.000Z</time>
      </trkpt>
      <trkpt lat="43.98346" lon="7.38059">
        <ele>1622.1999511719</ele>
        <time>2014-08-23T12:29:33.000Z</time>
      </trkpt>
      <trkpt lat="43.98359" lon="7.38044">
        <ele>1626.4000244141</ele>
        <time>2014-08-23T12:29:39.000Z</time>
      </trkpt>
      <trkpt lat="43.98375" lon="7.38021">
        <ele>1627.8000488281</ele>
        <time>2014-08-23T12:29:44.000Z</time>
      </trkpt>
      <trkpt lat="43.98381" lon="7.38006">
        <ele>1629.5999755859</ele>
        <time>2014-08-23T12:29:49.000Z</time>
      </trkpt>
      <trkpt lat="43.98375" lon="7.37985">
        <ele>1625</ele>
        <time>2014-08-23T12:29:56.000Z</time>
      </trkpt>
      <trkpt lat="43.98372" lon="7.37981">
        <ele>1623</ele>
        <time>2014-08-23T12:29:57.000Z</time>
      </trkpt>
      <trkpt lat="43.98368" lon="7.37973">
        <ele>1619.5999755859</ele>
        <time>2014-08-23T12:30:00.000Z</time>
      </trkpt>
      <trkpt lat="43.98368" lon="7.37965">
        <ele>1618.5999755859</ele>
        <time>2014-08-23T12:30:04.000Z</time>
      </trkpt>
      <trkpt lat="43.98368" lon="7.37965">
        <ele>1618.4000244141</ele>
        <time>2014-08-23T12:30:05.000Z</time>
      </trkpt>
      <trkpt lat="43.98368" lon="7.37962">
        <ele>1618</ele>
        <time>2014-08-23T12:30:06.000Z</time>
      </trkpt>
      <trkpt lat="43.98366" lon="7.3796">
        <ele>1616.5999755859</ele>
        <time>2014-08-23T12:30:09.000Z</time>
      </trkpt>
      <trkpt lat="43.98365" lon="7.3796">
        <ele>1616</ele>
        <time>2014-08-23T12:30:10.000Z</time>
      </trkpt>
      <trkpt lat="43.98363" lon="7.37955">
        <ele>1614.5999755859</ele>
        <time>2014-08-23T12:30:12.000Z</time>
      </trkpt>
      <trkpt lat="43.98362" lon="7.37948">
        <ele>1613.1999511719</ele>
        <time>2014-08-23T12:30:15.000Z</time>
      </trkpt>
      <trkpt lat="43.98363" lon="7.37946">
        <ele>1613.1999511719</ele>
        <time>2014-08-23T12:30:17.000Z</time>
      </trkpt>
      <trkpt lat="43.98361" lon="7.37933">
        <ele>1610.1999511719</ele>
        <time>2014-08-23T12:30:21.000Z</time>
      </trkpt>
      <trkpt lat="43.98361" lon="7.37927">
        <ele>1609.4000244141</ele>
        <time>2014-08-23T12:30:23.000Z</time>
      </trkpt>
      <trkpt lat="43.98367" lon="7.37925">
        <ele>1611.5999755859</ele>
        <time>2014-08-23T12:30:25.000Z</time>
      </trkpt>
      <trkpt lat="43.98369" lon="7.37922">
        <ele>1612.5999755859</ele>
        <time>2014-08-23T12:30:26.000Z</time>
      </trkpt>
      <trkpt lat="43.98375" lon="7.37915">
        <ele>1615.5999755859</ele>
        <time>2014-08-23T12:30:29.000Z</time>
      </trkpt>
      <trkpt lat="43.98374" lon="7.37913">
        <ele>1615.4000244141</ele>
        <time>2014-08-23T12:30:30.000Z</time>
      </trkpt>
      <trkpt lat="43.98377" lon="7.37905">
        <ele>1617.4000244141</ele>
        <time>2014-08-23T12:30:33.000Z</time>
      </trkpt>
      <trkpt lat="43.98377" lon="7.37904">
        <ele>1617.5999755859</ele>
        <time>2014-08-23T12:30:34.000Z</time>
      </trkpt>
      <trkpt lat="43.98379" lon="7.37898">
        <ele>1618.8000488281</ele>
        <time>2014-08-23T12:30:38.000Z</time>
      </trkpt>
      <trkpt lat="43.98386" lon="7.37881">
        <ele>1623.8000488281</ele>
        <time>2014-08-23T12:30:43.000Z</time>
      </trkpt>
      <trkpt lat="43.98391" lon="7.3787">
        <ele>1627.4000244141</ele>
        <time>2014-08-23T12:30:46.000Z</time>
      </trkpt>
      <trkpt lat="43.98397" lon="7.37865">
        <ele>1630.5999755859</ele>
        <time>2014-08-23T12:30:48.000Z</time>
      </trkpt>
      <trkpt lat="43.98403" lon="7.37855">
        <ele>1633.1999511719</ele>
        <time>2014-08-23T12:30:50.000Z</time>
      </trkpt>
      <trkpt lat="43.98404" lon="7.37852">
        <ele>1633.8000488281</ele>
        <time>2014-08-23T12:30:52.000Z</time>
      </trkpt>
      <trkpt lat="43.98403" lon="7.37851">
        <ele>1633.1999511719</ele>
        <time>2014-08-23T12:30:56.000Z</time>
      </trkpt>
      <trkpt lat="43.98398" lon="7.37848">
        <ele>1631</ele>
        <time>2014-08-23T12:30:58.000Z</time>
      </trkpt>
      <trkpt lat="43.98382" lon="7.37838">
        <ele>1622.4000244141</ele>
        <time>2014-08-23T12:31:01.000Z</time>
      </trkpt>
      <trkpt lat="43.98378" lon="7.37836">
        <ele>1620.1999511719</ele>
        <time>2014-08-23T12:31:02.000Z</time>
      </trkpt>
      <trkpt lat="43.98378" lon="7.37834">
        <ele>1620.1999511719</ele>
        <time>2014-08-23T12:31:03.000Z</time>
      </trkpt>
      <trkpt lat="43.98372" lon="7.37828">
        <ele>1618.4000244141</ele>
        <time>2014-08-23T12:31:06.000Z</time>
      </trkpt>
      <trkpt lat="43.98355" lon="7.37825">
        <ele>1611.5999755859</ele>
        <time>2014-08-23T12:31:12.000Z</time>
      </trkpt>
      <trkpt lat="43.98353" lon="7.37825">
        <ele>1611.1999511719</ele>
        <time>2014-08-23T12:31:13.000Z</time>
      </trkpt>
      <trkpt lat="43.98352" lon="7.37825">
        <ele>1610.8000488281</ele>
        <time>2014-08-23T12:31:15.000Z</time>
      </trkpt>
      <trkpt lat="43.98344" lon="7.37821">
        <ele>1610.4000244141</ele>
        <time>2014-08-23T12:31:18.000Z</time>
      </trkpt>
      <trkpt lat="43.9833" lon="7.37817">
        <ele>1608</ele>
        <time>2014-08-23T12:31:23.000Z</time>
      </trkpt>
      <trkpt lat="43.9833" lon="7.37813">
        <ele>1609.1999511719</ele>
        <time>2014-08-23T12:31:24.000Z</time>
      </trkpt>
      <trkpt lat="43.98331" lon="7.3781">
        <ele>1611</ele>
        <time>2014-08-23T12:31:25.000Z</time>
      </trkpt>
      <trkpt lat="43.98328" lon="7.37797">
        <ele>1615</ele>
        <time>2014-08-23T12:31:29.000Z</time>
      </trkpt>
      <trkpt lat="43.98322" lon="7.37793">
        <ele>1615.1999511719</ele>
        <time>2014-08-23T12:31:32.000Z</time>
      </trkpt>
      <trkpt lat="43.98321" lon="7.37793">
        <ele>1615</ele>
        <time>2014-08-23T12:31:33.000Z</time>
      </trkpt>
      <trkpt lat="43.98318" lon="7.37791">
        <ele>1615</ele>
        <time>2014-08-23T12:31:35.000Z</time>
      </trkpt>
      <trkpt lat="43.98317" lon="7.37792">
        <ele>1614.1999511719</ele>
        <time>2014-08-23T12:31:37.000Z</time>
      </trkpt>
      <trkpt lat="43.98313" lon="7.37789">
        <ele>1614.1999511719</ele>
        <time>2014-08-23T12:31:40.000Z</time>
      </trkpt>
      <trkpt lat="43.98307" lon="7.37778">
        <ele>1617</ele>
        <time>2014-08-23T12:31:44.000Z</time>
      </trkpt>
      <trkpt lat="43.98302" lon="7.37781">
        <ele>1614.5999755859</ele>
        <time>2014-08-23T12:31:47.000Z</time>
      </trkpt>
      <trkpt lat="43.983" lon="7.37784">
        <ele>1612.5999755859</ele>
        <time>2014-08-23T12:31:48.000Z</time>
      </trkpt>
      <trkpt lat="43.98298" lon="7.37785">
        <ele>1611.8000488281</ele>
        <time>2014-08-23T12:31:49.000Z</time>
      </trkpt>
      <trkpt lat="43.98295" lon="7.37785">
        <ele>1611</ele>
        <time>2014-08-23T12:31:50.000Z</time>
      </trkpt>
      <trkpt lat="43.98291" lon="7.37782">
        <ele>1611</ele>
        <time>2014-08-23T12:31:53.000Z</time>
      </trkpt>
      <trkpt lat="43.98284" lon="7.37772">
        <ele>1612.8000488281</ele>
        <time>2014-08-23T12:32:00.000Z</time>
      </trkpt>
      <trkpt lat="43.98274" lon="7.37759">
        <ele>1615</ele>
        <time>2014-08-23T12:32:06.000Z</time>
      </trkpt>
      <trkpt lat="43.98272" lon="7.37751">
        <ele>1617.5999755859</ele>
        <time>2014-08-23T12:32:10.000Z</time>
      </trkpt>
      <trkpt lat="43.9827" lon="7.37751">
        <ele>1616.8000488281</ele>
        <time>2014-08-23T12:32:12.000Z</time>
      </trkpt>
      <trkpt lat="43.98269" lon="7.37747">
        <ele>1617.5999755859</ele>
        <time>2014-08-23T12:32:14.000Z</time>
      </trkpt>
      <trkpt lat="43.98268" lon="7.37741">
        <ele>1618.1999511719</ele>
        <time>2014-08-23T12:32:17.000Z</time>
      </trkpt>
      <trkpt lat="43.98268" lon="7.3774">
        <ele>1618.4000244141</ele>
        <time>2014-08-23T12:32:18.000Z</time>
      </trkpt>
      <trkpt lat="43.98263" lon="7.37742">
        <ele>1615.8000488281</ele>
        <time>2014-08-23T12:32:20.000Z</time>
      </trkpt>
      <trkpt lat="43.98264" lon="7.37736">
        <ele>1617.8000488281</ele>
        <time>2014-08-23T12:32:23.000Z</time>
      </trkpt>
      <trkpt lat="43.98259" lon="7.37737">
        <ele>1615</ele>
        <time>2014-08-23T12:32:25.000Z</time>
      </trkpt>
      <trkpt lat="43.98259" lon="7.37736">
        <ele>1615</ele>
        <time>2014-08-23T12:32:26.000Z</time>
      </trkpt>
      <trkpt lat="43.98252" lon="7.37735">
        <ele>1612.4000244141</ele>
        <time>2014-08-23T12:32:29.000Z</time>
      </trkpt>
      <trkpt lat="43.9825" lon="7.37735">
        <ele>1611.4000244141</ele>
        <time>2014-08-23T12:32:30.000Z</time>
      </trkpt>
      <trkpt lat="43.98239" lon="7.37723">
        <ele>1609</ele>
        <time>2014-08-23T12:32:36.000Z</time>
      </trkpt>
      <trkpt lat="43.98238" lon="7.3772">
        <ele>1609</ele>
        <time>2014-08-23T12:32:37.000Z</time>
      </trkpt>
      <trkpt lat="43.9823" lon="7.37706">
        <ele>1608.1999511719</ele>
        <time>2014-08-23T12:32:41.000Z</time>
      </trkpt>
      <trkpt lat="43.98226" lon="7.37694">
        <ele>1608.8000488281</ele>
        <time>2014-08-23T12:32:45.000Z</time>
      </trkpt>
      <trkpt lat="43.98225" lon="7.37688">
        <ele>1609.8000488281</ele>
        <time>2014-08-23T12:32:46.000Z</time>
      </trkpt>
      <trkpt lat="43.98224" lon="7.37676">
        <ele>1611.8000488281</ele>
        <time>2014-08-23T12:32:49.000Z</time>
      </trkpt>
      <trkpt lat="43.98221" lon="7.37673">
        <ele>1611.1999511719</ele>
        <time>2014-08-23T12:32:50.000Z</time>
      </trkpt>
      <trkpt lat="43.98215" lon="7.37668">
        <ele>1609</ele>
        <time>2014-08-23T12:32:53.000Z</time>
      </trkpt>
      <trkpt lat="43.98209" lon="7.37667">
        <ele>1606.8000488281</ele>
        <time>2014-08-23T12:32:55.000Z</time>
      </trkpt>
      <trkpt lat="43.98207" lon="7.37663">
        <ele>1606.4000244141</ele>
        <time>2014-08-23T12:32:58.000Z</time>
      </trkpt>
      <trkpt lat="43.98206" lon="7.37663">
        <ele>1606</ele>
        <time>2014-08-23T12:32:59.000Z</time>
      </trkpt>
      <trkpt lat="43.98205" lon="7.3766">
        <ele>1605.8000488281</ele>
        <time>2014-08-23T12:33:01.000Z</time>
      </trkpt>
      <trkpt lat="43.98201" lon="7.37656">
        <ele>1604.4000244141</ele>
        <time>2014-08-23T12:33:05.000Z</time>
      </trkpt>
      <trkpt lat="43.98197" lon="7.3765">
        <ele>1603.5999755859</ele>
        <time>2014-08-23T12:33:07.000Z</time>
      </trkpt>
      <trkpt lat="43.98188" lon="7.37636">
        <ele>1601.5999755859</ele>
        <time>2014-08-23T12:33:12.000Z</time>
      </trkpt>
      <trkpt lat="43.98185" lon="7.37637">
        <ele>1600.5999755859</ele>
        <time>2014-08-23T12:33:16.000Z</time>
      </trkpt>
      <trkpt lat="43.98178" lon="7.37626">
        <ele>1599.8000488281</ele>
        <time>2014-08-23T12:33:22.000Z</time>
      </trkpt>
      <trkpt lat="43.98179" lon="7.37623">
        <ele>1600.5999755859</ele>
        <time>2014-08-23T12:33:23.000Z</time>
      </trkpt>
      <trkpt lat="43.98175" lon="7.37613">
        <ele>1600.5999755859</ele>
        <time>2014-08-23T12:33:27.000Z</time>
      </trkpt>
      <trkpt lat="43.98161" lon="7.37599">
        <ele>1598.5999755859</ele>
        <time>2014-08-23T12:33:33.000Z</time>
      </trkpt>
      <trkpt lat="43.98162" lon="7.37591">
        <ele>1599.8000488281</ele>
        <time>2014-08-23T12:33:37.000Z</time>
      </trkpt>
      <trkpt lat="43.98163" lon="7.37591">
        <ele>1599.8000488281</ele>
        <time>2014-08-23T12:33:38.000Z</time>
      </trkpt>
      <trkpt lat="43.98176" lon="7.37584">
        <ele>1604.4000244141</ele>
        <time>2014-08-23T12:34:13.000Z</time>
      </trkpt>
      <trkpt lat="43.98172" lon="7.37586">
        <ele>1603</ele>
        <time>2014-08-23T12:34:29.000Z</time>
      </trkpt>
      <trkpt lat="43.98166" lon="7.37586">
        <ele>1601.5999755859</ele>
        <time>2014-08-23T12:34:32.000Z</time>
      </trkpt>
      <trkpt lat="43.98166" lon="7.37585">
        <ele>1601.5999755859</ele>
        <time>2014-08-23T12:34:33.000Z</time>
      </trkpt>
      <trkpt lat="43.98166" lon="7.37581">
        <ele>1602</ele>
        <time>2014-08-23T12:34:36.000Z</time>
      </trkpt>
      <trkpt lat="43.98176" lon="7.37574">
        <ele>1602.4000244141</ele>
        <time>2014-08-23T12:34:41.000Z</time>
      </trkpt>
      <trkpt lat="43.98179" lon="7.37568">
        <ele>1601.8000488281</ele>
        <time>2014-08-23T12:34:45.000Z</time>
      </trkpt>
      <trkpt lat="43.98181" lon="7.37566">
        <ele>1601.5999755859</ele>
        <time>2014-08-23T12:34:51.000Z</time>
      </trkpt>
      <trkpt lat="43.98179" lon="7.37563">
        <ele>1600.4000244141</ele>
        <time>2014-08-23T12:34:54.000Z</time>
      </trkpt>
      <trkpt lat="43.98176" lon="7.37567">
        <ele>1600.5999755859</ele>
        <time>2014-08-23T12:34:57.000Z</time>
      </trkpt>
      <trkpt lat="43.98178" lon="7.37564">
        <ele>1600.1999511719</ele>
        <time>2014-08-23T12:35:02.000Z</time>
      </trkpt>
      <trkpt lat="43.98179" lon="7.37563">
        <ele>1600.4000244141</ele>
        <time>2014-08-23T12:35:04.000Z</time>
      </trkpt>
      <trkpt lat="43.98191" lon="7.37568">
        <ele>1605.4000244141</ele>
        <time>2014-08-23T12:35:10.000Z</time>
      </trkpt>
      <trkpt lat="43.98202" lon="7.3757">
        <ele>1608.4000244141</ele>
        <time>2014-08-23T12:35:12.000Z</time>
      </trkpt>
      <trkpt lat="43.98238" lon="7.37555">
        <ele>1613.5999755859</ele>
        <time>2014-08-23T12:35:30.000Z</time>
      </trkpt>
      <trkpt lat="43.98238" lon="7.37551">
        <ele>1612.4000244141</ele>
        <time>2014-08-23T12:35:32.000Z</time>
      </trkpt>
      <trkpt lat="43.98241" lon="7.37551">
        <ele>1613.4000244141</ele>
        <time>2014-08-23T12:35:33.000Z</time>
      </trkpt>
      <trkpt lat="43.98263" lon="7.37532">
        <ele>1615.8000488281</ele>
        <time>2014-08-23T12:35:35.000Z</time>
      </trkpt>
      <trkpt lat="43.98271" lon="7.37529">
        <ele>1617.5999755859</ele>
        <time>2014-08-23T12:35:38.000Z</time>
      </trkpt>
      <trkpt lat="43.98281" lon="7.37529">
        <ele>1619.8000488281</ele>
        <time>2014-08-23T12:35:43.000Z</time>
      </trkpt>
      <trkpt lat="43.98282" lon="7.37531">
        <ele>1620.5999755859</ele>
        <time>2014-08-23T12:35:47.000Z</time>
      </trkpt>
      <trkpt lat="43.98283" lon="7.37531">
        <ele>1620.8000488281</ele>
        <time>2014-08-23T12:35:48.000Z</time>
      </trkpt>
      <trkpt lat="43.98284" lon="7.37531">
        <ele>1621</ele>
        <time>2014-08-23T12:35:55.000Z</time>
      </trkpt>
      <trkpt lat="43.98285" lon="7.37529">
        <ele>1620.5999755859</ele>
        <time>2014-08-23T12:35:56.000Z</time>
      </trkpt>
      <trkpt lat="43.98285" lon="7.37525">
        <ele>1619.8000488281</ele>
        <time>2014-08-23T12:36:00.000Z</time>
      </trkpt>
      <trkpt lat="43.98296" lon="7.37519">
        <ele>1620.5999755859</ele>
        <time>2014-08-23T12:36:05.000Z</time>
      </trkpt>
      <trkpt lat="43.98302" lon="7.37517">
        <ele>1621.4000244141</ele>
        <time>2014-08-23T12:36:09.000Z</time>
      </trkpt>
      <trkpt lat="43.98302" lon="7.37515">
        <ele>1620.8000488281</ele>
        <time>2014-08-23T12:36:10.000Z</time>
      </trkpt>
      <trkpt lat="43.98303" lon="7.37514">
        <ele>1620.8000488281</ele>
        <time>2014-08-23T12:36:11.000Z</time>
      </trkpt>
      <trkpt lat="43.98308" lon="7.37508">
        <ele>1620.4000244141</ele>
        <time>2014-08-23T12:36:15.000Z</time>
      </trkpt>
      <trkpt lat="43.9831" lon="7.375">
        <ele>1619.1999511719</ele>
        <time>2014-08-23T12:36:19.000Z</time>
      </trkpt>
      <trkpt lat="43.98314" lon="7.37493">
        <ele>1619</ele>
        <time>2014-08-23T12:36:22.000Z</time>
      </trkpt>
      <trkpt lat="43.98316" lon="7.37489">
        <ele>1619</ele>
        <time>2014-08-23T12:36:24.000Z</time>
      </trkpt>
      <trkpt lat="43.98317" lon="7.37485">
        <ele>1618.8000488281</ele>
        <time>2014-08-23T12:36:26.000Z</time>
      </trkpt>
      <trkpt lat="43.9832" lon="7.37478">
        <ele>1618.8000488281</ele>
        <time>2014-08-23T12:36:28.000Z</time>
      </trkpt>
      <trkpt lat="43.98322" lon="7.37472">
        <ele>1618.4000244141</ele>
        <time>2014-08-23T12:36:31.000Z</time>
      </trkpt>
      <trkpt lat="43.98322" lon="7.37472">
        <ele>1618.5999755859</ele>
        <time>2014-08-23T12:36:32.000Z</time>
      </trkpt>
      <trkpt lat="43.98321" lon="7.37464">
        <ele>1617.5999755859</ele>
        <time>2014-08-23T12:36:36.000Z</time>
      </trkpt>
      <trkpt lat="43.98328" lon="7.37459">
        <ele>1618.1999511719</ele>
        <time>2014-08-23T12:36:40.000Z</time>
      </trkpt>
      <trkpt lat="43.98335" lon="7.37446">
        <ele>1618.1999511719</ele>
        <time>2014-08-23T12:36:46.000Z</time>
      </trkpt>
      <trkpt lat="43.98338" lon="7.37445">
        <ele>1618.5999755859</ele>
        <time>2014-08-23T12:36:49.000Z</time>
      </trkpt>
      <trkpt lat="43.98338" lon="7.37442">
        <ele>1618.4000244141</ele>
        <time>2014-08-23T12:36:52.000Z</time>
      </trkpt>
      <trkpt lat="43.98338" lon="7.37444">
        <ele>1618.5999755859</ele>
        <time>2014-08-23T12:36:56.000Z</time>
      </trkpt>
      <trkpt lat="43.98342" lon="7.37456">
        <ele>1620.5999755859</ele>
        <time>2014-08-23T12:37:14.000Z</time>
      </trkpt>
      <trkpt lat="43.9837" lon="7.37487">
        <ele>1626.4000244141</ele>
        <time>2014-08-23T12:37:25.000Z</time>
      </trkpt>
      <trkpt lat="43.98371" lon="7.37486">
        <ele>1626.1999511719</ele>
        <time>2014-08-23T12:37:26.000Z</time>
      </trkpt>
      <trkpt lat="43.98365" lon="7.37467">
        <ele>1624.4000244141</ele>
        <time>2014-08-23T12:37:27.000Z</time>
      </trkpt>
      <trkpt lat="43.98368" lon="7.37471">
        <ele>1624.8000488281</ele>
        <time>2014-08-23T12:37:28.000Z</time>
      </trkpt>
      <trkpt lat="43.98375" lon="7.37468">
        <ele>1624.1999511719</ele>
        <time>2014-08-23T12:37:31.000Z</time>
      </trkpt>
      <trkpt lat="43.98382" lon="7.37466">
        <ele>1623.5999755859</ele>
        <time>2014-08-23T12:37:34.000Z</time>
      </trkpt>
      <trkpt lat="43.98383" lon="7.37467">
        <ele>1623.8000488281</ele>
        <time>2014-08-23T12:37:35.000Z</time>
      </trkpt>
      <trkpt lat="43.9839" lon="7.3746">
        <ele>1622.8000488281</ele>
        <time>2014-08-23T12:37:39.000Z</time>
      </trkpt>
      <trkpt lat="43.98396" lon="7.37456">
        <ele>1622.1999511719</ele>
        <time>2014-08-23T12:37:46.000Z</time>
      </trkpt>
      <trkpt lat="43.98395" lon="7.37461">
        <ele>1622.5999755859</ele>
        <time>2014-08-23T12:37:54.000Z</time>
      </trkpt>
      <trkpt lat="43.98397" lon="7.37459">
        <ele>1622.4000244141</ele>
        <time>2014-08-23T12:37:56.000Z</time>
      </trkpt>
      <trkpt lat="43.98396" lon="7.37462">
        <ele>1622.8000488281</ele>
        <time>2014-08-23T12:37:58.000Z</time>
      </trkpt>
      <trkpt lat="43.98396" lon="7.37459">
        <ele>1622.4000244141</ele>
        <time>2014-08-23T12:37:59.000Z</time>
      </trkpt>
      <trkpt lat="43.98395" lon="7.37458">
        <ele>1622.4000244141</ele>
        <time>2014-08-23T12:38:00.000Z</time>
      </trkpt>
      <trkpt lat="43.98402" lon="7.37462">
        <ele>1622.5999755859</ele>
        <time>2014-08-23T12:38:12.000Z</time>
      </trkpt>
      <trkpt lat="43.9841" lon="7.37463">
        <ele>1621.8000488281</ele>
        <time>2014-08-23T12:38:14.000Z</time>
      </trkpt>
      <trkpt lat="43.98899" lon="7.37566">
        <ele>1596.8000488281</ele>
        <time>2014-08-23T12:45:07.000Z</time>
      </trkpt>
      <trkpt lat="43.98899" lon="7.37565">
        <ele>1596.4000244141</ele>
        <time>2014-08-23T12:45:08.000Z</time>
      </trkpt>
      <trkpt lat="43.98901" lon="7.37564">
        <ele>1595.5999755859</ele>
        <time>2014-08-23T12:45:09.000Z</time>
      </trkpt>
      <trkpt lat="43.98897" lon="7.37575">
        <ele>1600.5999755859</ele>
        <time>2014-08-23T12:45:12.000Z</time>
      </trkpt>
      <trkpt lat="43.98893" lon="7.37582">
        <ele>1603.8000488281</ele>
        <time>2014-08-23T12:45:14.000Z</time>
      </trkpt>
      <trkpt lat="43.98891" lon="7.37592">
        <ele>1603.5999755859</ele>
        <time>2014-08-23T12:45:17.000Z</time>
      </trkpt>
      <trkpt lat="43.98891" lon="7.37597">
        <ele>1603.5999755859</ele>
        <time>2014-08-23T12:45:20.000Z</time>
      </trkpt>
      <trkpt lat="43.98895" lon="7.37597">
        <ele>1602.8000488281</ele>
        <time>2014-08-23T12:45:23.000Z</time>
      </trkpt>
      <trkpt lat="43.98896" lon="7.37596">
        <ele>1602.5999755859</ele>
        <time>2014-08-23T12:45:24.000Z</time>
      </trkpt>
      <trkpt lat="43.98901" lon="7.37587">
        <ele>1602</ele>
        <time>2014-08-23T12:45:28.000Z</time>
      </trkpt>
      <trkpt lat="43.98906" lon="7.37583">
        <ele>1601.4000244141</ele>
        <time>2014-08-23T12:45:31.000Z</time>
      </trkpt>
      <trkpt lat="43.98909" lon="7.3759">
        <ele>1600.5999755859</ele>
        <time>2014-08-23T12:45:33.000Z</time>
      </trkpt>
      <trkpt lat="43.98912" lon="7.37603">
        <ele>1599.4000244141</ele>
        <time>2014-08-23T12:45:37.000Z</time>
      </trkpt>
      <trkpt lat="43.9891" lon="7.37605">
        <ele>1599.8000488281</ele>
        <time>2014-08-23T12:45:41.000Z</time>
      </trkpt>
      <trkpt lat="43.98907" lon="7.37609">
        <ele>1600.1999511719</ele>
        <time>2014-08-23T12:45:43.000Z</time>
      </trkpt>
      <trkpt lat="43.98903" lon="7.37615">
        <ele>1600.8000488281</ele>
        <time>2014-08-23T12:45:46.000Z</time>
      </trkpt>
      <trkpt lat="43.98927" lon="7.37585">
        <ele>1597.5999755859</ele>
        <time>2014-08-23T12:46:15.000Z</time>
      </trkpt>
      <trkpt lat="43.98929" lon="7.37582">
        <ele>1597.1999511719</ele>
        <time>2014-08-23T12:46:28.000Z</time>
      </trkpt>
      <trkpt lat="43.98926" lon="7.37579">
        <ele>1596.5999755859</ele>
        <time>2014-08-23T12:46:31.000Z</time>
      </trkpt>
      <trkpt lat="43.98925" lon="7.37579">
        <ele>1597</ele>
        <time>2014-08-23T12:46:36.000Z</time>
      </trkpt>
      <trkpt lat="43.98916" lon="7.37584">
        <ele>1599.5999755859</ele>
        <time>2014-08-23T12:46:42.000Z</time>
      </trkpt>
      <trkpt lat="43.98914" lon="7.37583">
        <ele>1599.8000488281</ele>
        <time>2014-08-23T12:46:44.000Z</time>
      </trkpt>
      <trkpt lat="43.98914" lon="7.37586">
        <ele>1599.8000488281</ele>
        <time>2014-08-23T12:46:45.000Z</time>
      </trkpt>
      <trkpt lat="43.98913" lon="7.3759">
        <ele>1599.8000488281</ele>
        <time>2014-08-23T12:46:46.000Z</time>
      </trkpt>
      <trkpt lat="43.9891" lon="7.37584">
        <ele>1600.5999755859</ele>
        <time>2014-08-23T12:46:51.000Z</time>
      </trkpt>
      <trkpt lat="43.98906" lon="7.37575">
        <ele>1599.1999511719</ele>
        <time>2014-08-23T12:46:57.000Z</time>
      </trkpt>
      <trkpt lat="43.98906" lon="7.37575">
        <ele>1599</ele>
        <time>2014-08-23T12:46:58.000Z</time>
      </trkpt>
      <trkpt lat="43.98906" lon="7.37577">
        <ele>1600</ele>
        <time>2014-08-23T12:47:02.000Z</time>
      </trkpt>
      <trkpt lat="43.98903" lon="7.37581">
        <ele>1601.8000488281</ele>
        <time>2014-08-23T12:47:06.000Z</time>
      </trkpt>
      <trkpt lat="43.98898" lon="7.37581">
        <ele>1602.5999755859</ele>
        <time>2014-08-23T12:47:09.000Z</time>
      </trkpt>
      <trkpt lat="43.98878" lon="7.37572">
        <ele>1602.8000488281</ele>
        <time>2014-08-23T12:47:28.000Z</time>
      </trkpt>
      <trkpt lat="43.98876" lon="7.37569">
        <ele>1602</ele>
        <time>2014-08-23T12:47:31.000Z</time>
      </trkpt>
      <trkpt lat="43.98875" lon="7.37564">
        <ele>1600.4000244141</ele>
        <time>2014-08-23T12:47:34.000Z</time>
      </trkpt>
      <trkpt lat="43.98873" lon="7.37562">
        <ele>1599.8000488281</ele>
        <time>2014-08-23T12:47:37.000Z</time>
      </trkpt>
      <trkpt lat="43.98868" lon="7.37553">
        <ele>1597.4000244141</ele>
        <time>2014-08-23T12:47:43.000Z</time>
      </trkpt>
      <trkpt lat="43.98679" lon="7.37582">
        <ele>1575.8000488281</ele>
        <time>2014-08-23T12:54:54.000Z</time>
      </trkpt>
      <trkpt lat="43.98678" lon="7.37581">
        <ele>1575</ele>
        <time>2014-08-23T12:54:56.000Z</time>
      </trkpt>
      <trkpt lat="43.98673" lon="7.3757">
        <ele>1571.4000244141</ele>
        <time>2014-08-23T12:54:57.000Z</time>
      </trkpt>
      <trkpt lat="43.98669" lon="7.37558">
        <ele>1566.8000488281</ele>
        <time>2014-08-23T12:55:00.000Z</time>
      </trkpt>
      <trkpt lat="43.98671" lon="7.37561">
        <ele>1567.5999755859</ele>
        <time>2014-08-23T12:55:04.000Z</time>
      </trkpt>
      <trkpt lat="43.98665" lon="7.37582">
        <ele>1578.8000488281</ele>
        <time>2014-08-23T12:55:28.000Z</time>
      </trkpt>
      <trkpt lat="43.98666" lon="7.37582">
        <ele>1579</ele>
        <time>2014-08-23T12:55:39.000Z</time>
      </trkpt>
      <trkpt lat="43.98666" lon="7.37584">
        <ele>1580.1999511719</ele>
        <time>2014-08-23T12:55:41.000Z</time>
      </trkpt>
      <trkpt lat="43.9867" lon="7.37586">
        <ele>1579.8000488281</ele>
        <time>2014-08-23T12:55:44.000Z</time>
      </trkpt>
      <trkpt lat="43.98671" lon="7.37586">
        <ele>1579.5999755859</ele>
        <time>2014-08-23T12:55:47.000Z</time>
      </trkpt>
      <trkpt lat="43.98677" lon="7.37589">
        <ele>1579.8000488281</ele>
        <time>2014-08-23T12:55:52.000Z</time>
      </trkpt>
      <trkpt lat="43.98685" lon="7.37595">
        <ele>1580.8000488281</ele>
        <time>2014-08-23T12:55:56.000Z</time>
      </trkpt>
      <trkpt lat="43.98691" lon="7.37605">
        <ele>1585</ele>
        <time>2014-08-23T12:56:09.000Z</time>
      </trkpt>
      <trkpt lat="43.987" lon="7.37609">
        <ele>1586.5999755859</ele>
        <time>2014-08-23T12:56:30.000Z</time>
      </trkpt>
      <trkpt lat="43.98709" lon="7.37611">
        <ele>1587.8000488281</ele>
        <time>2014-08-23T12:56:34.000Z</time>
      </trkpt>
      <trkpt lat="43.98716" lon="7.3761">
        <ele>1587.1999511719</ele>
        <time>2014-08-23T12:56:37.000Z</time>
      </trkpt>
      <trkpt lat="43.98724" lon="7.37606">
        <ele>1586.4000244141</ele>
        <time>2014-08-23T12:56:40.000Z</time>
      </trkpt>
      <trkpt lat="43.98728" lon="7.37608">
        <ele>1587.8000488281</ele>
        <time>2014-08-23T12:56:45.000Z</time>
      </trkpt>
      <trkpt lat="43.98729" lon="7.37607">
        <ele>1587.5999755859</ele>
        <time>2014-08-23T12:56:48.000Z</time>
      </trkpt>
      <trkpt lat="43.98731" lon="7.37602">
        <ele>1586.5999755859</ele>
        <time>2014-08-23T12:56:51.000Z</time>
      </trkpt>
      <trkpt lat="43.98736" lon="7.37599">
        <ele>1586.5999755859</ele>
        <time>2014-08-23T12:56:55.000Z</time>
      </trkpt>
      <trkpt lat="43.98742" lon="7.37601">
        <ele>1588.5999755859</ele>
        <time>2014-08-23T12:56:57.000Z</time>
      </trkpt>
      <trkpt lat="43.9875" lon="7.376">
        <ele>1589.8000488281</ele>
        <time>2014-08-23T12:57:00.000Z</time>
      </trkpt>
      <trkpt lat="43.98751" lon="7.37599">
        <ele>1589.5999755859</ele>
        <time>2014-08-23T12:57:01.000Z</time>
      </trkpt>
      <trkpt lat="43.98766" lon="7.37597">
        <ele>1592</ele>
        <time>2014-08-23T12:57:06.000Z</time>
      </trkpt>
      <trkpt lat="43.98765" lon="7.37598">
        <ele>1592.4000244141</ele>
        <time>2014-08-23T12:57:10.000Z</time>
      </trkpt>
      <trkpt lat="43.98783" lon="7.37581">
        <ele>1590.8000488281</ele>
        <time>2014-08-23T12:57:44.000Z</time>
      </trkpt>
      <trkpt lat="43.98781" lon="7.37576">
        <ele>1588</ele>
        <time>2014-08-23T12:57:45.000Z</time>
      </trkpt>
      <trkpt lat="43.9878" lon="7.37571">
        <ele>1585</ele>
        <time>2014-08-23T12:57:46.000Z</time>
      </trkpt>
      <trkpt lat="43.98776" lon="7.37566">
        <ele>1581.1999511719</ele>
        <time>2014-08-23T12:57:50.000Z</time>
      </trkpt>
      <trkpt lat="43.98774" lon="7.37566">
        <ele>1581</ele>
        <time>2014-08-23T12:57:51.000Z</time>
      </trkpt>
      <trkpt lat="43.98775" lon="7.37569">
        <ele>1582.8000488281</ele>
        <time>2014-08-23T12:57:54.000Z</time>
      </trkpt>
      <trkpt lat="43.98789" lon="7.37573">
        <ele>1588.4000244141</ele>
        <time>2014-08-23T12:58:06.000Z</time>
      </trkpt>
      <trkpt lat="43.98791" lon="7.3757">
        <ele>1587</ele>
        <time>2014-08-23T12:58:09.000Z</time>
      </trkpt>
      <trkpt lat="43.98792" lon="7.37569">
        <ele>1586.8000488281</ele>
        <time>2014-08-23T12:58:10.000Z</time>
      </trkpt>
      <trkpt lat="43.98795" lon="7.37562">
        <ele>1584.1999511719</ele>
        <time>2014-08-23T12:58:13.000Z</time>
      </trkpt>
      <trkpt lat="43.98802" lon="7.37555">
        <ele>1582.1999511719</ele>
        <time>2014-08-23T12:58:18.000Z</time>
      </trkpt>
      <trkpt lat="43.9881" lon="7.37544">
        <ele>1578.5999755859</ele>
        <time>2014-08-23T12:58:24.000Z</time>
      </trkpt>
      <trkpt lat="43.98816" lon="7.37529">
        <ele>1574</ele>
        <time>2014-08-23T12:58:30.000Z</time>
      </trkpt>
      <trkpt lat="43.98829" lon="7.37531">
        <ele>1579.5999755859</ele>
        <time>2014-08-23T12:58:36.000Z</time>
      </trkpt>
      <trkpt lat="43.9883" lon="7.37528">
        <ele>1578.8000488281</ele>
        <time>2014-08-23T12:58:40.000Z</time>
      </trkpt>
      <trkpt lat="43.98828" lon="7.37525">
        <ele>1576.8000488281</ele>
        <time>2014-08-23T12:58:42.000Z</time>
      </trkpt>
      <trkpt lat="43.98827" lon="7.37523">
        <ele>1575.8000488281</ele>
        <time>2014-08-23T12:58:43.000Z</time>
      </trkpt>
      <trkpt lat="43.98823" lon="7.37516">
        <ele>1571.5999755859</ele>
        <time>2014-08-23T12:58:46.000Z</time>
      </trkpt>
      <trkpt lat="43.98823" lon="7.37514">
        <ele>1570.5999755859</ele>
        <time>2014-08-23T12:58:47.000Z</time>
      </trkpt>
      <trkpt lat="43.98823" lon="7.37503">
        <ele>1566.5999755859</ele>
        <time>2014-08-23T12:58:57.000Z</time>
      </trkpt>
      <trkpt lat="43.98823" lon="7.37499">
        <ele>1564.5999755859</ele>
        <time>2014-08-23T12:59:01.000Z</time>
      </trkpt>
      <trkpt lat="43.98841" lon="7.37495">
        <ele>1570.4000244141</ele>
        <time>2014-08-23T12:59:35.000Z</time>
      </trkpt>
      <trkpt lat="43.98843" lon="7.37494">
        <ele>1570.5999755859</ele>
        <time>2014-08-23T12:59:39.000Z</time>
      </trkpt>
      <trkpt lat="43.98853" lon="7.37496">
        <ele>1575.1999511719</ele>
        <time>2014-08-23T13:00:05.000Z</time>
      </trkpt>
      <trkpt lat="43.98854" lon="7.37494">
        <ele>1575</ele>
        <time>2014-08-23T13:00:08.000Z</time>
      </trkpt>
      <trkpt lat="43.98856" lon="7.37492">
        <ele>1574.8000488281</ele>
        <time>2014-08-23T13:00:09.000Z</time>
      </trkpt>
      <trkpt lat="43.98853" lon="7.3749">
        <ele>1573.1999511719</ele>
        <time>2014-08-23T13:00:12.000Z</time>
      </trkpt>
      <trkpt lat="43.98855" lon="7.37492">
        <ele>1574.5999755859</ele>
        <time>2014-08-23T13:00:14.000Z</time>
      </trkpt>
      <trkpt lat="43.98859" lon="7.37491">
        <ele>1575.1999511719</ele>
        <time>2014-08-23T13:00:23.000Z</time>
      </trkpt>
      <trkpt lat="43.98855" lon="7.37486">
        <ele>1572.4000244141</ele>
        <time>2014-08-23T13:00:32.000Z</time>
      </trkpt>
      <trkpt lat="43.98849" lon="7.37486">
        <ele>1570</ele>
        <time>2014-08-23T13:00:35.000Z</time>
      </trkpt>
      <trkpt lat="43.98864" lon="7.3749">
        <ele>1575.1999511719</ele>
        <time>2014-08-23T13:01:01.000Z</time>
      </trkpt>
      <trkpt lat="43.98869" lon="7.37492">
        <ele>1576</ele>
        <time>2014-08-23T13:01:03.000Z</time>
      </trkpt>
      <trkpt lat="43.98872" lon="7.37492">
        <ele>1576.1999511719</ele>
        <time>2014-08-23T13:01:04.000Z</time>
      </trkpt>
      <trkpt lat="43.98925" lon="7.37427">
        <ele>1544.5999755859</ele>
        <time>2014-08-23T13:03:23.000Z</time>
      </trkpt>
      <trkpt lat="43.98927" lon="7.37428">
        <ele>1544.5999755859</ele>
        <time>2014-08-23T13:03:25.000Z</time>
      </trkpt>
      <trkpt lat="43.98931" lon="7.3743">
        <ele>1545</ele>
        <time>2014-08-23T13:03:28.000Z</time>
      </trkpt>
      <trkpt lat="43.98934" lon="7.37429">
        <ele>1544.5999755859</ele>
        <time>2014-08-23T13:03:31.000Z</time>
      </trkpt>
      <trkpt lat="43.9894" lon="7.37428">
        <ele>1543.1999511719</ele>
        <time>2014-08-23T13:03:35.000Z</time>
      </trkpt>
      <trkpt lat="43.98946" lon="7.3743">
        <ele>1543</ele>
        <time>2014-08-23T13:03:39.000Z</time>
      </trkpt>
      <trkpt lat="43.98947" lon="7.37431">
        <ele>1543</ele>
        <time>2014-08-23T13:03:41.000Z</time>
      </trkpt>
      <trkpt lat="43.9895" lon="7.37434">
        <ele>1544</ele>
        <time>2014-08-23T13:03:43.000Z</time>
      </trkpt>
      <trkpt lat="43.98957" lon="7.37435">
        <ele>1542.1999511719</ele>
        <time>2014-08-23T13:03:47.000Z</time>
      </trkpt>
      <trkpt lat="43.98962" lon="7.37437">
        <ele>1542</ele>
        <time>2014-08-23T13:03:49.000Z</time>
      </trkpt>
      <trkpt lat="43.98964" lon="7.37434">
        <ele>1540.8000488281</ele>
        <time>2014-08-23T13:03:52.000Z</time>
      </trkpt>
      <trkpt lat="43.9897" lon="7.37432">
        <ele>1540</ele>
        <time>2014-08-23T13:04:01.000Z</time>
      </trkpt>
      <trkpt lat="43.98971" lon="7.37432">
        <ele>1540.1999511719</ele>
        <time>2014-08-23T13:04:02.000Z</time>
      </trkpt>
      <trkpt lat="43.98987" lon="7.37445">
        <ele>1543.4000244141</ele>
        <time>2014-08-23T13:04:18.000Z</time>
      </trkpt>
      <trkpt lat="43.98989" lon="7.37444">
        <ele>1543</ele>
        <time>2014-08-23T13:04:21.000Z</time>
      </trkpt>
      <trkpt lat="43.98992" lon="7.37444">
        <ele>1542.8000488281</ele>
        <time>2014-08-23T13:04:24.000Z</time>
      </trkpt>
      <trkpt lat="43.98994" lon="7.37444">
        <ele>1542.8000488281</ele>
        <time>2014-08-23T13:04:25.000Z</time>
      </trkpt>
      <trkpt lat="43.98995" lon="7.37444">
        <ele>1542.8000488281</ele>
        <time>2014-08-23T13:04:31.000Z</time>
      </trkpt>
      <trkpt lat="43.98997" lon="7.37445">
        <ele>1543.1999511719</ele>
        <time>2014-08-23T13:04:33.000Z</time>
      </trkpt>
      <trkpt lat="43.99002" lon="7.37446">
        <ele>1543.4000244141</ele>
        <time>2014-08-23T13:04:36.000Z</time>
      </trkpt>
      <trkpt lat="43.99014" lon="7.37448">
        <ele>1543.4000244141</ele>
        <time>2014-08-23T13:04:43.000Z</time>
      </trkpt>
      <trkpt lat="43.99009" lon="7.37443">
        <ele>1542.1999511719</ele>
        <time>2014-08-23T13:04:53.000Z</time>
      </trkpt>
      <trkpt lat="43.99007" lon="7.37445">
        <ele>1542.5999755859</ele>
        <time>2014-08-23T13:05:12.000Z</time>
      </trkpt>
      <trkpt lat="43.99012" lon="7.37447">
        <ele>1543.1999511719</ele>
        <time>2014-08-23T13:05:27.000Z</time>
      </trkpt>
      <trkpt lat="43.99004" lon="7.37445">
        <ele>1542.8000488281</ele>
        <time>2014-08-23T13:05:30.000Z</time>
      </trkpt>
      <trkpt lat="43.99" lon="7.37444">
        <ele>1542.8000488281</ele>
        <time>2014-08-23T13:05:36.000Z</time>
      </trkpt>
      <trkpt lat="43.99003" lon="7.37444">
        <ele>1542.5999755859</ele>
        <time>2014-08-23T13:05:37.000Z</time>
      </trkpt>
      <trkpt lat="43.99008" lon="7.37445">
        <ele>1542.5999755859</ele>
        <time>2014-08-23T13:05:40.000Z</time>
      </trkpt>
      <trkpt lat="43.99019" lon="7.37446">
        <ele>1542.8000488281</ele>
        <time>2014-08-23T13:05:48.000Z</time>
      </trkpt>
      <trkpt lat="43.99038" lon="7.37449">
        <ele>1538.1999511719</ele>
        <time>2014-08-23T13:06:00.000Z</time>
      </trkpt>
      <trkpt lat="43.99045" lon="7.3745">
        <ele>1535.4000244141</ele>
        <time>2014-08-23T13:06:04.000Z</time>
      </trkpt>
      <trkpt lat="43.99038" lon="7.37447">
        <ele>1537.5999755859</ele>
        <time>2014-08-23T13:06:07.000Z</time>
      </trkpt>
      <trkpt lat="43.99037" lon="7.37446">
        <ele>1537.5999755859</ele>
        <time>2014-08-23T13:06:09.000Z</time>
      </trkpt>
      <trkpt lat="43.99026" lon="7.37444">
        <ele>1541.5999755859</ele>
        <time>2014-08-23T13:06:14.000Z</time>
      </trkpt>
      <trkpt lat="43.99025" lon="7.37446">
        <ele>1542.4000244141</ele>
        <time>2014-08-23T13:06:15.000Z</time>
      </trkpt>
      <trkpt lat="43.99027" lon="7.37448">
        <ele>1542.4000244141</ele>
        <time>2014-08-23T13:06:19.000Z</time>
      </trkpt>
      <trkpt lat="43.99031" lon="7.37444">
        <ele>1539.8000488281</ele>
        <time>2014-08-23T13:06:23.000Z</time>
      </trkpt>
      <trkpt lat="43.99031" lon="7.37444">
        <ele>1539.8000488281</ele>
        <time>2014-08-23T13:06:24.000Z</time>
      </trkpt>
      <trkpt lat="43.99031" lon="7.37442">
        <ele>1539.1999511719</ele>
        <time>2014-08-23T13:06:31.000Z</time>
      </trkpt>
      <trkpt lat="43.99034" lon="7.37438">
        <ele>1536.5999755859</ele>
        <time>2014-08-23T13:06:37.000Z</time>
      </trkpt>
      <trkpt lat="43.99034" lon="7.37436">
        <ele>1536.1999511719</ele>
        <time>2014-08-23T13:06:38.000Z</time>
      </trkpt>
      <trkpt lat="43.99036" lon="7.37434">
        <ele>1534.8000488281</ele>
        <time>2014-08-23T13:06:43.000Z</time>
      </trkpt>
      <trkpt lat="43.99037" lon="7.37434">
        <ele>1534.4000244141</ele>
        <time>2014-08-23T13:06:44.000Z</time>
      </trkpt>
      <trkpt lat="43.99042" lon="7.37434">
        <ele>1532.4000244141</ele>
        <time>2014-08-23T13:06:53.000Z</time>
      </trkpt>
      <trkpt lat="43.99042" lon="7.37433">
        <ele>1532</ele>
        <time>2014-08-23T13:06:54.000Z</time>
      </trkpt>
      <trkpt lat="43.99046" lon="7.37429">
        <ele>1532</ele>
        <time>2014-08-23T13:06:59.000Z</time>
      </trkpt>
      <trkpt lat="43.99053" lon="7.37426">
        <ele>1532.1999511719</ele>
        <time>2014-08-23T13:07:04.000Z</time>
      </trkpt>
      <trkpt lat="43.9906" lon="7.37422">
        <ele>1532.5999755859</ele>
        <time>2014-08-23T13:07:10.000Z</time>
      </trkpt>
      <trkpt lat="43.99061" lon="7.37422">
        <ele>1532.5999755859</ele>
        <time>2014-08-23T13:07:12.000Z</time>
      </trkpt>
      <trkpt lat="43.99064" lon="7.37424">
        <ele>1532.4000244141</ele>
        <time>2014-08-23T13:07:16.000Z</time>
      </trkpt>
      <trkpt lat="43.99065" lon="7.37424">
        <ele>1532.4000244141</ele>
        <time>2014-08-23T13:07:17.000Z</time>
      </trkpt>
      <trkpt lat="43.99071" lon="7.37424">
        <ele>1532.4000244141</ele>
        <time>2014-08-23T13:07:23.000Z</time>
      </trkpt>
      <trkpt lat="43.99076" lon="7.37421">
        <ele>1532.5999755859</ele>
        <time>2014-08-23T13:07:27.000Z</time>
      </trkpt>
      <trkpt lat="43.99079" lon="7.37421">
        <ele>1532.5999755859</ele>
        <time>2014-08-23T13:07:30.000Z</time>
      </trkpt>
      <trkpt lat="43.99085" lon="7.37417">
        <ele>1533</ele>
        <time>2014-08-23T13:07:36.000Z</time>
      </trkpt>
      <trkpt lat="43.99086" lon="7.37417">
        <ele>1533</ele>
        <time>2014-08-23T13:07:37.000Z</time>
      </trkpt>
      <trkpt lat="43.99087" lon="7.37415">
        <ele>1533.1999511719</ele>
        <time>2014-08-23T13:07:44.000Z</time>
      </trkpt>
      <trkpt lat="43.99088" lon="7.37413">
        <ele>1532.4000244141</ele>
        <time>2014-08-23T13:07:49.000Z</time>
      </trkpt>
      <trkpt lat="43.9909" lon="7.37413">
        <ele>1532.4000244141</ele>
        <time>2014-08-23T13:07:50.000Z</time>
      </trkpt>
      <trkpt lat="43.9909" lon="7.37411">
        <ele>1531.1999511719</ele>
        <time>2014-08-23T13:07:54.000Z</time>
      </trkpt>
      <trkpt lat="43.99091" lon="7.37409">
        <ele>1530.4000244141</ele>
        <time>2014-08-23T13:08:02.000Z</time>
      </trkpt>
      <trkpt lat="43.99091" lon="7.37406">
        <ele>1528.4000244141</ele>
        <time>2014-08-23T13:08:17.000Z</time>
      </trkpt>
      <trkpt lat="43.99092" lon="7.37404">
        <ele>1527.4000244141</ele>
        <time>2014-08-23T13:08:26.000Z</time>
      </trkpt>
      <trkpt lat="43.99099" lon="7.37401">
        <ele>1527</ele>
        <time>2014-08-23T13:08:37.000Z</time>
      </trkpt>
      <trkpt lat="43.99102" lon="7.374">
        <ele>1527.4000244141</ele>
        <time>2014-08-23T13:08:42.000Z</time>
      </trkpt>
      <trkpt lat="43.99104" lon="7.37398">
        <ele>1527.1999511719</ele>
        <time>2014-08-23T13:08:50.000Z</time>
      </trkpt>
      <trkpt lat="43.99106" lon="7.37398">
        <ele>1527.8000488281</ele>
        <time>2014-08-23T13:08:55.000Z</time>
      </trkpt>
      <trkpt lat="43.99108" lon="7.37402">
        <ele>1529.1999511719</ele>
        <time>2014-08-23T13:09:31.000Z</time>
      </trkpt>
      <trkpt lat="43.9911" lon="7.37402">
        <ele>1529.1999511719</ele>
        <time>2014-08-23T13:10:00.000Z</time>
      </trkpt>
      <trkpt lat="43.99113" lon="7.37399">
        <ele>1528.1999511719</ele>
        <time>2014-08-23T13:10:06.000Z</time>
      </trkpt>
      <trkpt lat="43.99115" lon="7.37395">
        <ele>1527</ele>
        <time>2014-08-23T13:10:13.000Z</time>
      </trkpt>
      <trkpt lat="43.99117" lon="7.37392">
        <ele>1525.8000488281</ele>
        <time>2014-08-23T13:10:19.000Z</time>
      </trkpt>
      <trkpt lat="43.99118" lon="7.37389">
        <ele>1525</ele>
        <time>2014-08-23T13:10:26.000Z</time>
      </trkpt>
      <trkpt lat="43.99121" lon="7.37388">
        <ele>1524.5999755859</ele>
        <time>2014-08-23T13:10:31.000Z</time>
      </trkpt>
      <trkpt lat="43.99123" lon="7.37386">
        <ele>1524</ele>
        <time>2014-08-23T13:10:37.000Z</time>
      </trkpt>
      <trkpt lat="43.99126" lon="7.37386">
        <ele>1523.5999755859</ele>
        <time>2014-08-23T13:10:47.000Z</time>
      </trkpt>
      <trkpt lat="43.99129" lon="7.37382">
        <ele>1522.1999511719</ele>
        <time>2014-08-23T13:10:56.000Z</time>
      </trkpt>
      <trkpt lat="43.99133" lon="7.37378">
        <ele>1521</ele>
        <time>2014-08-23T13:11:04.000Z</time>
      </trkpt>
      <trkpt lat="43.99136" lon="7.37375">
        <ele>1519.8000488281</ele>
        <time>2014-08-23T13:11:14.000Z</time>
      </trkpt>
      <trkpt lat="43.99138" lon="7.37373">
        <ele>1519</ele>
        <time>2014-08-23T13:11:19.000Z</time>
      </trkpt>
      <trkpt lat="43.99139" lon="7.37368">
        <ele>1517.5999755859</ele>
        <time>2014-08-23T13:11:33.000Z</time>
      </trkpt>
      <trkpt lat="43.9914" lon="7.37368">
        <ele>1517.8000488281</ele>
        <time>2014-08-23T13:11:36.000Z</time>
      </trkpt>
      <trkpt lat="43.99144" lon="7.37365">
        <ele>1518</ele>
        <time>2014-08-23T13:11:43.000Z</time>
      </trkpt>
      <trkpt lat="43.99146" lon="7.37364">
        <ele>1519.4000244141</ele>
        <time>2014-08-23T13:11:50.000Z</time>
      </trkpt>
      <trkpt lat="43.99149" lon="7.37365">
        <ele>1521</ele>
        <time>2014-08-23T13:12:03.000Z</time>
      </trkpt>
      <trkpt lat="43.99151" lon="7.37362">
        <ele>1523</ele>
        <time>2014-08-23T13:12:16.000Z</time>
      </trkpt>
      <trkpt lat="43.9915" lon="7.3736">
        <ele>1523.4000244141</ele>
        <time>2014-08-23T13:12:23.000Z</time>
      </trkpt>
      <trkpt lat="43.99151" lon="7.37357">
        <ele>1525</ele>
        <time>2014-08-23T13:12:43.000Z</time>
      </trkpt>
      <trkpt lat="43.99155" lon="7.37354">
        <ele>1528.8000488281</ele>
        <time>2014-08-23T13:12:53.000Z</time>
      </trkpt>
      <trkpt lat="43.99158" lon="7.37351">
        <ele>1531.8000488281</ele>
        <time>2014-08-23T13:13:00.000Z</time>
      </trkpt>
      <trkpt lat="43.9916" lon="7.37349">
        <ele>1533.1999511719</ele>
        <time>2014-08-23T13:13:06.000Z</time>
      </trkpt>
      <trkpt lat="43.99163" lon="7.37348">
        <ele>1535.8000488281</ele>
        <time>2014-08-23T13:13:12.000Z</time>
      </trkpt>
      <trkpt lat="43.99166" lon="7.37347">
        <ele>1537.8000488281</ele>
        <time>2014-08-23T13:13:19.000Z</time>
      </trkpt>
      <trkpt lat="43.99168" lon="7.37345">
        <ele>1539.5999755859</ele>
        <time>2014-08-23T13:13:26.000Z</time>
      </trkpt>
      <trkpt lat="43.99172" lon="7.37343">
        <ele>1542.4000244141</ele>
        <time>2014-08-23T13:13:32.000Z</time>
      </trkpt>
      <trkpt lat="43.99174" lon="7.37341">
        <ele>1545.1999511719</ele>
        <time>2014-08-23T13:13:39.000Z</time>
      </trkpt>
      <trkpt lat="43.99178" lon="7.37339">
        <ele>1548</ele>
        <time>2014-08-23T13:13:46.000Z</time>
      </trkpt>
      <trkpt lat="43.99179" lon="7.37338">
        <ele>1549.4000244141</ele>
        <time>2014-08-23T13:13:51.000Z</time>
      </trkpt>
      <trkpt lat="43.99181" lon="7.37337">
        <ele>1551</ele>
        <time>2014-08-23T13:13:58.000Z</time>
      </trkpt>
      <trkpt lat="43.99176" lon="7.37334">
        <ele>1549</ele>
        <time>2014-08-23T13:14:12.000Z</time>
      </trkpt>
      <trkpt lat="43.99176" lon="7.37331">
        <ele>1549.8000488281</ele>
        <time>2014-08-23T13:14:18.000Z</time>
      </trkpt>
      <trkpt lat="43.99177" lon="7.37329">
        <ele>1549.1999511719</ele>
        <time>2014-08-23T13:14:19.000Z</time>
      </trkpt>
      <trkpt lat="43.99176" lon="7.37328">
        <ele>1548.1999511719</ele>
        <time>2014-08-23T13:14:22.000Z</time>
      </trkpt>
      <trkpt lat="43.99177" lon="7.37325">
        <ele>1547.4000244141</ele>
        <time>2014-08-23T13:15:18.000Z</time>
      </trkpt>
      <trkpt lat="43.99176" lon="7.37321">
        <ele>1545</ele>
        <time>2014-08-23T13:15:27.000Z</time>
      </trkpt>
      <trkpt lat="43.99178" lon="7.37319">
        <ele>1545.5999755859</ele>
        <time>2014-08-23T13:15:32.000Z</time>
      </trkpt>
      <trkpt lat="43.99182" lon="7.37315">
        <ele>1546.5999755859</ele>
        <time>2014-08-23T13:15:45.000Z</time>
      </trkpt>
      <trkpt lat="43.99183" lon="7.37313">
        <ele>1546.8000488281</ele>
        <time>2014-08-23T13:15:50.000Z</time>
      </trkpt>
      <trkpt lat="43.99185" lon="7.37312">
        <ele>1548</ele>
        <time>2014-08-23T13:16:02.000Z</time>
      </trkpt>
      <trkpt lat="43.99188" lon="7.37309">
        <ele>1549.1999511719</ele>
        <time>2014-08-23T13:16:08.000Z</time>
      </trkpt>
      <trkpt lat="43.9919" lon="7.37308">
        <ele>1550.4000244141</ele>
        <time>2014-08-23T13:16:13.000Z</time>
      </trkpt>
      <trkpt lat="43.99191" lon="7.37304">
        <ele>1550</ele>
        <time>2014-08-23T13:16:20.000Z</time>
      </trkpt>
      <trkpt lat="43.99192" lon="7.37301">
        <ele>1549.8000488281</ele>
        <time>2014-08-23T13:16:25.000Z</time>
      </trkpt>
      <trkpt lat="43.99195" lon="7.37301">
        <ele>1549.8000488281</ele>
        <time>2014-08-23T13:16:31.000Z</time>
      </trkpt>
      <trkpt lat="43.99192" lon="7.37301">
        <ele>1549.5999755859</ele>
        <time>2014-08-23T13:16:46.000Z</time>
      </trkpt>
      <trkpt lat="43.99195" lon="7.37291">
        <ele>1547</ele>
        <time>2014-08-23T13:17:31.000Z</time>
      </trkpt>
      <trkpt lat="43.99195" lon="7.37293">
        <ele>1547.5999755859</ele>
        <time>2014-08-23T13:17:39.000Z</time>
      </trkpt>
      <trkpt lat="43.99198" lon="7.37291">
        <ele>1547.4000244141</ele>
        <time>2014-08-23T13:17:50.000Z</time>
      </trkpt>
      <trkpt lat="43.99199" lon="7.37289">
        <ele>1546.8000488281</ele>
        <time>2014-08-23T13:17:54.000Z</time>
      </trkpt>
      <trkpt lat="43.99202" lon="7.37287">
        <ele>1546.5999755859</ele>
        <time>2014-08-23T13:18:01.000Z</time>
      </trkpt>
      <trkpt lat="43.99203" lon="7.37288">
        <ele>1547.1999511719</ele>
        <time>2014-08-23T13:18:07.000Z</time>
      </trkpt>
      <trkpt lat="43.9921" lon="7.37281">
        <ele>1545.8000488281</ele>
        <time>2014-08-23T13:19:04.000Z</time>
      </trkpt>
      <trkpt lat="43.99211" lon="7.37278">
        <ele>1545</ele>
        <time>2014-08-23T13:19:19.000Z</time>
      </trkpt>
      <trkpt lat="43.99211" lon="7.37279">
        <ele>1545.5999755859</ele>
        <time>2014-08-23T13:19:28.000Z</time>
      </trkpt>
      <trkpt lat="43.99213" lon="7.37276">
        <ele>1544.8000488281</ele>
        <time>2014-08-23T13:19:31.000Z</time>
      </trkpt>
      <trkpt lat="43.99212" lon="7.37278">
        <ele>1545.1999511719</ele>
        <time>2014-08-23T13:19:34.000Z</time>
      </trkpt>
      <trkpt lat="43.99216" lon="7.37275">
        <ele>1545.1999511719</ele>
        <time>2014-08-23T13:19:43.000Z</time>
      </trkpt>
      <trkpt lat="43.99216" lon="7.37272">
        <ele>1544.1999511719</ele>
        <time>2014-08-23T13:19:51.000Z</time>
      </trkpt>
      <trkpt lat="43.99215" lon="7.37269">
        <ele>1544.5999755859</ele>
        <time>2014-08-23T13:19:56.000Z</time>
      </trkpt>
      <trkpt lat="43.99215" lon="7.37269">
        <ele>1544.8000488281</ele>
        <time>2014-08-23T13:20:07.000Z</time>
      </trkpt>
      <trkpt lat="43.99217" lon="7.37269">
        <ele>1546.1999511719</ele>
        <time>2014-08-23T13:20:17.000Z</time>
      </trkpt>
      <trkpt lat="43.99217" lon="7.37268">
        <ele>1546</ele>
        <time>2014-08-23T13:20:29.000Z</time>
      </trkpt>
      <trkpt lat="43.9922" lon="7.37268">
        <ele>1548.1999511719</ele>
        <time>2014-08-23T13:21:02.000Z</time>
      </trkpt>
      <trkpt lat="43.99217" lon="7.3727">
        <ele>1546</ele>
        <time>2014-08-23T13:22:21.000Z</time>
      </trkpt>
      <trkpt lat="43.99216" lon="7.37269">
        <ele>1545</ele>
        <time>2014-08-23T13:25:11.000Z</time>
      </trkpt>
      <trkpt lat="43.99217" lon="7.37271">
        <ele>1545</ele>
        <time>2014-08-23T13:28:07.000Z</time>
      </trkpt>
      <trkpt lat="43.99215" lon="7.37267">
        <ele>1545.1999511719</ele>
        <time>2014-08-23T13:31:53.000Z</time>
      </trkpt>
      <trkpt lat="43.99215" lon="7.3727">
        <ele>1544.5999755859</ele>
        <time>2014-08-23T13:32:26.000Z</time>
      </trkpt>
      <trkpt lat="43.99216" lon="7.37271">
        <ele>1544.8000488281</ele>
        <time>2014-08-23T13:32:42.000Z</time>
      </trkpt>
      <trkpt lat="43.99215" lon="7.37272">
        <ele>1543.8000488281</ele>
        <time>2014-08-23T13:32:46.000Z</time>
      </trkpt>
      <trkpt lat="43.992" lon="7.37289">
        <ele>1547</ele>
        <time>2014-08-23T13:35:10.000Z</time>
      </trkpt>
      <trkpt lat="43.99197" lon="7.37291">
        <ele>1547.4000244141</ele>
        <time>2014-08-23T13:35:16.000Z</time>
      </trkpt>
      <trkpt lat="43.99197" lon="7.37293">
        <ele>1547.5999755859</ele>
        <time>2014-08-23T13:35:20.000Z</time>
      </trkpt>
      <trkpt lat="43.99196" lon="7.37294">
        <ele>1548.1999511719</ele>
        <time>2014-08-23T13:35:21.000Z</time>
      </trkpt>
      <trkpt lat="43.99193" lon="7.37294">
        <ele>1547.5999755859</ele>
        <time>2014-08-23T13:35:24.000Z</time>
      </trkpt>
      <trkpt lat="43.99196" lon="7.373">
        <ele>1549.8000488281</ele>
        <time>2014-08-23T13:35:44.000Z</time>
      </trkpt>
      <trkpt lat="43.99199" lon="7.37301">
        <ele>1550.5999755859</ele>
        <time>2014-08-23T13:35:50.000Z</time>
      </trkpt>
      <trkpt lat="43.99192" lon="7.373">
        <ele>1549.4000244141</ele>
        <time>2014-08-23T13:36:10.000Z</time>
      </trkpt>
      <trkpt lat="43.99189" lon="7.37301">
        <ele>1548</ele>
        <time>2014-08-23T13:36:13.000Z</time>
      </trkpt>
      <trkpt lat="43.99188" lon="7.37301">
        <ele>1547.1999511719</ele>
        <time>2014-08-23T13:36:16.000Z</time>
      </trkpt>
      <trkpt lat="43.99187" lon="7.37305">
        <ele>1547.8000488281</ele>
        <time>2014-08-23T13:36:21.000Z</time>
      </trkpt>
      <trkpt lat="43.99187" lon="7.37308">
        <ele>1548.1999511719</ele>
        <time>2014-08-23T13:36:22.000Z</time>
      </trkpt>
      <trkpt lat="43.99185" lon="7.37311">
        <ele>1547.4000244141</ele>
        <time>2014-08-23T13:36:26.000Z</time>
      </trkpt>
      <trkpt lat="43.99185" lon="7.37313">
        <ele>1548.5999755859</ele>
        <time>2014-08-23T13:36:35.000Z</time>
      </trkpt>
      <trkpt lat="43.99185" lon="7.37312">
        <ele>1547.8000488281</ele>
        <time>2014-08-23T13:36:55.000Z</time>
      </trkpt>
      <trkpt lat="43.99181" lon="7.37314">
        <ele>1545.8000488281</ele>
        <time>2014-08-23T13:37:03.000Z</time>
      </trkpt>
      <trkpt lat="43.9918" lon="7.37317">
        <ele>1546.1999511719</ele>
        <time>2014-08-23T13:37:08.000Z</time>
      </trkpt>
      <trkpt lat="43.99179" lon="7.37324">
        <ele>1548.1999511719</ele>
        <time>2014-08-23T13:37:29.000Z</time>
      </trkpt>
      <trkpt lat="43.99175" lon="7.37324">
        <ele>1545.8000488281</ele>
        <time>2014-08-23T13:37:39.000Z</time>
      </trkpt>
      <trkpt lat="43.99177" lon="7.37326">
        <ele>1547.5999755859</ele>
        <time>2014-08-23T13:37:49.000Z</time>
      </trkpt>
      <trkpt lat="43.99176" lon="7.37329">
        <ele>1548.4000244141</ele>
        <time>2014-08-23T13:37:56.000Z</time>
      </trkpt>
      <trkpt lat="43.99176" lon="7.37332">
        <ele>1549.1999511719</ele>
        <time>2014-08-23T13:38:19.000Z</time>
      </trkpt>
      <trkpt lat="43.99175" lon="7.37334">
        <ele>1548.4000244141</ele>
        <time>2014-08-23T13:38:31.000Z</time>
      </trkpt>
      <trkpt lat="43.99177" lon="7.37339">
        <ele>1547.8000488281</ele>
        <time>2014-08-23T13:38:37.000Z</time>
      </trkpt>
      <trkpt lat="43.99178" lon="7.37339">
        <ele>1548</ele>
        <time>2014-08-23T13:38:42.000Z</time>
      </trkpt>
      <trkpt lat="43.99175" lon="7.3734">
        <ele>1545.8000488281</ele>
        <time>2014-08-23T13:38:47.000Z</time>
      </trkpt>
      <trkpt lat="43.99171" lon="7.37344">
        <ele>1542.4000244141</ele>
        <time>2014-08-23T13:38:54.000Z</time>
      </trkpt>
      <trkpt lat="43.99169" lon="7.37344">
        <ele>1540.8000488281</ele>
        <time>2014-08-23T13:38:57.000Z</time>
      </trkpt>
      <trkpt lat="43.99168" lon="7.37344">
        <ele>1540.4000244141</ele>
        <time>2014-08-23T13:38:58.000Z</time>
      </trkpt>
      <trkpt lat="43.99167" lon="7.37345">
        <ele>1539.1999511719</ele>
        <time>2014-08-23T13:39:00.000Z</time>
      </trkpt>
      <trkpt lat="43.99167" lon="7.37345">
        <ele>1539.1999511719</ele>
        <time>2014-08-23T13:39:02.000Z</time>
      </trkpt>
      <trkpt lat="43.99167" lon="7.37349">
        <ele>1538</ele>
        <time>2014-08-23T13:39:27.000Z</time>
      </trkpt>
      <trkpt lat="43.99165" lon="7.3735">
        <ele>1536.1999511719</ele>
        <time>2014-08-23T13:39:32.000Z</time>
      </trkpt>
      <trkpt lat="43.99161" lon="7.37353">
        <ele>1532.4000244141</ele>
        <time>2014-08-23T13:39:40.000Z</time>
      </trkpt>
      <trkpt lat="43.9916" lon="7.37354">
        <ele>1531.4000244141</ele>
        <time>2014-08-23T13:39:41.000Z</time>
      </trkpt>
      <trkpt lat="43.99155" lon="7.37353">
        <ele>1529.1999511719</ele>
        <time>2014-08-23T13:39:46.000Z</time>
      </trkpt>
      <trkpt lat="43.99154" lon="7.37355">
        <ele>1527.8000488281</ele>
        <time>2014-08-23T13:39:51.000Z</time>
      </trkpt>
      <trkpt lat="43.99152" lon="7.37356">
        <ele>1525.8000488281</ele>
        <time>2014-08-23T13:39:56.000Z</time>
      </trkpt>
      <trkpt lat="43.9915" lon="7.37359">
        <ele>1523.8000488281</ele>
        <time>2014-08-23T13:40:01.000Z</time>
      </trkpt>
      <trkpt lat="43.99145" lon="7.37361">
        <ele>1520</ele>
        <time>2014-08-23T13:40:08.000Z</time>
      </trkpt>
      <trkpt lat="43.99141" lon="7.37364">
        <ele>1516.4000244141</ele>
        <time>2014-08-23T13:40:15.000Z</time>
      </trkpt>
      <trkpt lat="43.99139" lon="7.37364">
        <ele>1516.8000488281</ele>
        <time>2014-08-23T13:40:27.000Z</time>
      </trkpt>
      <trkpt lat="43.99141" lon="7.37366">
        <ele>1517</ele>
        <time>2014-08-23T13:40:34.000Z</time>
      </trkpt>
      <trkpt lat="43.99136" lon="7.37367">
        <ele>1517.5999755859</ele>
        <time>2014-08-23T13:40:49.000Z</time>
      </trkpt>
      <trkpt lat="43.99136" lon="7.37368">
        <ele>1517.8000488281</ele>
        <time>2014-08-23T13:40:50.000Z</time>
      </trkpt>
      <trkpt lat="43.99135" lon="7.3737">
        <ele>1518.5999755859</ele>
        <time>2014-08-23T13:40:53.000Z</time>
      </trkpt>
      <trkpt lat="43.99134" lon="7.37373">
        <ele>1519.5999755859</ele>
        <time>2014-08-23T13:40:57.000Z</time>
      </trkpt>
      <trkpt lat="43.99131" lon="7.37377">
        <ele>1520.8000488281</ele>
        <time>2014-08-23T13:41:02.000Z</time>
      </trkpt>
      <trkpt lat="43.99127" lon="7.37382">
        <ele>1522.4000244141</ele>
        <time>2014-08-23T13:41:10.000Z</time>
      </trkpt>
      <trkpt lat="43.99125" lon="7.37384">
        <ele>1523</ele>
        <time>2014-08-23T13:41:15.000Z</time>
      </trkpt>
      <trkpt lat="43.99123" lon="7.37384">
        <ele>1523.4000244141</ele>
        <time>2014-08-23T13:41:19.000Z</time>
      </trkpt>
      <trkpt lat="43.9912" lon="7.37386">
        <ele>1524.1999511719</ele>
        <time>2014-08-23T13:41:23.000Z</time>
      </trkpt>
      <trkpt lat="43.99118" lon="7.37388">
        <ele>1524.5999755859</ele>
        <time>2014-08-23T13:41:27.000Z</time>
      </trkpt>
      <trkpt lat="43.99116" lon="7.37389">
        <ele>1525.4000244141</ele>
        <time>2014-08-23T13:41:31.000Z</time>
      </trkpt>
      <trkpt lat="43.99115" lon="7.37389">
        <ele>1525.4000244141</ele>
        <time>2014-08-23T13:41:34.000Z</time>
      </trkpt>
      <trkpt lat="43.99116" lon="7.37393">
        <ele>1526.4000244141</ele>
        <time>2014-08-23T13:41:42.000Z</time>
      </trkpt>
      <trkpt lat="43.99113" lon="7.37395">
        <ele>1527</ele>
        <time>2014-08-23T13:41:50.000Z</time>
      </trkpt>
      <trkpt lat="43.9911" lon="7.37396">
        <ele>1527.5999755859</ele>
        <time>2014-08-23T13:41:55.000Z</time>
      </trkpt>
      <trkpt lat="43.99106" lon="7.37398">
        <ele>1527.8000488281</ele>
        <time>2014-08-23T13:42:09.000Z</time>
      </trkpt>
      <trkpt lat="43.99105" lon="7.374">
        <ele>1528</ele>
        <time>2014-08-23T13:42:15.000Z</time>
      </trkpt>
      <trkpt lat="43.99102" lon="7.37401">
        <ele>1527.8000488281</ele>
        <time>2014-08-23T13:42:25.000Z</time>
      </trkpt>
      <trkpt lat="43.99102" lon="7.37404">
        <ele>1528.4000244141</ele>
        <time>2014-08-23T13:42:33.000Z</time>
      </trkpt>
      <trkpt lat="43.991" lon="7.37407">
        <ele>1528.8000488281</ele>
        <time>2014-08-23T13:42:45.000Z</time>
      </trkpt>
      <trkpt lat="43.99097" lon="7.37408">
        <ele>1529.5999755859</ele>
        <time>2014-08-23T13:42:53.000Z</time>
      </trkpt>
      <trkpt lat="43.99094" lon="7.37407">
        <ele>1529.4000244141</ele>
        <time>2014-08-23T13:42:59.000Z</time>
      </trkpt>
      <trkpt lat="43.99092" lon="7.37409">
        <ele>1530.4000244141</ele>
        <time>2014-08-23T13:43:09.000Z</time>
      </trkpt>
      <trkpt lat="43.99092" lon="7.37412">
        <ele>1531.8000488281</ele>
        <time>2014-08-23T13:43:11.000Z</time>
      </trkpt>
      <trkpt lat="43.99091" lon="7.37414">
        <ele>1533</ele>
        <time>2014-08-23T13:43:14.000Z</time>
      </trkpt>
      <trkpt lat="43.99089" lon="7.37416">
        <ele>1533</ele>
        <time>2014-08-23T13:43:19.000Z</time>
      </trkpt>
      <trkpt lat="43.99086" lon="7.37416">
        <ele>1533</ele>
        <time>2014-08-23T13:43:28.000Z</time>
      </trkpt>
      <trkpt lat="43.99086" lon="7.3742">
        <ele>1532.5999755859</ele>
        <time>2014-08-23T13:43:32.000Z</time>
      </trkpt>
      <trkpt lat="43.99084" lon="7.37419">
        <ele>1532.8000488281</ele>
        <time>2014-08-23T13:43:33.000Z</time>
      </trkpt>
      <trkpt lat="43.9908" lon="7.37419">
        <ele>1532.8000488281</ele>
        <time>2014-08-23T13:43:36.000Z</time>
      </trkpt>
      <trkpt lat="43.99079" lon="7.3742">
        <ele>1532.8000488281</ele>
        <time>2014-08-23T13:43:40.000Z</time>
      </trkpt>
      <trkpt lat="43.99077" lon="7.37419">
        <ele>1532.8000488281</ele>
        <time>2014-08-23T13:43:42.000Z</time>
      </trkpt>
      <trkpt lat="43.99074" lon="7.37419">
        <ele>1532.8000488281</ele>
        <time>2014-08-23T13:43:45.000Z</time>
      </trkpt>
      <trkpt lat="43.99075" lon="7.37423">
        <ele>1532.4000244141</ele>
        <time>2014-08-23T13:43:50.000Z</time>
      </trkpt>
      <trkpt lat="43.99075" lon="7.37426">
        <ele>1532</ele>
        <time>2014-08-23T13:43:55.000Z</time>
      </trkpt>
      <trkpt lat="43.99075" lon="7.37431">
        <ele>1531.4000244141</ele>
        <time>2014-08-23T13:44:07.000Z</time>
      </trkpt>
      <trkpt lat="43.99072" lon="7.37433">
        <ele>1531.1999511719</ele>
        <time>2014-08-23T13:44:09.000Z</time>
      </trkpt>
      <trkpt lat="43.99069" lon="7.37435">
        <ele>1531</ele>
        <time>2014-08-23T13:44:11.000Z</time>
      </trkpt>
      <trkpt lat="43.99067" lon="7.37436">
        <ele>1530.8000488281</ele>
        <time>2014-08-23T13:44:15.000Z</time>
      </trkpt>
      <trkpt lat="43.99055" lon="7.37438">
        <ele>1530.8000488281</ele>
        <time>2014-08-23T13:44:21.000Z</time>
      </trkpt>
      <trkpt lat="43.99054" lon="7.3744">
        <ele>1530.5999755859</ele>
        <time>2014-08-23T13:44:27.000Z</time>
      </trkpt>
      <trkpt lat="43.99045" lon="7.3744">
        <ele>1532.5999755859</ele>
        <time>2014-08-23T13:44:35.000Z</time>
      </trkpt>
      <trkpt lat="43.99043" lon="7.37441">
        <ele>1534</ele>
        <time>2014-08-23T13:44:37.000Z</time>
      </trkpt>
      <trkpt lat="43.99039" lon="7.37441">
        <ele>1535.4000244141</ele>
        <time>2014-08-23T13:44:43.000Z</time>
      </trkpt>
      <trkpt lat="43.99034" lon="7.3744">
        <ele>1537.1999511719</ele>
        <time>2014-08-23T13:44:48.000Z</time>
      </trkpt>
      <trkpt lat="43.99034" lon="7.37439">
        <ele>1537.1999511719</ele>
        <time>2014-08-23T13:44:49.000Z</time>
      </trkpt>
      <trkpt lat="43.99034" lon="7.37438">
        <ele>1536.8000488281</ele>
        <time>2014-08-23T13:44:56.000Z</time>
      </trkpt>
      <trkpt lat="43.99031" lon="7.37441">
        <ele>1538.8000488281</ele>
        <time>2014-08-23T13:45:02.000Z</time>
      </trkpt>
      <trkpt lat="43.99031" lon="7.37442">
        <ele>1539</ele>
        <time>2014-08-23T13:45:05.000Z</time>
      </trkpt>
      <trkpt lat="43.99029" lon="7.37445">
        <ele>1541</ele>
        <time>2014-08-23T13:45:10.000Z</time>
      </trkpt>
      <trkpt lat="43.99025" lon="7.37451">
        <ele>1544</ele>
        <time>2014-08-23T13:45:16.000Z</time>
      </trkpt>
      <trkpt lat="43.99022" lon="7.37452">
        <ele>1544.5999755859</ele>
        <time>2014-08-23T13:45:18.000Z</time>
      </trkpt>
      <trkpt lat="43.99022" lon="7.37453">
        <ele>1544.8000488281</ele>
        <time>2014-08-23T13:45:23.000Z</time>
      </trkpt>
      <trkpt lat="43.99015" lon="7.37449">
        <ele>1543.5999755859</ele>
        <time>2014-08-23T13:45:44.000Z</time>
      </trkpt>
      <trkpt lat="43.99018" lon="7.3745">
        <ele>1544</ele>
        <time>2014-08-23T13:45:47.000Z</time>
      </trkpt>
      <trkpt lat="43.99017" lon="7.37452">
        <ele>1544.5999755859</ele>
        <time>2014-08-23T13:45:50.000Z</time>
      </trkpt>
      <trkpt lat="43.99018" lon="7.37461">
        <ele>1546.8000488281</ele>
        <time>2014-08-23T13:45:58.000Z</time>
      </trkpt>
      <trkpt lat="43.99014" lon="7.37462">
        <ele>1547.1999511719</ele>
        <time>2014-08-23T13:46:05.000Z</time>
      </trkpt>
      <trkpt lat="43.99014" lon="7.37464">
        <ele>1547.8000488281</ele>
        <time>2014-08-23T13:46:07.000Z</time>
      </trkpt>
      <trkpt lat="43.99015" lon="7.37467">
        <ele>1548.5999755859</ele>
        <time>2014-08-23T13:46:09.000Z</time>
      </trkpt>
      <trkpt lat="43.99012" lon="7.37472">
        <ele>1550.1999511719</ele>
        <time>2014-08-23T13:46:17.000Z</time>
      </trkpt>
      <trkpt lat="43.9901" lon="7.37476">
        <ele>1551.4000244141</ele>
        <time>2014-08-23T13:46:21.000Z</time>
      </trkpt>
      <trkpt lat="43.99011" lon="7.37477">
        <ele>1551.5999755859</ele>
        <time>2014-08-23T13:46:22.000Z</time>
      </trkpt>
      <trkpt lat="43.99011" lon="7.37481">
        <ele>1552.5999755859</ele>
        <time>2014-08-23T13:46:25.000Z</time>
      </trkpt>
      <trkpt lat="43.99009" lon="7.37486">
        <ele>1554.8000488281</ele>
        <time>2014-08-23T13:46:30.000Z</time>
      </trkpt>
      <trkpt lat="43.99002" lon="7.37487">
        <ele>1557.1999511719</ele>
        <time>2014-08-23T13:46:34.000Z</time>
      </trkpt>
      <trkpt lat="43.99002" lon="7.37489">
        <ele>1558.5999755859</ele>
        <time>2014-08-23T13:46:36.000Z</time>
      </trkpt>
      <trkpt lat="43.99" lon="7.37492">
        <ele>1560.5999755859</ele>
        <time>2014-08-23T13:46:39.000Z</time>
      </trkpt>
      <trkpt lat="43.98995" lon="7.37492">
        <ele>1562.1999511719</ele>
        <time>2014-08-23T13:46:41.000Z</time>
      </trkpt>
      <trkpt lat="43.98997" lon="7.37498">
        <ele>1564.8000488281</ele>
        <time>2014-08-23T13:46:45.000Z</time>
      </trkpt>
      <trkpt lat="43.98997" lon="7.37502">
        <ele>1565</ele>
        <time>2014-08-23T13:46:48.000Z</time>
      </trkpt>
      <trkpt lat="43.98995" lon="7.37504">
        <ele>1565.4000244141</ele>
        <time>2014-08-23T13:46:49.000Z</time>
      </trkpt>
      <trkpt lat="43.98994" lon="7.37505">
        <ele>1565.5999755859</ele>
        <time>2014-08-23T13:46:50.000Z</time>
      </trkpt>
      <trkpt lat="43.98992" lon="7.37509">
        <ele>1566.4000244141</ele>
        <time>2014-08-23T13:46:55.000Z</time>
      </trkpt>
      <trkpt lat="43.98992" lon="7.37514">
        <ele>1566.5999755859</ele>
        <time>2014-08-23T13:46:59.000Z</time>
      </trkpt>
      <trkpt lat="43.9899" lon="7.37516">
        <ele>1567</ele>
        <time>2014-08-23T13:47:00.000Z</time>
      </trkpt>
      <trkpt lat="43.98989" lon="7.37521">
        <ele>1567.4000244141</ele>
        <time>2014-08-23T13:47:02.000Z</time>
      </trkpt>
      <trkpt lat="43.98988" lon="7.37524">
        <ele>1567.8000488281</ele>
        <time>2014-08-23T13:47:04.000Z</time>
      </trkpt>
      <trkpt lat="43.98983" lon="7.37534">
        <ele>1569.4000244141</ele>
        <time>2014-08-23T13:47:09.000Z</time>
      </trkpt>
      <trkpt lat="43.98982" lon="7.37538">
        <ele>1569.8000488281</ele>
        <time>2014-08-23T13:47:12.000Z</time>
      </trkpt>
      <trkpt lat="43.98982" lon="7.37542">
        <ele>1570.4000244141</ele>
        <time>2014-08-23T13:47:15.000Z</time>
      </trkpt>
      <trkpt lat="43.98982" lon="7.37543">
        <ele>1570.8000488281</ele>
        <time>2014-08-23T13:47:17.000Z</time>
      </trkpt>
      <trkpt lat="43.98983" lon="7.37548">
        <ele>1571.1999511719</ele>
        <time>2014-08-23T13:47:20.000Z</time>
      </trkpt>
      <trkpt lat="43.98988" lon="7.37559">
        <ele>1570.8000488281</ele>
        <time>2014-08-23T13:47:26.000Z</time>
      </trkpt>
      <trkpt lat="43.98988" lon="7.37562">
        <ele>1571.5999755859</ele>
        <time>2014-08-23T13:47:31.000Z</time>
      </trkpt>
      <trkpt lat="43.98984" lon="7.37568">
        <ele>1574.1999511719</ele>
        <time>2014-08-23T13:47:38.000Z</time>
      </trkpt>
      <trkpt lat="43.98987" lon="7.37573">
        <ele>1573.8000488281</ele>
        <time>2014-08-23T13:47:42.000Z</time>
      </trkpt>
      <trkpt lat="43.98988" lon="7.37575">
        <ele>1574</ele>
        <time>2014-08-23T13:47:43.000Z</time>
      </trkpt>
      <trkpt lat="43.98988" lon="7.37576">
        <ele>1574</ele>
        <time>2014-08-23T13:47:44.000Z</time>
      </trkpt>
      <trkpt lat="43.98987" lon="7.37579">
        <ele>1574.8000488281</ele>
        <time>2014-08-23T13:47:47.000Z</time>
      </trkpt>
      <trkpt lat="43.98988" lon="7.37582">
        <ele>1575</ele>
        <time>2014-08-23T13:47:48.000Z</time>
      </trkpt>
      <trkpt lat="43.98989" lon="7.37591">
        <ele>1575</ele>
        <time>2014-08-23T13:47:52.000Z</time>
      </trkpt>
      <trkpt lat="43.98983" lon="7.37597">
        <ele>1577.8000488281</ele>
        <time>2014-08-23T13:47:58.000Z</time>
      </trkpt>
      <trkpt lat="43.98984" lon="7.37601">
        <ele>1577.5999755859</ele>
        <time>2014-08-23T13:48:01.000Z</time>
      </trkpt>
      <trkpt lat="43.98987" lon="7.37605">
        <ele>1576.5999755859</ele>
        <time>2014-08-23T13:48:03.000Z</time>
      </trkpt>
      <trkpt lat="43.98986" lon="7.37605">
        <ele>1576.8000488281</ele>
        <time>2014-08-23T13:48:04.000Z</time>
      </trkpt>
      <trkpt lat="43.98985" lon="7.37609">
        <ele>1577.4000244141</ele>
        <time>2014-08-23T13:48:08.000Z</time>
      </trkpt>
      <trkpt lat="43.98982" lon="7.37617">
        <ele>1579.1999511719</ele>
        <time>2014-08-23T13:48:13.000Z</time>
      </trkpt>
      <trkpt lat="43.9898" lon="7.37618">
        <ele>1580</ele>
        <time>2014-08-23T13:48:15.000Z</time>
      </trkpt>
      <trkpt lat="43.98974" lon="7.37621">
        <ele>1582.4000244141</ele>
        <time>2014-08-23T13:48:20.000Z</time>
      </trkpt>
      <trkpt lat="43.98972" lon="7.37624">
        <ele>1582.8000488281</ele>
        <time>2014-08-23T13:48:22.000Z</time>
      </trkpt>
      <trkpt lat="43.98981" lon="7.37628">
        <ele>1579.4000244141</ele>
        <time>2014-08-23T13:48:25.000Z</time>
      </trkpt>
      <trkpt lat="43.98983" lon="7.37634">
        <ele>1578.5999755859</ele>
        <time>2014-08-23T13:48:29.000Z</time>
      </trkpt>
      <trkpt lat="43.98983" lon="7.37656">
        <ele>1577.8000488281</ele>
        <time>2014-08-23T13:48:52.000Z</time>
      </trkpt>
      <trkpt lat="43.9898" lon="7.37657">
        <ele>1579</ele>
        <time>2014-08-23T13:48:56.000Z</time>
      </trkpt>
      <trkpt lat="43.98972" lon="7.37658">
        <ele>1581.5999755859</ele>
        <time>2014-08-23T13:49:01.000Z</time>
      </trkpt>
      <trkpt lat="43.98971" lon="7.37662">
        <ele>1582</ele>
        <time>2014-08-23T13:49:04.000Z</time>
      </trkpt>
      <trkpt lat="43.98971" lon="7.37668">
        <ele>1581.8000488281</ele>
        <time>2014-08-23T13:49:12.000Z</time>
      </trkpt>
      <trkpt lat="43.98978" lon="7.37685">
        <ele>1579.8000488281</ele>
        <time>2014-08-23T13:49:22.000Z</time>
      </trkpt>
      <trkpt lat="43.98986" lon="7.37695">
        <ele>1577.4000244141</ele>
        <time>2014-08-23T13:49:28.000Z</time>
      </trkpt>
      <trkpt lat="43.98982" lon="7.37691">
        <ele>1578.4000244141</ele>
        <time>2014-08-23T13:51:07.000Z</time>
      </trkpt>
      <trkpt lat="43.98982" lon="7.37694">
        <ele>1578.5999755859</ele>
        <time>2014-08-23T13:51:25.000Z</time>
      </trkpt>
      <trkpt lat="43.9898" lon="7.37699">
        <ele>1579.4000244141</ele>
        <time>2014-08-23T13:51:33.000Z</time>
      </trkpt>
      <trkpt lat="43.98974" lon="7.377">
        <ele>1580.8000488281</ele>
        <time>2014-08-23T13:51:37.000Z</time>
      </trkpt>
      <trkpt lat="43.9897" lon="7.37701">
        <ele>1581.1999511719</ele>
        <time>2014-08-23T13:51:44.000Z</time>
      </trkpt>
      <trkpt lat="43.98965" lon="7.37705">
        <ele>1581</ele>
        <time>2014-08-23T13:51:50.000Z</time>
      </trkpt>
      <trkpt lat="43.98959" lon="7.37708">
        <ele>1581</ele>
        <time>2014-08-23T13:51:58.000Z</time>
      </trkpt>
      <trkpt lat="43.98956" lon="7.37707">
        <ele>1581.5999755859</ele>
        <time>2014-08-23T13:52:02.000Z</time>
      </trkpt>
      <trkpt lat="43.98958" lon="7.37704">
        <ele>1582</ele>
        <time>2014-08-23T13:52:07.000Z</time>
      </trkpt>
      <trkpt lat="43.9896" lon="7.37704">
        <ele>1581.8000488281</ele>
        <time>2014-08-23T13:52:11.000Z</time>
      </trkpt>
      <trkpt lat="43.98963" lon="7.37701">
        <ele>1582</ele>
        <time>2014-08-23T13:52:17.000Z</time>
      </trkpt>
      <trkpt lat="43.98952" lon="7.37704">
        <ele>1582.8000488281</ele>
        <time>2014-08-23T13:52:35.000Z</time>
      </trkpt>
      <trkpt lat="43.98947" lon="7.37701">
        <ele>1584</ele>
        <time>2014-08-23T13:52:43.000Z</time>
      </trkpt>
      <trkpt lat="43.9894" lon="7.37702">
        <ele>1584.5999755859</ele>
        <time>2014-08-23T13:53:01.000Z</time>
      </trkpt>
      <trkpt lat="43.98942" lon="7.37711">
        <ele>1582.5999755859</ele>
        <time>2014-08-23T13:53:16.000Z</time>
      </trkpt>
      <trkpt lat="43.98925" lon="7.37716">
        <ele>1585.5999755859</ele>
        <time>2014-08-23T13:53:51.000Z</time>
      </trkpt>
      <trkpt lat="43.9892" lon="7.37711">
        <ele>1587.5999755859</ele>
        <time>2014-08-23T13:54:03.000Z</time>
      </trkpt>
      <trkpt lat="43.98916" lon="7.37708">
        <ele>1589.1999511719</ele>
        <time>2014-08-23T13:54:07.000Z</time>
      </trkpt>
      <trkpt lat="43.98914" lon="7.37703">
        <ele>1590.8000488281</ele>
        <time>2014-08-23T13:54:17.000Z</time>
      </trkpt>
      <trkpt lat="43.9891" lon="7.37703">
        <ele>1591.8000488281</ele>
        <time>2014-08-23T13:54:24.000Z</time>
      </trkpt>
      <trkpt lat="43.98907" lon="7.37703">
        <ele>1592.5999755859</ele>
        <time>2014-08-23T13:54:31.000Z</time>
      </trkpt>
      <trkpt lat="43.98891" lon="7.37699">
        <ele>1596.5999755859</ele>
        <time>2014-08-23T13:55:11.000Z</time>
      </trkpt>
      <trkpt lat="43.98879" lon="7.377">
        <ele>1596.8000488281</ele>
        <time>2014-08-23T13:55:29.000Z</time>
      </trkpt>
      <trkpt lat="43.98878" lon="7.37699">
        <ele>1597.1999511719</ele>
        <time>2014-08-23T13:55:30.000Z</time>
      </trkpt>
      <trkpt lat="43.98876" lon="7.377">
        <ele>1597</ele>
        <time>2014-08-23T13:55:34.000Z</time>
      </trkpt>
      <trkpt lat="43.98869" lon="7.37704">
        <ele>1595.5999755859</ele>
        <time>2014-08-23T13:55:41.000Z</time>
      </trkpt>
      <trkpt lat="43.98869" lon="7.37703">
        <ele>1595.8000488281</ele>
        <time>2014-08-23T13:55:45.000Z</time>
      </trkpt>
      <trkpt lat="43.98863" lon="7.37705">
        <ele>1595.1999511719</ele>
        <time>2014-08-23T13:55:58.000Z</time>
      </trkpt>
      <trkpt lat="43.98862" lon="7.37708">
        <ele>1594</ele>
        <time>2014-08-23T13:56:01.000Z</time>
      </trkpt>
      <trkpt lat="43.98861" lon="7.37709">
        <ele>1593.8000488281</ele>
        <time>2014-08-23T13:56:02.000Z</time>
      </trkpt>
      <trkpt lat="43.98861" lon="7.37709">
        <ele>1594</ele>
        <time>2014-08-23T13:56:08.000Z</time>
      </trkpt>
      <trkpt lat="43.98859" lon="7.37705">
        <ele>1595.5999755859</ele>
        <time>2014-08-23T13:56:22.000Z</time>
      </trkpt>
      <trkpt lat="43.98854" lon="7.377">
        <ele>1598</ele>
        <time>2014-08-23T13:56:30.000Z</time>
      </trkpt>
      <trkpt lat="43.98835" lon="7.37696">
        <ele>1600</ele>
        <time>2014-08-23T13:57:26.000Z</time>
      </trkpt>
      <trkpt lat="43.98832" lon="7.37695">
        <ele>1600.5999755859</ele>
        <time>2014-08-23T13:57:29.000Z</time>
      </trkpt>
      <trkpt lat="43.98824" lon="7.37689">
        <ele>1603.1999511719</ele>
        <time>2014-08-23T13:57:36.000Z</time>
      </trkpt>
      <trkpt lat="43.9882" lon="7.37688">
        <ele>1603.5999755859</ele>
        <time>2014-08-23T13:57:38.000Z</time>
      </trkpt>
      <trkpt lat="43.98815" lon="7.3769">
        <ele>1603.1999511719</ele>
        <time>2014-08-23T13:57:42.000Z</time>
      </trkpt>
      <trkpt lat="43.98813" lon="7.3769">
        <ele>1603.4000244141</ele>
        <time>2014-08-23T13:57:47.000Z</time>
      </trkpt>
      <trkpt lat="43.98809" lon="7.37687">
        <ele>1604.8000488281</ele>
        <time>2014-08-23T13:57:52.000Z</time>
      </trkpt>
      <trkpt lat="43.98807" lon="7.37686">
        <ele>1605.1999511719</ele>
        <time>2014-08-23T13:57:54.000Z</time>
      </trkpt>
      <trkpt lat="43.98802" lon="7.37686">
        <ele>1605.1999511719</ele>
        <time>2014-08-23T13:58:03.000Z</time>
      </trkpt>
      <trkpt lat="43.98788" lon="7.37682">
        <ele>1608.8000488281</ele>
        <time>2014-08-23T13:58:40.000Z</time>
      </trkpt>
      <trkpt lat="43.98785" lon="7.37682">
        <ele>1609.4000244141</ele>
        <time>2014-08-23T13:58:42.000Z</time>
      </trkpt>
      <trkpt lat="43.98784" lon="7.37682">
        <ele>1610</ele>
        <time>2014-08-23T13:58:46.000Z</time>
      </trkpt>
      <trkpt lat="43.98778" lon="7.37685">
        <ele>1611.4000244141</ele>
        <time>2014-08-23T13:58:58.000Z</time>
      </trkpt>
      <trkpt lat="43.98775" lon="7.37683">
        <ele>1612.4000244141</ele>
        <time>2014-08-23T13:59:02.000Z</time>
      </trkpt>
      <trkpt lat="43.98775" lon="7.37683">
        <ele>1612.5999755859</ele>
        <time>2014-08-23T13:59:13.000Z</time>
      </trkpt>
      <trkpt lat="43.98776" lon="7.3768">
        <ele>1612.5999755859</ele>
        <time>2014-08-23T13:59:17.000Z</time>
      </trkpt>
      <trkpt lat="43.98775" lon="7.37685">
        <ele>1612.4000244141</ele>
        <time>2014-08-23T13:59:32.000Z</time>
      </trkpt>
      <trkpt lat="43.98773" lon="7.37684">
        <ele>1612.4000244141</ele>
        <time>2014-08-23T13:59:36.000Z</time>
      </trkpt>
      <trkpt lat="43.98768" lon="7.3768">
        <ele>1613</ele>
        <time>2014-08-23T13:59:46.000Z</time>
      </trkpt>
      <trkpt lat="43.98768" lon="7.37679">
        <ele>1613.1999511719</ele>
        <time>2014-08-23T13:59:49.000Z</time>
      </trkpt>
      <trkpt lat="43.98762" lon="7.37679">
        <ele>1613.4000244141</ele>
        <time>2014-08-23T14:00:12.000Z</time>
      </trkpt>
      <trkpt lat="43.98761" lon="7.37679">
        <ele>1613.4000244141</ele>
        <time>2014-08-23T14:00:13.000Z</time>
      </trkpt>
      <trkpt lat="43.98756" lon="7.37678">
        <ele>1613.8000488281</ele>
        <time>2014-08-23T14:00:21.000Z</time>
      </trkpt>
      <trkpt lat="43.98755" lon="7.37676">
        <ele>1614</ele>
        <time>2014-08-23T14:00:54.000Z</time>
      </trkpt>
      <trkpt lat="43.98755" lon="7.37675">
        <ele>1614.1999511719</ele>
        <time>2014-08-23T14:00:55.000Z</time>
      </trkpt>
      <trkpt lat="43.98759" lon="7.37681">
        <ele>1613.1999511719</ele>
        <time>2014-08-23T14:02:13.000Z</time>
      </trkpt>
      <trkpt lat="43.98769" lon="7.37677">
        <ele>1613.4000244141</ele>
        <time>2014-08-23T14:03:13.000Z</time>
      </trkpt>
      <trkpt lat="43.98762" lon="7.37676">
        <ele>1613.8000488281</ele>
        <time>2014-08-23T14:03:18.000Z</time>
      </trkpt>
      <trkpt lat="43.98761" lon="7.37677">
        <ele>1613.8000488281</ele>
        <time>2014-08-23T14:03:22.000Z</time>
      </trkpt>
      <trkpt lat="43.98759" lon="7.37675">
        <ele>1614</ele>
        <time>2014-08-23T14:03:25.000Z</time>
      </trkpt>
      <trkpt lat="43.98759" lon="7.37672">
        <ele>1614.4000244141</ele>
        <time>2014-08-23T14:03:29.000Z</time>
      </trkpt>
      <trkpt lat="43.98759" lon="7.37674">
        <ele>1614.1999511719</ele>
        <time>2014-08-23T14:03:34.000Z</time>
      </trkpt>
      <trkpt lat="43.98759" lon="7.37676">
        <ele>1613.8000488281</ele>
        <time>2014-08-23T14:03:38.000Z</time>
      </trkpt>
      <trkpt lat="43.9876" lon="7.37677">
        <ele>1613.5999755859</ele>
        <time>2014-08-23T14:03:39.000Z</time>
      </trkpt>
      <trkpt lat="43.98758" lon="7.37679">
        <ele>1613.5999755859</ele>
        <time>2014-08-23T14:03:42.000Z</time>
      </trkpt>
      <trkpt lat="43.98755" lon="7.37677">
        <ele>1613.8000488281</ele>
        <time>2014-08-23T14:04:38.000Z</time>
      </trkpt>
      <trkpt lat="43.98756" lon="7.37677">
        <ele>1613.8000488281</ele>
        <time>2014-08-23T14:04:41.000Z</time>
      </trkpt>
      <trkpt lat="43.98747" lon="7.37667">
        <ele>1615.4000244141</ele>
        <time>2014-08-23T14:05:12.000Z</time>
      </trkpt>
      <trkpt lat="43.98747" lon="7.37666">
        <ele>1615.5999755859</ele>
        <time>2014-08-23T14:05:16.000Z</time>
      </trkpt>
      <trkpt lat="43.98754" lon="7.37681">
        <ele>1613.4000244141</ele>
        <time>2014-08-23T14:05:59.000Z</time>
      </trkpt>
      <trkpt lat="43.98751" lon="7.37684">
        <ele>1613</ele>
        <time>2014-08-23T14:06:05.000Z</time>
      </trkpt>
      <trkpt lat="43.98746" lon="7.37687">
        <ele>1612.8000488281</ele>
        <time>2014-08-23T14:06:11.000Z</time>
      </trkpt>
      <trkpt lat="43.98743" lon="7.37687">
        <ele>1612.8000488281</ele>
        <time>2014-08-23T14:06:14.000Z</time>
      </trkpt>
      <trkpt lat="43.98732" lon="7.3769">
        <ele>1612.8000488281</ele>
        <time>2014-08-23T14:06:30.000Z</time>
      </trkpt>
      <trkpt lat="43.98728" lon="7.37689">
        <ele>1612.8000488281</ele>
        <time>2014-08-23T14:06:34.000Z</time>
      </trkpt>
      <trkpt lat="43.98725" lon="7.37692">
        <ele>1612.5999755859</ele>
        <time>2014-08-23T14:06:44.000Z</time>
      </trkpt>
      <trkpt lat="43.98722" lon="7.37694">
        <ele>1612.4000244141</ele>
        <time>2014-08-23T14:06:49.000Z</time>
      </trkpt>
      <trkpt lat="43.9872" lon="7.37695">
        <ele>1613</ele>
        <time>2014-08-23T14:06:52.000Z</time>
      </trkpt>
      <trkpt lat="43.98719" lon="7.377">
        <ele>1615</ele>
        <time>2014-08-23T14:07:00.000Z</time>
      </trkpt>
      <trkpt lat="43.98719" lon="7.37701">
        <ele>1615.4000244141</ele>
        <time>2014-08-23T14:07:03.000Z</time>
      </trkpt>
      <trkpt lat="43.98712" lon="7.37705">
        <ele>1619.1999511719</ele>
        <time>2014-08-23T14:07:10.000Z</time>
      </trkpt>
      <trkpt lat="43.98711" lon="7.37705">
        <ele>1619.8000488281</ele>
        <time>2014-08-23T14:07:12.000Z</time>
      </trkpt>
      <trkpt lat="43.9871" lon="7.37705">
        <ele>1620.4000244141</ele>
        <time>2014-08-23T14:07:13.000Z</time>
      </trkpt>
      <trkpt lat="43.98709" lon="7.37707">
        <ele>1621.1999511719</ele>
        <time>2014-08-23T14:07:17.000Z</time>
      </trkpt>
      <trkpt lat="43.98697" lon="7.37711">
        <ele>1627.1999511719</ele>
        <time>2014-08-23T14:07:31.000Z</time>
      </trkpt>
      <trkpt lat="43.98695" lon="7.37715">
        <ele>1629.4000244141</ele>
        <time>2014-08-23T14:07:39.000Z</time>
      </trkpt>
      <trkpt lat="43.98691" lon="7.37716">
        <ele>1631.1999511719</ele>
        <time>2014-08-23T14:07:44.000Z</time>
      </trkpt>
      <trkpt lat="43.98692" lon="7.37718">
        <ele>1631.4000244141</ele>
        <time>2014-08-23T14:07:47.000Z</time>
      </trkpt>
      <trkpt lat="43.98692" lon="7.3772">
        <ele>1632.1999511719</ele>
        <time>2014-08-23T14:07:51.000Z</time>
      </trkpt>
      <trkpt lat="43.98688" lon="7.37723">
        <ele>1633.4000244141</ele>
        <time>2014-08-23T14:08:02.000Z</time>
      </trkpt>
      <trkpt lat="43.98686" lon="7.37724">
        <ele>1634</ele>
        <time>2014-08-23T14:08:08.000Z</time>
      </trkpt>
      <trkpt lat="43.98684" lon="7.37729">
        <ele>1635.8000488281</ele>
        <time>2014-08-23T14:08:15.000Z</time>
      </trkpt>
      <trkpt lat="43.98683" lon="7.37733">
        <ele>1637</ele>
        <time>2014-08-23T14:08:21.000Z</time>
      </trkpt>
      <trkpt lat="43.98679" lon="7.37736">
        <ele>1638</ele>
        <time>2014-08-23T14:08:27.000Z</time>
      </trkpt>
      <trkpt lat="43.98676" lon="7.37738">
        <ele>1639.5999755859</ele>
        <time>2014-08-23T14:08:31.000Z</time>
      </trkpt>
      <trkpt lat="43.98676" lon="7.37739">
        <ele>1640.4000244141</ele>
        <time>2014-08-23T14:08:38.000Z</time>
      </trkpt>
      <trkpt lat="43.98677" lon="7.3774">
        <ele>1640.1999511719</ele>
        <time>2014-08-23T14:08:42.000Z</time>
      </trkpt>
      <trkpt lat="43.98667" lon="7.37744">
        <ele>1644.1999511719</ele>
        <time>2014-08-23T14:08:58.000Z</time>
      </trkpt>
      <trkpt lat="43.98663" lon="7.37745">
        <ele>1645.8000488281</ele>
        <time>2014-08-23T14:09:01.000Z</time>
      </trkpt>
      <trkpt lat="43.98664" lon="7.37747">
        <ele>1646.4000244141</ele>
        <time>2014-08-23T14:09:03.000Z</time>
      </trkpt>
      <trkpt lat="43.98659" lon="7.3775">
        <ele>1647.1999511719</ele>
        <time>2014-08-23T14:09:09.000Z</time>
      </trkpt>
      <trkpt lat="43.98659" lon="7.37751">
        <ele>1647.1999511719</ele>
        <time>2014-08-23T14:09:10.000Z</time>
      </trkpt>
      <trkpt lat="43.98658" lon="7.37754">
        <ele>1646.5999755859</ele>
        <time>2014-08-23T14:09:16.000Z</time>
      </trkpt>
      <trkpt lat="43.98654" lon="7.3776">
        <ele>1646.1999511719</ele>
        <time>2014-08-23T14:09:38.000Z</time>
      </trkpt>
      <trkpt lat="43.98644" lon="7.37775">
        <ele>1645.1999511719</ele>
        <time>2014-08-23T14:10:10.000Z</time>
      </trkpt>
      <trkpt lat="43.98637" lon="7.37776">
        <ele>1646.8000488281</ele>
        <time>2014-08-23T14:10:15.000Z</time>
      </trkpt>
      <trkpt lat="43.98634" lon="7.37778">
        <ele>1648</ele>
        <time>2014-08-23T14:10:18.000Z</time>
      </trkpt>
      <trkpt lat="43.98632" lon="7.3778">
        <ele>1649</ele>
        <time>2014-08-23T14:10:25.000Z</time>
      </trkpt>
      <trkpt lat="43.98626" lon="7.37785">
        <ele>1651.8000488281</ele>
        <time>2014-08-23T14:10:45.000Z</time>
      </trkpt>
      <trkpt lat="43.98622" lon="7.37786">
        <ele>1653.5999755859</ele>
        <time>2014-08-23T14:10:51.000Z</time>
      </trkpt>
      <trkpt lat="43.98617" lon="7.37793">
        <ele>1656</ele>
        <time>2014-08-23T14:11:37.000Z</time>
      </trkpt>
      <trkpt lat="43.98612" lon="7.37798">
        <ele>1658.5999755859</ele>
        <time>2014-08-23T14:11:47.000Z</time>
      </trkpt>
      <trkpt lat="43.98612" lon="7.37798">
        <ele>1659</ele>
        <time>2014-08-23T14:11:49.000Z</time>
      </trkpt>
      <trkpt lat="43.98607" lon="7.37806">
        <ele>1660.8000488281</ele>
        <time>2014-08-23T14:12:02.000Z</time>
      </trkpt>
      <trkpt lat="43.98603" lon="7.37808">
        <ele>1661.8000488281</ele>
        <time>2014-08-23T14:12:12.000Z</time>
      </trkpt>
      <trkpt lat="43.98598" lon="7.37811">
        <ele>1662.8000488281</ele>
        <time>2014-08-23T14:12:17.000Z</time>
      </trkpt>
      <trkpt lat="43.98598" lon="7.37815">
        <ele>1662.8000488281</ele>
        <time>2014-08-23T14:12:21.000Z</time>
      </trkpt>
      <trkpt lat="43.98597" lon="7.37817">
        <ele>1662.8000488281</ele>
        <time>2014-08-23T14:12:22.000Z</time>
      </trkpt>
      <trkpt lat="43.98588" lon="7.37822">
        <ele>1665.4000244141</ele>
        <time>2014-08-23T14:12:31.000Z</time>
      </trkpt>
      <trkpt lat="43.98585" lon="7.37828">
        <ele>1666.1999511719</ele>
        <time>2014-08-23T14:12:54.000Z</time>
      </trkpt>
      <trkpt lat="43.98584" lon="7.37829">
        <ele>1666.8000488281</ele>
        <time>2014-08-23T14:12:56.000Z</time>
      </trkpt>
      <trkpt lat="43.98583" lon="7.3783">
        <ele>1667</ele>
        <time>2014-08-23T14:12:58.000Z</time>
      </trkpt>
      <trkpt lat="43.98579" lon="7.37833">
        <ele>1667.1999511719</ele>
        <time>2014-08-23T14:13:06.000Z</time>
      </trkpt>
      <trkpt lat="43.98576" lon="7.37836">
        <ele>1667.1999511719</ele>
        <time>2014-08-23T14:13:09.000Z</time>
      </trkpt>
      <trkpt lat="43.98573" lon="7.37841">
        <ele>1666.4000244141</ele>
        <time>2014-08-23T14:13:13.000Z</time>
      </trkpt>
      <trkpt lat="43.98572" lon="7.37842">
        <ele>1666.1999511719</ele>
        <time>2014-08-23T14:13:14.000Z</time>
      </trkpt>
      <trkpt lat="43.98573" lon="7.37844">
        <ele>1665.1999511719</ele>
        <time>2014-08-23T14:13:17.000Z</time>
      </trkpt>
      <trkpt lat="43.98572" lon="7.37846">
        <ele>1664.8000488281</ele>
        <time>2014-08-23T14:13:19.000Z</time>
      </trkpt>
      <trkpt lat="43.98571" lon="7.37846">
        <ele>1665</ele>
        <time>2014-08-23T14:13:20.000Z</time>
      </trkpt>
      <trkpt lat="43.9857" lon="7.37848">
        <ele>1664.8000488281</ele>
        <time>2014-08-23T14:13:22.000Z</time>
      </trkpt>
      <trkpt lat="43.98569" lon="7.3785">
        <ele>1664.4000244141</ele>
        <time>2014-08-23T14:13:25.000Z</time>
      </trkpt>
      <trkpt lat="43.98568" lon="7.37853">
        <ele>1663.5999755859</ele>
        <time>2014-08-23T14:13:37.000Z</time>
      </trkpt>
      <trkpt lat="43.98561" lon="7.37861">
        <ele>1662.5999755859</ele>
        <time>2014-08-23T14:13:47.000Z</time>
      </trkpt>
      <trkpt lat="43.98561" lon="7.37862">
        <ele>1662.4000244141</ele>
        <time>2014-08-23T14:13:48.000Z</time>
      </trkpt>
      <trkpt lat="43.98558" lon="7.37868">
        <ele>1661.8000488281</ele>
        <time>2014-08-23T14:13:54.000Z</time>
      </trkpt>
      <trkpt lat="43.98555" lon="7.37868">
        <ele>1663.1999511719</ele>
        <time>2014-08-23T14:13:56.000Z</time>
      </trkpt>
      <trkpt lat="43.98554" lon="7.37869">
        <ele>1663.1999511719</ele>
        <time>2014-08-23T14:13:59.000Z</time>
      </trkpt>
      <trkpt lat="43.98549" lon="7.37873">
        <ele>1664.5999755859</ele>
        <time>2014-08-23T14:14:06.000Z</time>
      </trkpt>
      <trkpt lat="43.98547" lon="7.37874">
        <ele>1665.4000244141</ele>
        <time>2014-08-23T14:14:07.000Z</time>
      </trkpt>
      <trkpt lat="43.98542" lon="7.37879">
        <ele>1666.5999755859</ele>
        <time>2014-08-23T14:14:11.000Z</time>
      </trkpt>
      <trkpt lat="43.9854" lon="7.37883">
        <ele>1666.5999755859</ele>
        <time>2014-08-23T14:14:16.000Z</time>
      </trkpt>
      <trkpt lat="43.9854" lon="7.37887">
        <ele>1666.1999511719</ele>
        <time>2014-08-23T14:14:21.000Z</time>
      </trkpt>
      <trkpt lat="43.98537" lon="7.37889">
        <ele>1666.8000488281</ele>
        <time>2014-08-23T14:14:24.000Z</time>
      </trkpt>
      <trkpt lat="43.98536" lon="7.37889">
        <ele>1667.5999755859</ele>
        <time>2014-08-23T14:14:25.000Z</time>
      </trkpt>
      <trkpt lat="43.98531" lon="7.3789">
        <ele>1669.4000244141</ele>
        <time>2014-08-23T14:14:31.000Z</time>
      </trkpt>
      <trkpt lat="43.98526" lon="7.37892">
        <ele>1671.1999511719</ele>
        <time>2014-08-23T14:14:36.000Z</time>
      </trkpt>
      <trkpt lat="43.98527" lon="7.37894">
        <ele>1670.4000244141</ele>
        <time>2014-08-23T14:14:40.000Z</time>
      </trkpt>
      <trkpt lat="43.98528" lon="7.37897">
        <ele>1669.5999755859</ele>
        <time>2014-08-23T14:14:49.000Z</time>
      </trkpt>
      <trkpt lat="43.98528" lon="7.37901">
        <ele>1669</ele>
        <time>2014-08-23T14:14:58.000Z</time>
      </trkpt>
      <trkpt lat="43.98526" lon="7.37901">
        <ele>1669.5999755859</ele>
        <time>2014-08-23T14:15:00.000Z</time>
      </trkpt>
      <trkpt lat="43.98525" lon="7.37902">
        <ele>1669.8000488281</ele>
        <time>2014-08-23T14:15:01.000Z</time>
      </trkpt>
      <trkpt lat="43.98523" lon="7.37903">
        <ele>1669.4000244141</ele>
        <time>2014-08-23T14:15:03.000Z</time>
      </trkpt>
      <trkpt lat="43.9852" lon="7.37904">
        <ele>1668</ele>
        <time>2014-08-23T14:15:05.000Z</time>
      </trkpt>
      <trkpt lat="43.98519" lon="7.37906">
        <ele>1667.4000244141</ele>
        <time>2014-08-23T14:15:08.000Z</time>
      </trkpt>
      <trkpt lat="43.98519" lon="7.37909">
        <ele>1667.1999511719</ele>
        <time>2014-08-23T14:15:10.000Z</time>
      </trkpt>
      <trkpt lat="43.98517" lon="7.37911">
        <ele>1666.5999755859</ele>
        <time>2014-08-23T14:15:14.000Z</time>
      </trkpt>
      <trkpt lat="43.98516" lon="7.37911">
        <ele>1666.5999755859</ele>
        <time>2014-08-23T14:15:15.000Z</time>
      </trkpt>
      <trkpt lat="43.98508" lon="7.37918">
        <ele>1664.4000244141</ele>
        <time>2014-08-23T14:15:27.000Z</time>
      </trkpt>
      <trkpt lat="43.98507" lon="7.37926">
        <ele>1662.5999755859</ele>
        <time>2014-08-23T14:15:35.000Z</time>
      </trkpt>
      <trkpt lat="43.98505" lon="7.37927">
        <ele>1661.8000488281</ele>
        <time>2014-08-23T14:15:37.000Z</time>
      </trkpt>
      <trkpt lat="43.98499" lon="7.37932">
        <ele>1660</ele>
        <time>2014-08-23T14:15:41.000Z</time>
      </trkpt>
      <trkpt lat="43.98492" lon="7.37938">
        <ele>1657.4000244141</ele>
        <time>2014-08-23T14:15:49.000Z</time>
      </trkpt>
      <trkpt lat="43.9849" lon="7.37937">
        <ele>1657.4000244141</ele>
        <time>2014-08-23T14:15:53.000Z</time>
      </trkpt>
      <trkpt lat="43.98489" lon="7.37936">
        <ele>1657.1999511719</ele>
        <time>2014-08-23T14:15:55.000Z</time>
      </trkpt>
      <trkpt lat="43.98487" lon="7.37936">
        <ele>1657</ele>
        <time>2014-08-23T14:16:00.000Z</time>
      </trkpt>
      <trkpt lat="43.98482" lon="7.37936">
        <ele>1656.1999511719</ele>
        <time>2014-08-23T14:16:04.000Z</time>
      </trkpt>
      <trkpt lat="43.9848" lon="7.37937">
        <ele>1655.8000488281</ele>
        <time>2014-08-23T14:16:07.000Z</time>
      </trkpt>
      <trkpt lat="43.98476" lon="7.37925">
        <ele>1657.4000244141</ele>
        <time>2014-08-23T14:16:59.000Z</time>
      </trkpt>
      <trkpt lat="43.98478" lon="7.37926">
        <ele>1657.8000488281</ele>
        <time>2014-08-23T14:17:02.000Z</time>
      </trkpt>
      <trkpt lat="43.98485" lon="7.3792">
        <ele>1660.1999511719</ele>
        <time>2014-08-23T14:17:47.000Z</time>
      </trkpt>
      <trkpt lat="43.98474" lon="7.37919">
        <ele>1658.4000244141</ele>
        <time>2014-08-23T14:18:03.000Z</time>
      </trkpt>
      <trkpt lat="43.98472" lon="7.37923">
        <ele>1657.4000244141</ele>
        <time>2014-08-23T14:18:07.000Z</time>
      </trkpt>
      <trkpt lat="43.98491" lon="7.3792">
        <ele>1661.1999511719</ele>
        <time>2014-08-23T14:19:50.000Z</time>
      </trkpt>
      <trkpt lat="43.98486" lon="7.37926">
        <ele>1659</ele>
        <time>2014-08-23T14:20:50.000Z</time>
      </trkpt>
      <trkpt lat="43.98487" lon="7.37923">
        <ele>1660</ele>
        <time>2014-08-23T14:21:33.000Z</time>
      </trkpt>
      <trkpt lat="43.98484" lon="7.37926">
        <ele>1658.5999755859</ele>
        <time>2014-08-23T14:21:37.000Z</time>
      </trkpt>
      <trkpt lat="43.98478" lon="7.37928">
        <ele>1657.4000244141</ele>
        <time>2014-08-23T14:21:43.000Z</time>
      </trkpt>
      <trkpt lat="43.98473" lon="7.37932">
        <ele>1655.5999755859</ele>
        <time>2014-08-23T14:21:50.000Z</time>
      </trkpt>
      <trkpt lat="43.98472" lon="7.37932">
        <ele>1655.4000244141</ele>
        <time>2014-08-23T14:21:51.000Z</time>
      </trkpt>
      <trkpt lat="43.9847" lon="7.37935">
        <ele>1654.4000244141</ele>
        <time>2014-08-23T14:21:55.000Z</time>
      </trkpt>
      <trkpt lat="43.98469" lon="7.37937">
        <ele>1653.8000488281</ele>
        <time>2014-08-23T14:21:58.000Z</time>
      </trkpt>
      <trkpt lat="43.98466" lon="7.37937">
        <ele>1653.4000244141</ele>
        <time>2014-08-23T14:22:00.000Z</time>
      </trkpt>
      <trkpt lat="43.98464" lon="7.37938">
        <ele>1653</ele>
        <time>2014-08-23T14:22:02.000Z</time>
      </trkpt>
      <trkpt lat="43.98464" lon="7.3794">
        <ele>1653</ele>
        <time>2014-08-23T14:22:04.000Z</time>
      </trkpt>
      <trkpt lat="43.98464" lon="7.37941">
        <ele>1653.1999511719</ele>
        <time>2014-08-23T14:22:05.000Z</time>
      </trkpt>
      <trkpt lat="43.98463" lon="7.37946">
        <ele>1653.4000244141</ele>
        <time>2014-08-23T14:22:08.000Z</time>
      </trkpt>
      <trkpt lat="43.98462" lon="7.37948">
        <ele>1653.5999755859</ele>
        <time>2014-08-23T14:22:10.000Z</time>
      </trkpt>
      <trkpt lat="43.98458" lon="7.37948">
        <ele>1654</ele>
        <time>2014-08-23T14:22:14.000Z</time>
      </trkpt>
      <trkpt lat="43.98457" lon="7.3795">
        <ele>1654.1999511719</ele>
        <time>2014-08-23T14:22:16.000Z</time>
      </trkpt>
      <trkpt lat="43.98455" lon="7.3796">
        <ele>1655</ele>
        <time>2014-08-23T14:22:23.000Z</time>
      </trkpt>
      <trkpt lat="43.98457" lon="7.37967">
        <ele>1655</ele>
        <time>2014-08-23T14:22:28.000Z</time>
      </trkpt>
      <trkpt lat="43.98457" lon="7.37969">
        <ele>1655.1999511719</ele>
        <time>2014-08-23T14:22:29.000Z</time>
      </trkpt>
      <trkpt lat="43.98455" lon="7.37979">
        <ele>1655.8000488281</ele>
        <time>2014-08-23T14:22:35.000Z</time>
      </trkpt>
      <trkpt lat="43.98454" lon="7.3798">
        <ele>1655.8000488281</ele>
        <time>2014-08-23T14:22:36.000Z</time>
      </trkpt>
      <trkpt lat="43.98451" lon="7.37983">
        <ele>1656.4000244141</ele>
        <time>2014-08-23T14:22:41.000Z</time>
      </trkpt>
      <trkpt lat="43.98451" lon="7.37984">
        <ele>1656.4000244141</ele>
        <time>2014-08-23T14:22:42.000Z</time>
      </trkpt>
      <trkpt lat="43.98449" lon="7.37984">
        <ele>1656.5999755859</ele>
        <time>2014-08-23T14:22:43.000Z</time>
      </trkpt>
      <trkpt lat="43.98448" lon="7.37987">
        <ele>1656.8000488281</ele>
        <time>2014-08-23T14:22:47.000Z</time>
      </trkpt>
      <trkpt lat="43.98446" lon="7.3799">
        <ele>1657.1999511719</ele>
        <time>2014-08-23T14:22:51.000Z</time>
      </trkpt>
      <trkpt lat="43.98445" lon="7.37993">
        <ele>1657.4000244141</ele>
        <time>2014-08-23T14:22:55.000Z</time>
      </trkpt>
      <trkpt lat="43.98442" lon="7.38001">
        <ele>1658</ele>
        <time>2014-08-23T14:23:03.000Z</time>
      </trkpt>
      <trkpt lat="43.98441" lon="7.38002">
        <ele>1657.8000488281</ele>
        <time>2014-08-23T14:23:04.000Z</time>
      </trkpt>
      <trkpt lat="43.98438" lon="7.38004">
        <ele>1656.4000244141</ele>
        <time>2014-08-23T14:23:10.000Z</time>
      </trkpt>
      <trkpt lat="43.98436" lon="7.38005">
        <ele>1655.1999511719</ele>
        <time>2014-08-23T14:23:13.000Z</time>
      </trkpt>
      <trkpt lat="43.98434" lon="7.38008">
        <ele>1654.5999755859</ele>
        <time>2014-08-23T14:23:17.000Z</time>
      </trkpt>
      <trkpt lat="43.98435" lon="7.38011">
        <ele>1655</ele>
        <time>2014-08-23T14:23:19.000Z</time>
      </trkpt>
      <trkpt lat="43.98434" lon="7.38013">
        <ele>1654.5999755859</ele>
        <time>2014-08-23T14:23:21.000Z</time>
      </trkpt>
      <trkpt lat="43.98432" lon="7.38015">
        <ele>1653.5999755859</ele>
        <time>2014-08-23T14:23:23.000Z</time>
      </trkpt>
      <trkpt lat="43.98432" lon="7.38015">
        <ele>1653.8000488281</ele>
        <time>2014-08-23T14:23:25.000Z</time>
      </trkpt>
      <trkpt lat="43.98432" lon="7.38015">
        <ele>1653.8000488281</ele>
        <time>2014-08-23T14:23:27.000Z</time>
      </trkpt>
      <trkpt lat="43.98433" lon="7.38019">
        <ele>1654.1999511719</ele>
        <time>2014-08-23T14:23:31.000Z</time>
      </trkpt>
      <trkpt lat="43.98431" lon="7.38024">
        <ele>1652.8000488281</ele>
        <time>2014-08-23T14:23:36.000Z</time>
      </trkpt>
      <trkpt lat="43.9843" lon="7.38026">
        <ele>1652.4000244141</ele>
        <time>2014-08-23T14:23:37.000Z</time>
      </trkpt>
      <trkpt lat="43.98428" lon="7.38027">
        <ele>1651.8000488281</ele>
        <time>2014-08-23T14:23:41.000Z</time>
      </trkpt>
      <trkpt lat="43.98427" lon="7.38033">
        <ele>1651.4000244141</ele>
        <time>2014-08-23T14:23:47.000Z</time>
      </trkpt>
      <trkpt lat="43.98429" lon="7.38033">
        <ele>1652.1999511719</ele>
        <time>2014-08-23T14:23:52.000Z</time>
      </trkpt>
      <trkpt lat="43.98431" lon="7.38037">
        <ele>1653.1999511719</ele>
        <time>2014-08-23T14:23:57.000Z</time>
      </trkpt>
      <trkpt lat="43.98431" lon="7.3804">
        <ele>1653.1999511719</ele>
        <time>2014-08-23T14:24:00.000Z</time>
      </trkpt>
      <trkpt lat="43.98431" lon="7.38045">
        <ele>1653</ele>
        <time>2014-08-23T14:24:03.000Z</time>
      </trkpt>
      <trkpt lat="43.98431" lon="7.38046">
        <ele>1653</ele>
        <time>2014-08-23T14:24:04.000Z</time>
      </trkpt>
      <trkpt lat="43.98429" lon="7.38048">
        <ele>1652</ele>
        <time>2014-08-23T14:24:09.000Z</time>
      </trkpt>
      <trkpt lat="43.98427" lon="7.38053">
        <ele>1651.4000244141</ele>
        <time>2014-08-23T14:24:17.000Z</time>
      </trkpt>
      <trkpt lat="43.98426" lon="7.38058">
        <ele>1651</ele>
        <time>2014-08-23T14:24:19.000Z</time>
      </trkpt>
      <trkpt lat="43.98419" lon="7.3806">
        <ele>1647.5999755859</ele>
        <time>2014-08-23T14:24:24.000Z</time>
      </trkpt>
      <trkpt lat="43.9842" lon="7.38061">
        <ele>1648.1999511719</ele>
        <time>2014-08-23T14:24:25.000Z</time>
      </trkpt>
      <trkpt lat="43.98418" lon="7.38065">
        <ele>1648.1999511719</ele>
        <time>2014-08-23T14:24:29.000Z</time>
      </trkpt>
      <trkpt lat="43.98417" lon="7.38066">
        <ele>1647.8000488281</ele>
        <time>2014-08-23T14:24:30.000Z</time>
      </trkpt>
      <trkpt lat="43.98416" lon="7.38067">
        <ele>1647.8000488281</ele>
        <time>2014-08-23T14:24:32.000Z</time>
      </trkpt>
      <trkpt lat="43.98415" lon="7.38069">
        <ele>1647.8000488281</ele>
        <time>2014-08-23T14:24:37.000Z</time>
      </trkpt>
      <trkpt lat="43.98413" lon="7.38073">
        <ele>1647.8000488281</ele>
        <time>2014-08-23T14:24:43.000Z</time>
      </trkpt>
      <trkpt lat="43.98413" lon="7.38076">
        <ele>1648.1999511719</ele>
        <time>2014-08-23T14:24:45.000Z</time>
      </trkpt>
      <trkpt lat="43.98409" lon="7.38079">
        <ele>1647.5999755859</ele>
        <time>2014-08-23T14:24:48.000Z</time>
      </trkpt>
      <trkpt lat="43.98409" lon="7.38081">
        <ele>1647.8000488281</ele>
        <time>2014-08-23T14:24:50.000Z</time>
      </trkpt>
      <trkpt lat="43.98407" lon="7.38085">
        <ele>1647.4000244141</ele>
        <time>2014-08-23T14:24:54.000Z</time>
      </trkpt>
      <trkpt lat="43.98405" lon="7.38088">
        <ele>1647</ele>
        <time>2014-08-23T14:24:57.000Z</time>
      </trkpt>
      <trkpt lat="43.98405" lon="7.38092">
        <ele>1647</ele>
        <time>2014-08-23T14:25:00.000Z</time>
      </trkpt>
      <trkpt lat="43.984" lon="7.38098">
        <ele>1645.8000488281</ele>
        <time>2014-08-23T14:25:05.000Z</time>
      </trkpt>
      <trkpt lat="43.98399" lon="7.38099">
        <ele>1645.4000244141</ele>
        <time>2014-08-23T14:25:06.000Z</time>
      </trkpt>
      <trkpt lat="43.98399" lon="7.38103">
        <ele>1645.5999755859</ele>
        <time>2014-08-23T14:25:10.000Z</time>
      </trkpt>
      <trkpt lat="43.98399" lon="7.38106">
        <ele>1645.5999755859</ele>
        <time>2014-08-23T14:25:13.000Z</time>
      </trkpt>
      <trkpt lat="43.98392" lon="7.3811">
        <ele>1643.5999755859</ele>
        <time>2014-08-23T14:25:17.000Z</time>
      </trkpt>
      <trkpt lat="43.98389" lon="7.38109">
        <ele>1642.5999755859</ele>
        <time>2014-08-23T14:25:19.000Z</time>
      </trkpt>
      <trkpt lat="43.98391" lon="7.38113">
        <ele>1643.1999511719</ele>
        <time>2014-08-23T14:25:23.000Z</time>
      </trkpt>
      <trkpt lat="43.9839" lon="7.38117">
        <ele>1643.4000244141</ele>
        <time>2014-08-23T14:25:26.000Z</time>
      </trkpt>
      <trkpt lat="43.98395" lon="7.38125">
        <ele>1645.1999511719</ele>
        <time>2014-08-23T14:25:30.000Z</time>
      </trkpt>
      <trkpt lat="43.98396" lon="7.38132">
        <ele>1646</ele>
        <time>2014-08-23T14:25:36.000Z</time>
      </trkpt>
      <trkpt lat="43.98397" lon="7.38138">
        <ele>1646.4000244141</ele>
        <time>2014-08-23T14:25:42.000Z</time>
      </trkpt>
      <trkpt lat="43.98395" lon="7.38143">
        <ele>1646.4000244141</ele>
        <time>2014-08-23T14:25:48.000Z</time>
      </trkpt>
      <trkpt lat="43.98387" lon="7.38151">
        <ele>1644.5999755859</ele>
        <time>2014-08-23T14:26:21.000Z</time>
      </trkpt>
      <trkpt lat="43.98386" lon="7.38153">
        <ele>1644.4000244141</ele>
        <time>2014-08-23T14:26:50.000Z</time>
      </trkpt>
      <trkpt lat="43.98385" lon="7.38164">
        <ele>1644.5999755859</ele>
        <time>2014-08-23T14:27:03.000Z</time>
      </trkpt>
      <trkpt lat="43.98384" lon="7.38169">
        <ele>1644.4000244141</ele>
        <time>2014-08-23T14:27:08.000Z</time>
      </trkpt>
      <trkpt lat="43.98383" lon="7.38175">
        <ele>1644</ele>
        <time>2014-08-23T14:27:14.000Z</time>
      </trkpt>
      <trkpt lat="43.98385" lon="7.38188">
        <ele>1644.1999511719</ele>
        <time>2014-08-23T14:27:31.000Z</time>
      </trkpt>
      <trkpt lat="43.98387" lon="7.38193">
        <ele>1644.5999755859</ele>
        <time>2014-08-23T14:27:35.000Z</time>
      </trkpt>
      <trkpt lat="43.9839" lon="7.38195">
        <ele>1645.4000244141</ele>
        <time>2014-08-23T14:27:37.000Z</time>
      </trkpt>
      <trkpt lat="43.98392" lon="7.38201">
        <ele>1646.1999511719</ele>
        <time>2014-08-23T14:27:42.000Z</time>
      </trkpt>
      <trkpt lat="43.98395" lon="7.38207">
        <ele>1647.1999511719</ele>
        <time>2014-08-23T14:27:46.000Z</time>
      </trkpt>
      <trkpt lat="43.98395" lon="7.38209">
        <ele>1647.4000244141</ele>
        <time>2014-08-23T14:27:47.000Z</time>
      </trkpt>
      <trkpt lat="43.98395" lon="7.3821">
        <ele>1647.4000244141</ele>
        <time>2014-08-23T14:27:48.000Z</time>
      </trkpt>
      <trkpt lat="43.98396" lon="7.38215">
        <ele>1648.1999511719</ele>
        <time>2014-08-23T14:27:55.000Z</time>
      </trkpt>
      <trkpt lat="43.98398" lon="7.38223">
        <ele>1649.4000244141</ele>
        <time>2014-08-23T14:28:01.000Z</time>
      </trkpt>
      <trkpt lat="43.98397" lon="7.38224">
        <ele>1649.4000244141</ele>
        <time>2014-08-23T14:28:07.000Z</time>
      </trkpt>
      <trkpt lat="43.98396" lon="7.38228">
        <ele>1649.4000244141</ele>
        <time>2014-08-23T14:28:11.000Z</time>
      </trkpt>
      <trkpt lat="43.98395" lon="7.38231">
        <ele>1649.5999755859</ele>
        <time>2014-08-23T14:28:14.000Z</time>
      </trkpt>
      <trkpt lat="43.98394" lon="7.38232">
        <ele>1649.5999755859</ele>
        <time>2014-08-23T14:28:15.000Z</time>
      </trkpt>
      <trkpt lat="43.98395" lon="7.38237">
        <ele>1650.1999511719</ele>
        <time>2014-08-23T14:28:23.000Z</time>
      </trkpt>
      <trkpt lat="43.98393" lon="7.38245">
        <ele>1650.5999755859</ele>
        <time>2014-08-23T14:28:29.000Z</time>
      </trkpt>
      <trkpt lat="43.98393" lon="7.38247">
        <ele>1650.8000488281</ele>
        <time>2014-08-23T14:28:31.000Z</time>
      </trkpt>
      <trkpt lat="43.98397" lon="7.38261">
        <ele>1651.4000244141</ele>
        <time>2014-08-23T14:28:37.000Z</time>
      </trkpt>
      <trkpt lat="43.98396" lon="7.38263">
        <ele>1651.1999511719</ele>
        <time>2014-08-23T14:28:38.000Z</time>
      </trkpt>
      <trkpt lat="43.98394" lon="7.3827">
        <ele>1650.8000488281</ele>
        <time>2014-08-23T14:28:42.000Z</time>
      </trkpt>
      <trkpt lat="43.98392" lon="7.38271">
        <ele>1650.4000244141</ele>
        <time>2014-08-23T14:28:44.000Z</time>
      </trkpt>
      <trkpt lat="43.98389" lon="7.38272">
        <ele>1650</ele>
        <time>2014-08-23T14:28:46.000Z</time>
      </trkpt>
      <trkpt lat="43.98387" lon="7.38275">
        <ele>1649.5999755859</ele>
        <time>2014-08-23T14:28:48.000Z</time>
      </trkpt>
      <trkpt lat="43.98384" lon="7.38282">
        <ele>1649.8000488281</ele>
        <time>2014-08-23T14:28:53.000Z</time>
      </trkpt>
      <trkpt lat="43.98383" lon="7.38289">
        <ele>1650.4000244141</ele>
        <time>2014-08-23T14:28:57.000Z</time>
      </trkpt>
      <trkpt lat="43.98382" lon="7.38301">
        <ele>1651.5999755859</ele>
        <time>2014-08-23T14:29:03.000Z</time>
      </trkpt>
      <trkpt lat="43.98383" lon="7.38303">
        <ele>1651.8000488281</ele>
        <time>2014-08-23T14:29:05.000Z</time>
      </trkpt>
      <trkpt lat="43.98383" lon="7.38306">
        <ele>1652</ele>
        <time>2014-08-23T14:29:08.000Z</time>
      </trkpt>
      <trkpt lat="43.98383" lon="7.38309">
        <ele>1652.4000244141</ele>
        <time>2014-08-23T14:29:11.000Z</time>
      </trkpt>
      <trkpt lat="43.98383" lon="7.38314">
        <ele>1652.8000488281</ele>
        <time>2014-08-23T14:29:14.000Z</time>
      </trkpt>
      <trkpt lat="43.9838" lon="7.38319">
        <ele>1653.1999511719</ele>
        <time>2014-08-23T14:29:18.000Z</time>
      </trkpt>
      <trkpt lat="43.98378" lon="7.38324">
        <ele>1653.4000244141</ele>
        <time>2014-08-23T14:29:21.000Z</time>
      </trkpt>
      <trkpt lat="43.98377" lon="7.38327">
        <ele>1653.8000488281</ele>
        <time>2014-08-23T14:29:23.000Z</time>
      </trkpt>
      <trkpt lat="43.98378" lon="7.38331">
        <ele>1654.1999511719</ele>
        <time>2014-08-23T14:29:26.000Z</time>
      </trkpt>
      <trkpt lat="43.98378" lon="7.38332">
        <ele>1654.1999511719</ele>
        <time>2014-08-23T14:29:31.000Z</time>
      </trkpt>
      <trkpt lat="43.98376" lon="7.38334">
        <ele>1654</ele>
        <time>2014-08-23T14:29:37.000Z</time>
      </trkpt>
      <trkpt lat="43.98369" lon="7.3834">
        <ele>1653</ele>
        <time>2014-08-23T14:29:43.000Z</time>
      </trkpt>
      <trkpt lat="43.98367" lon="7.3834">
        <ele>1653</ele>
        <time>2014-08-23T14:29:44.000Z</time>
      </trkpt>
      <trkpt lat="43.98364" lon="7.38342">
        <ele>1653.1999511719</ele>
        <time>2014-08-23T14:29:47.000Z</time>
      </trkpt>
      <trkpt lat="43.98362" lon="7.38346">
        <ele>1653.8000488281</ele>
        <time>2014-08-23T14:29:49.000Z</time>
      </trkpt>
      <trkpt lat="43.9836" lon="7.3835">
        <ele>1654.1999511719</ele>
        <time>2014-08-23T14:29:52.000Z</time>
      </trkpt>
      <trkpt lat="43.98356" lon="7.38354">
        <ele>1653.5999755859</ele>
        <time>2014-08-23T14:29:55.000Z</time>
      </trkpt>
      <trkpt lat="43.98352" lon="7.3836">
        <ele>1652.1999511719</ele>
        <time>2014-08-23T14:30:00.000Z</time>
      </trkpt>
      <trkpt lat="43.98353" lon="7.38362">
        <ele>1652.8000488281</ele>
        <time>2014-08-23T14:30:01.000Z</time>
      </trkpt>
      <trkpt lat="43.98353" lon="7.38367">
        <ele>1653</ele>
        <time>2014-08-23T14:30:04.000Z</time>
      </trkpt>
      <trkpt lat="43.98354" lon="7.38369">
        <ele>1653.4000244141</ele>
        <time>2014-08-23T14:30:07.000Z</time>
      </trkpt>
      <trkpt lat="43.98353" lon="7.38371">
        <ele>1653.4000244141</ele>
        <time>2014-08-23T14:30:09.000Z</time>
      </trkpt>
      <trkpt lat="43.98347" lon="7.38377">
        <ele>1650.8000488281</ele>
        <time>2014-08-23T14:30:13.000Z</time>
      </trkpt>
      <trkpt lat="43.98346" lon="7.38379">
        <ele>1650.5999755859</ele>
        <time>2014-08-23T14:30:14.000Z</time>
      </trkpt>
      <trkpt lat="43.98344" lon="7.38389">
        <ele>1650.4000244141</ele>
        <time>2014-08-23T14:30:18.000Z</time>
      </trkpt>
      <trkpt lat="43.98343" lon="7.38395">
        <ele>1650.4000244141</ele>
        <time>2014-08-23T14:30:21.000Z</time>
      </trkpt>
      <trkpt lat="43.98343" lon="7.38396">
        <ele>1650.1999511719</ele>
        <time>2014-08-23T14:30:22.000Z</time>
      </trkpt>
      <trkpt lat="43.98343" lon="7.38399">
        <ele>1650.5999755859</ele>
        <time>2014-08-23T14:30:24.000Z</time>
      </trkpt>
      <trkpt lat="43.98345" lon="7.38403">
        <ele>1651.8000488281</ele>
        <time>2014-08-23T14:30:29.000Z</time>
      </trkpt>
      <trkpt lat="43.98346" lon="7.38406">
        <ele>1653</ele>
        <time>2014-08-23T14:30:31.000Z</time>
      </trkpt>
      <trkpt lat="43.98344" lon="7.38408">
        <ele>1653</ele>
        <time>2014-08-23T14:30:33.000Z</time>
      </trkpt>
      <trkpt lat="43.98342" lon="7.38409">
        <ele>1652.5999755859</ele>
        <time>2014-08-23T14:30:34.000Z</time>
      </trkpt>
      <trkpt lat="43.98343" lon="7.38412">
        <ele>1653.4000244141</ele>
        <time>2014-08-23T14:30:38.000Z</time>
      </trkpt>
      <trkpt lat="43.98343" lon="7.38413">
        <ele>1653.5999755859</ele>
        <time>2014-08-23T14:30:39.000Z</time>
      </trkpt>
      <trkpt lat="43.98342" lon="7.38417">
        <ele>1654</ele>
        <time>2014-08-23T14:30:41.000Z</time>
      </trkpt>
      <trkpt lat="43.98342" lon="7.3842">
        <ele>1654.1999511719</ele>
        <time>2014-08-23T14:30:43.000Z</time>
      </trkpt>
      <trkpt lat="43.98342" lon="7.38432">
        <ele>1655.5999755859</ele>
        <time>2014-08-23T14:30:49.000Z</time>
      </trkpt>
      <trkpt lat="43.98339" lon="7.38434">
        <ele>1654.8000488281</ele>
        <time>2014-08-23T14:30:52.000Z</time>
      </trkpt>
      <trkpt lat="43.98339" lon="7.38435">
        <ele>1655</ele>
        <time>2014-08-23T14:30:53.000Z</time>
      </trkpt>
      <trkpt lat="43.98339" lon="7.38436">
        <ele>1655</ele>
        <time>2014-08-23T14:30:55.000Z</time>
      </trkpt>
      <trkpt lat="43.98339" lon="7.38439">
        <ele>1655.4000244141</ele>
        <time>2014-08-23T14:31:05.000Z</time>
      </trkpt>
      <trkpt lat="43.98338" lon="7.38445">
        <ele>1655.5999755859</ele>
        <time>2014-08-23T14:31:11.000Z</time>
      </trkpt>
      <trkpt lat="43.9834" lon="7.38451">
        <ele>1657</ele>
        <time>2014-08-23T14:31:15.000Z</time>
      </trkpt>
      <trkpt lat="43.9834" lon="7.38453">
        <ele>1657.1999511719</ele>
        <time>2014-08-23T14:31:16.000Z</time>
      </trkpt>
      <trkpt lat="43.9834" lon="7.38458">
        <ele>1657.8000488281</ele>
        <time>2014-08-23T14:31:20.000Z</time>
      </trkpt>
      <trkpt lat="43.9834" lon="7.38458">
        <ele>1657.8000488281</ele>
        <time>2014-08-23T14:31:21.000Z</time>
      </trkpt>
      <trkpt lat="43.98339" lon="7.3846">
        <ele>1657.8000488281</ele>
        <time>2014-08-23T14:31:24.000Z</time>
      </trkpt>
      <trkpt lat="43.9834" lon="7.38467">
        <ele>1659</ele>
        <time>2014-08-23T14:31:28.000Z</time>
      </trkpt>
      <trkpt lat="43.9834" lon="7.38469">
        <ele>1658.8000488281</ele>
        <time>2014-08-23T14:31:29.000Z</time>
      </trkpt>
      <trkpt lat="43.98339" lon="7.38478">
        <ele>1659.4000244141</ele>
        <time>2014-08-23T14:31:35.000Z</time>
      </trkpt>
      <trkpt lat="43.98337" lon="7.38486">
        <ele>1661.5999755859</ele>
        <time>2014-08-23T14:31:42.000Z</time>
      </trkpt>
      <trkpt lat="43.98336" lon="7.38487">
        <ele>1661.8000488281</ele>
        <time>2014-08-23T14:31:43.000Z</time>
      </trkpt>
      <trkpt lat="43.98336" lon="7.3849">
        <ele>1662.8000488281</ele>
        <time>2014-08-23T14:31:48.000Z</time>
      </trkpt>
      <trkpt lat="43.98332" lon="7.38492">
        <ele>1663</ele>
        <time>2014-08-23T14:31:55.000Z</time>
      </trkpt>
      <trkpt lat="43.98332" lon="7.38499">
        <ele>1664.8000488281</ele>
        <time>2014-08-23T14:32:02.000Z</time>
      </trkpt>
      <trkpt lat="43.9833" lon="7.38505">
        <ele>1664.5999755859</ele>
        <time>2014-08-23T14:32:07.000Z</time>
      </trkpt>
      <trkpt lat="43.9833" lon="7.38506">
        <ele>1664.4000244141</ele>
        <time>2014-08-23T14:32:09.000Z</time>
      </trkpt>
      <trkpt lat="43.98328" lon="7.3851">
        <ele>1664.1999511719</ele>
        <time>2014-08-23T14:32:12.000Z</time>
      </trkpt>
      <trkpt lat="43.98328" lon="7.38514">
        <ele>1664.1999511719</ele>
        <time>2014-08-23T14:32:16.000Z</time>
      </trkpt>
      <trkpt lat="43.98326" lon="7.38518">
        <ele>1664</ele>
        <time>2014-08-23T14:32:21.000Z</time>
      </trkpt>
      <trkpt lat="43.98326" lon="7.38532">
        <ele>1663.8000488281</ele>
        <time>2014-08-23T14:32:29.000Z</time>
      </trkpt>
      <trkpt lat="43.98328" lon="7.3854">
        <ele>1664</ele>
        <time>2014-08-23T14:32:34.000Z</time>
      </trkpt>
      <trkpt lat="43.98327" lon="7.38541">
        <ele>1663.8000488281</ele>
        <time>2014-08-23T14:32:36.000Z</time>
      </trkpt>
      <trkpt lat="43.98326" lon="7.38555">
        <ele>1664.8000488281</ele>
        <time>2014-08-23T14:32:44.000Z</time>
      </trkpt>
      <trkpt lat="43.98326" lon="7.3856">
        <ele>1666</ele>
        <time>2014-08-23T14:32:47.000Z</time>
      </trkpt>
      <trkpt lat="43.98326" lon="7.38562">
        <ele>1666.5999755859</ele>
        <time>2014-08-23T14:32:49.000Z</time>
      </trkpt>
      <trkpt lat="43.98325" lon="7.38565">
        <ele>1667.1999511719</ele>
        <time>2014-08-23T14:32:51.000Z</time>
      </trkpt>
      <trkpt lat="43.98323" lon="7.38571">
        <ele>1668.8000488281</ele>
        <time>2014-08-23T14:32:56.000Z</time>
      </trkpt>
      <trkpt lat="43.98321" lon="7.38575">
        <ele>1670</ele>
        <time>2014-08-23T14:33:00.000Z</time>
      </trkpt>
      <trkpt lat="43.98321" lon="7.38577">
        <ele>1670.4000244141</ele>
        <time>2014-08-23T14:33:01.000Z</time>
      </trkpt>
      <trkpt lat="43.9832" lon="7.38579">
        <ele>1671</ele>
        <time>2014-08-23T14:33:03.000Z</time>
      </trkpt>
      <trkpt lat="43.98318" lon="7.38581">
        <ele>1671.8000488281</ele>
        <time>2014-08-23T14:33:06.000Z</time>
      </trkpt>
      <trkpt lat="43.98319" lon="7.38582">
        <ele>1671.5999755859</ele>
        <time>2014-08-23T14:33:07.000Z</time>
      </trkpt>
      <trkpt lat="43.98317" lon="7.38585">
        <ele>1671.8000488281</ele>
        <time>2014-08-23T14:33:10.000Z</time>
      </trkpt>
      <trkpt lat="43.98313" lon="7.38598">
        <ele>1671.4000244141</ele>
        <time>2014-08-23T14:33:17.000Z</time>
      </trkpt>
      <trkpt lat="43.98312" lon="7.38604">
        <ele>1671.1999511719</ele>
        <time>2014-08-23T14:33:21.000Z</time>
      </trkpt>
      <trkpt lat="43.98312" lon="7.38608">
        <ele>1671</ele>
        <time>2014-08-23T14:33:23.000Z</time>
      </trkpt>
      <trkpt lat="43.98306" lon="7.38616">
        <ele>1671.1999511719</ele>
        <time>2014-08-23T14:33:31.000Z</time>
      </trkpt>
      <trkpt lat="43.98305" lon="7.38624">
        <ele>1671.4000244141</ele>
        <time>2014-08-23T14:33:38.000Z</time>
      </trkpt>
      <trkpt lat="43.98303" lon="7.38625">
        <ele>1671.5999755859</ele>
        <time>2014-08-23T14:33:40.000Z</time>
      </trkpt>
      <trkpt lat="43.98297" lon="7.38636">
        <ele>1672.4000244141</ele>
        <time>2014-08-23T14:33:49.000Z</time>
      </trkpt>
      <trkpt lat="43.98289" lon="7.38644">
        <ele>1673.4000244141</ele>
        <time>2014-08-23T14:33:57.000Z</time>
      </trkpt>
      <trkpt lat="43.98287" lon="7.38647">
        <ele>1673.5999755859</ele>
        <time>2014-08-23T14:34:00.000Z</time>
      </trkpt>
      <trkpt lat="43.98284" lon="7.38654">
        <ele>1673.8000488281</ele>
        <time>2014-08-23T14:34:06.000Z</time>
      </trkpt>
      <trkpt lat="43.98284" lon="7.38662">
        <ele>1673.5999755859</ele>
        <time>2014-08-23T14:34:14.000Z</time>
      </trkpt>
      <trkpt lat="43.98283" lon="7.38672">
        <ele>1673.8000488281</ele>
        <time>2014-08-23T14:34:24.000Z</time>
      </trkpt>
      <trkpt lat="43.9828" lon="7.38684">
        <ele>1673.5999755859</ele>
        <time>2014-08-23T14:34:34.000Z</time>
      </trkpt>
      <trkpt lat="43.9828" lon="7.38696">
        <ele>1673</ele>
        <time>2014-08-23T14:34:42.000Z</time>
      </trkpt>
      <trkpt lat="43.98279" lon="7.38704">
        <ele>1672.5999755859</ele>
        <time>2014-08-23T14:34:49.000Z</time>
      </trkpt>
      <trkpt lat="43.98282" lon="7.38711">
        <ele>1672</ele>
        <time>2014-08-23T14:34:55.000Z</time>
      </trkpt>
      <trkpt lat="43.98281" lon="7.38711">
        <ele>1672</ele>
        <time>2014-08-23T14:34:56.000Z</time>
      </trkpt>
      <trkpt lat="43.98281" lon="7.38715">
        <ele>1672</ele>
        <time>2014-08-23T14:35:01.000Z</time>
      </trkpt>
      <trkpt lat="43.98282" lon="7.38718">
        <ele>1671.5999755859</ele>
        <time>2014-08-23T14:35:03.000Z</time>
      </trkpt>
      <trkpt lat="43.98279" lon="7.38724">
        <ele>1671.5999755859</ele>
        <time>2014-08-23T14:35:08.000Z</time>
      </trkpt>
      <trkpt lat="43.98277" lon="7.38732">
        <ele>1671.5999755859</ele>
        <time>2014-08-23T14:35:15.000Z</time>
      </trkpt>
      <trkpt lat="43.98279" lon="7.38739">
        <ele>1671</ele>
        <time>2014-08-23T14:35:21.000Z</time>
      </trkpt>
      <trkpt lat="43.98279" lon="7.3874">
        <ele>1671</ele>
        <time>2014-08-23T14:35:22.000Z</time>
      </trkpt>
      <trkpt lat="43.98278" lon="7.38748">
        <ele>1670.5999755859</ele>
        <time>2014-08-23T14:35:27.000Z</time>
      </trkpt>
      <trkpt lat="43.98278" lon="7.38749">
        <ele>1670.8000488281</ele>
        <time>2014-08-23T14:35:28.000Z</time>
      </trkpt>
      <trkpt lat="43.98277" lon="7.3875">
        <ele>1670.8000488281</ele>
        <time>2014-08-23T14:35:29.000Z</time>
      </trkpt>
      <trkpt lat="43.98277" lon="7.38756">
        <ele>1671.4000244141</ele>
        <time>2014-08-23T14:35:37.000Z</time>
      </trkpt>
      <trkpt lat="43.98277" lon="7.38761">
        <ele>1671.8000488281</ele>
        <time>2014-08-23T14:35:43.000Z</time>
      </trkpt>
      <trkpt lat="43.98278" lon="7.38768">
        <ele>1672.4000244141</ele>
        <time>2014-08-23T14:35:51.000Z</time>
      </trkpt>
      <trkpt lat="43.9828" lon="7.38777">
        <ele>1672.8000488281</ele>
        <time>2014-08-23T14:35:57.000Z</time>
      </trkpt>
      <trkpt lat="43.98283" lon="7.38787">
        <ele>1673.4000244141</ele>
        <time>2014-08-23T14:36:03.000Z</time>
      </trkpt>
      <trkpt lat="43.98283" lon="7.38791">
        <ele>1673.8000488281</ele>
        <time>2014-08-23T14:36:06.000Z</time>
      </trkpt>
      <trkpt lat="43.98284" lon="7.38797">
        <ele>1674.1999511719</ele>
        <time>2014-08-23T14:36:11.000Z</time>
      </trkpt>
      <trkpt lat="43.98287" lon="7.38805">
        <ele>1674.4000244141</ele>
        <time>2014-08-23T14:36:19.000Z</time>
      </trkpt>
      <trkpt lat="43.98287" lon="7.38809">
        <ele>1674.8000488281</ele>
        <time>2014-08-23T14:36:23.000Z</time>
      </trkpt>
      <trkpt lat="43.98286" lon="7.38819">
        <ele>1675.8000488281</ele>
        <time>2014-08-23T14:36:31.000Z</time>
      </trkpt>
      <trkpt lat="43.98285" lon="7.38829">
        <ele>1676.5999755859</ele>
        <time>2014-08-23T14:36:39.000Z</time>
      </trkpt>
      <trkpt lat="43.98284" lon="7.38839">
        <ele>1677.4000244141</ele>
        <time>2014-08-23T14:36:46.000Z</time>
      </trkpt>
      <trkpt lat="43.98282" lon="7.38853">
        <ele>1678.8000488281</ele>
        <time>2014-08-23T14:36:56.000Z</time>
      </trkpt>
      <trkpt lat="43.98279" lon="7.38863">
        <ele>1680.1999511719</ele>
        <time>2014-08-23T14:37:05.000Z</time>
      </trkpt>
      <trkpt lat="43.98275" lon="7.38871">
        <ele>1681.1999511719</ele>
        <time>2014-08-23T14:37:13.000Z</time>
      </trkpt>
      <trkpt lat="43.98268" lon="7.38878">
        <ele>1678.4000244141</ele>
        <time>2014-08-23T14:37:20.000Z</time>
      </trkpt>
      <trkpt lat="43.98267" lon="7.3888">
        <ele>1678.1999511719</ele>
        <time>2014-08-23T14:37:22.000Z</time>
      </trkpt>
      <trkpt lat="43.98266" lon="7.38883">
        <ele>1677.8000488281</ele>
        <time>2014-08-23T14:37:24.000Z</time>
      </trkpt>
      <trkpt lat="43.98264" lon="7.38894">
        <ele>1678</ele>
        <time>2014-08-23T14:37:31.000Z</time>
      </trkpt>
      <trkpt lat="43.98265" lon="7.38905">
        <ele>1679.4000244141</ele>
        <time>2014-08-23T14:37:40.000Z</time>
      </trkpt>
      <trkpt lat="43.9827" lon="7.38917">
        <ele>1684.1999511719</ele>
        <time>2014-08-23T14:37:49.000Z</time>
      </trkpt>
      <trkpt lat="43.9827" lon="7.38919">
        <ele>1685</ele>
        <time>2014-08-23T14:37:51.000Z</time>
      </trkpt>
      <trkpt lat="43.98272" lon="7.38923">
        <ele>1686.5999755859</ele>
        <time>2014-08-23T14:37:55.000Z</time>
      </trkpt>
      <trkpt lat="43.98272" lon="7.38923">
        <ele>1686.8000488281</ele>
        <time>2014-08-23T14:37:56.000Z</time>
      </trkpt>
      <trkpt lat="43.98273" lon="7.38926">
        <ele>1687.8000488281</ele>
        <time>2014-08-23T14:38:00.000Z</time>
      </trkpt>
      <trkpt lat="43.98274" lon="7.38926">
        <ele>1688</ele>
        <time>2014-08-23T14:38:36.000Z</time>
      </trkpt>
      <trkpt lat="43.98275" lon="7.38926">
        <ele>1688.1999511719</ele>
        <time>2014-08-23T14:38:45.000Z</time>
      </trkpt>
      <trkpt lat="43.98272" lon="7.38927">
        <ele>1687.5999755859</ele>
        <time>2014-08-23T14:39:16.000Z</time>
      </trkpt>
      <trkpt lat="43.98277" lon="7.38931">
        <ele>1689.4000244141</ele>
        <time>2014-08-23T14:39:20.000Z</time>
      </trkpt>
      <trkpt lat="43.98279" lon="7.38938">
        <ele>1690.4000244141</ele>
        <time>2014-08-23T14:39:26.000Z</time>
      </trkpt>
      <trkpt lat="43.98283" lon="7.38943">
        <ele>1690.4000244141</ele>
        <time>2014-08-23T14:39:32.000Z</time>
      </trkpt>
      <trkpt lat="43.98287" lon="7.38949">
        <ele>1690.8000488281</ele>
        <time>2014-08-23T14:39:39.000Z</time>
      </trkpt>
      <trkpt lat="43.98292" lon="7.38957">
        <ele>1691.1999511719</ele>
        <time>2014-08-23T14:39:45.000Z</time>
      </trkpt>
      <trkpt lat="43.98295" lon="7.38965">
        <ele>1692.5999755859</ele>
        <time>2014-08-23T14:39:50.000Z</time>
      </trkpt>
      <trkpt lat="43.98296" lon="7.38967">
        <ele>1693</ele>
        <time>2014-08-23T14:39:52.000Z</time>
      </trkpt>
      <trkpt lat="43.98297" lon="7.38971">
        <ele>1693.5999755859</ele>
        <time>2014-08-23T14:39:55.000Z</time>
      </trkpt>
      <trkpt lat="43.98299" lon="7.38974">
        <ele>1694</ele>
        <time>2014-08-23T14:39:57.000Z</time>
      </trkpt>
      <trkpt lat="43.98301" lon="7.38978">
        <ele>1694.4000244141</ele>
        <time>2014-08-23T14:39:59.000Z</time>
      </trkpt>
      <trkpt lat="43.98301" lon="7.38982">
        <ele>1695.8000488281</ele>
        <time>2014-08-23T14:40:02.000Z</time>
      </trkpt>
      <trkpt lat="43.98301" lon="7.38984">
        <ele>1696</ele>
        <time>2014-08-23T14:40:03.000Z</time>
      </trkpt>
      <trkpt lat="43.98306" lon="7.38991">
        <ele>1696.8000488281</ele>
        <time>2014-08-23T14:40:10.000Z</time>
      </trkpt>
      <trkpt lat="43.98307" lon="7.38993">
        <ele>1697</ele>
        <time>2014-08-23T14:40:11.000Z</time>
      </trkpt>
      <trkpt lat="43.9831" lon="7.38996">
        <ele>1696.5999755859</ele>
        <time>2014-08-23T14:40:14.000Z</time>
      </trkpt>
      <trkpt lat="43.98309" lon="7.38998">
        <ele>1697.4000244141</ele>
        <time>2014-08-23T14:40:16.000Z</time>
      </trkpt>
      <trkpt lat="43.98314" lon="7.39009">
        <ele>1697.4000244141</ele>
        <time>2014-08-23T14:40:22.000Z</time>
      </trkpt>
      <trkpt lat="43.98316" lon="7.39012">
        <ele>1697.1999511719</ele>
        <time>2014-08-23T14:40:25.000Z</time>
      </trkpt>
      <trkpt lat="43.98316" lon="7.39017">
        <ele>1697.8000488281</ele>
        <time>2014-08-23T14:40:28.000Z</time>
      </trkpt>
      <trkpt lat="43.98321" lon="7.39027">
        <ele>1697.5999755859</ele>
        <time>2014-08-23T14:40:33.000Z</time>
      </trkpt>
      <trkpt lat="43.98321" lon="7.39029">
        <ele>1697.8000488281</ele>
        <time>2014-08-23T14:40:34.000Z</time>
      </trkpt>
      <trkpt lat="43.98323" lon="7.39039">
        <ele>1698.4000244141</ele>
        <time>2014-08-23T14:40:41.000Z</time>
      </trkpt>
      <trkpt lat="43.98323" lon="7.39048">
        <ele>1699.5999755859</ele>
        <time>2014-08-23T14:40:47.000Z</time>
      </trkpt>
      <trkpt lat="43.98324" lon="7.39053">
        <ele>1700.5999755859</ele>
        <time>2014-08-23T14:40:50.000Z</time>
      </trkpt>
      <trkpt lat="43.98329" lon="7.39057">
        <ele>1699.4000244141</ele>
        <time>2014-08-23T14:40:53.000Z</time>
      </trkpt>
      <trkpt lat="43.9833" lon="7.39064">
        <ele>1700.8000488281</ele>
        <time>2014-08-23T14:40:59.000Z</time>
      </trkpt>
      <trkpt lat="43.98329" lon="7.39068">
        <ele>1701.8000488281</ele>
        <time>2014-08-23T14:41:01.000Z</time>
      </trkpt>
      <trkpt lat="43.9833" lon="7.39076">
        <ele>1703.8000488281</ele>
        <time>2014-08-23T14:41:06.000Z</time>
      </trkpt>
      <trkpt lat="43.98329" lon="7.39078">
        <ele>1704.1999511719</ele>
        <time>2014-08-23T14:41:07.000Z</time>
      </trkpt>
      <trkpt lat="43.98329" lon="7.39082">
        <ele>1705.4000244141</ele>
        <time>2014-08-23T14:41:10.000Z</time>
      </trkpt>
      <trkpt lat="43.9833" lon="7.39086">
        <ele>1705</ele>
        <time>2014-08-23T14:41:12.000Z</time>
      </trkpt>
      <trkpt lat="43.98333" lon="7.39088">
        <ele>1704.1999511719</ele>
        <time>2014-08-23T14:41:13.000Z</time>
      </trkpt>
      <trkpt lat="43.98335" lon="7.39092">
        <ele>1703.1999511719</ele>
        <time>2014-08-23T14:41:17.000Z</time>
      </trkpt>
      <trkpt lat="43.98333" lon="7.39101">
        <ele>1704.8000488281</ele>
        <time>2014-08-23T14:41:22.000Z</time>
      </trkpt>
      <trkpt lat="43.98333" lon="7.39102">
        <ele>1705</ele>
        <time>2014-08-23T14:41:23.000Z</time>
      </trkpt>
      <trkpt lat="43.98333" lon="7.39106">
        <ele>1705.4000244141</ele>
        <time>2014-08-23T14:41:26.000Z</time>
      </trkpt>
      <trkpt lat="43.98333" lon="7.39112">
        <ele>1705.8000488281</ele>
        <time>2014-08-23T14:41:29.000Z</time>
      </trkpt>
      <trkpt lat="43.98333" lon="7.3912">
        <ele>1706.1999511719</ele>
        <time>2014-08-23T14:41:35.000Z</time>
      </trkpt>
      <trkpt lat="43.98332" lon="7.39122">
        <ele>1706.8000488281</ele>
        <time>2014-08-23T14:41:36.000Z</time>
      </trkpt>
      <trkpt lat="43.98332" lon="7.39126">
        <ele>1707.1999511719</ele>
        <time>2014-08-23T14:41:40.000Z</time>
      </trkpt>
      <trkpt lat="43.98332" lon="7.39127">
        <ele>1707</ele>
        <time>2014-08-23T14:41:42.000Z</time>
      </trkpt>
      <trkpt lat="43.98333" lon="7.3913">
        <ele>1706.8000488281</ele>
        <time>2014-08-23T14:41:44.000Z</time>
      </trkpt>
      <trkpt lat="43.98336" lon="7.39135">
        <ele>1705.8000488281</ele>
        <time>2014-08-23T14:41:47.000Z</time>
      </trkpt>
      <trkpt lat="43.98339" lon="7.39139">
        <ele>1704.8000488281</ele>
        <time>2014-08-23T14:41:51.000Z</time>
      </trkpt>
      <trkpt lat="43.98344" lon="7.39151">
        <ele>1703.4000244141</ele>
        <time>2014-08-23T14:41:56.000Z</time>
      </trkpt>
      <trkpt lat="43.98345" lon="7.39158">
        <ele>1703.8000488281</ele>
        <time>2014-08-23T14:42:01.000Z</time>
      </trkpt>
      <trkpt lat="43.98344" lon="7.39166">
        <ele>1705</ele>
        <time>2014-08-23T14:42:05.000Z</time>
      </trkpt>
      <trkpt lat="43.98347" lon="7.3917">
        <ele>1704.5999755859</ele>
        <time>2014-08-23T14:42:07.000Z</time>
      </trkpt>
      <trkpt lat="43.98345" lon="7.39177">
        <ele>1707</ele>
        <time>2014-08-23T14:42:12.000Z</time>
      </trkpt>
      <trkpt lat="43.98345" lon="7.39182">
        <ele>1707.8000488281</ele>
        <time>2014-08-23T14:42:16.000Z</time>
      </trkpt>
      <trkpt lat="43.98345" lon="7.39182">
        <ele>1707.8000488281</ele>
        <time>2014-08-23T14:42:17.000Z</time>
      </trkpt>
      <trkpt lat="43.98346" lon="7.39184">
        <ele>1708</ele>
        <time>2014-08-23T14:42:18.000Z</time>
      </trkpt>
      <trkpt lat="43.98347" lon="7.3919">
        <ele>1708.5999755859</ele>
        <time>2014-08-23T14:42:23.000Z</time>
      </trkpt>
      <trkpt lat="43.98349" lon="7.39191">
        <ele>1707.5999755859</ele>
        <time>2014-08-23T14:42:24.000Z</time>
      </trkpt>
      <trkpt lat="43.98351" lon="7.39194">
        <ele>1707.5999755859</ele>
        <time>2014-08-23T14:42:27.000Z</time>
      </trkpt>
      <trkpt lat="43.98356" lon="7.39201">
        <ele>1706.4000244141</ele>
        <time>2014-08-23T14:42:32.000Z</time>
      </trkpt>
      <trkpt lat="43.98358" lon="7.39206">
        <ele>1706.1999511719</ele>
        <time>2014-08-23T14:42:36.000Z</time>
      </trkpt>
      <trkpt lat="43.98359" lon="7.39207">
        <ele>1706.1999511719</ele>
        <time>2014-08-23T14:42:37.000Z</time>
      </trkpt>
      <trkpt lat="43.9836" lon="7.39211">
        <ele>1706.8000488281</ele>
        <time>2014-08-23T14:42:41.000Z</time>
      </trkpt>
      <trkpt lat="43.9836" lon="7.39212">
        <ele>1706.8000488281</ele>
        <time>2014-08-23T14:42:42.000Z</time>
      </trkpt>
      <trkpt lat="43.98361" lon="7.39216">
        <ele>1707.4000244141</ele>
        <time>2014-08-23T14:42:46.000Z</time>
      </trkpt>
      <trkpt lat="43.98362" lon="7.39218">
        <ele>1707.8000488281</ele>
        <time>2014-08-23T14:42:48.000Z</time>
      </trkpt>
      <trkpt lat="43.98368" lon="7.39225">
        <ele>1707.4000244141</ele>
        <time>2014-08-23T14:42:54.000Z</time>
      </trkpt>
      <trkpt lat="43.98371" lon="7.39226">
        <ele>1706.5999755859</ele>
        <time>2014-08-23T14:42:59.000Z</time>
      </trkpt>
      <trkpt lat="43.98376" lon="7.39233">
        <ele>1706.4000244141</ele>
        <time>2014-08-23T14:43:04.000Z</time>
      </trkpt>
      <trkpt lat="43.9838" lon="7.39243">
        <ele>1707.1999511719</ele>
        <time>2014-08-23T14:43:10.000Z</time>
      </trkpt>
      <trkpt lat="43.98382" lon="7.39246">
        <ele>1707</ele>
        <time>2014-08-23T14:43:14.000Z</time>
      </trkpt>
      <trkpt lat="43.98385" lon="7.39247">
        <ele>1706.4000244141</ele>
        <time>2014-08-23T14:43:18.000Z</time>
      </trkpt>
      <trkpt lat="43.98389" lon="7.39247">
        <ele>1704.8000488281</ele>
        <time>2014-08-23T14:43:21.000Z</time>
      </trkpt>
      <trkpt lat="43.98391" lon="7.39244">
        <ele>1704</ele>
        <time>2014-08-23T14:43:23.000Z</time>
      </trkpt>
      <trkpt lat="43.98395" lon="7.39241">
        <ele>1702.1999511719</ele>
        <time>2014-08-23T14:43:29.000Z</time>
      </trkpt>
      <trkpt lat="43.98397" lon="7.39244">
        <ele>1701.8000488281</ele>
        <time>2014-08-23T14:43:32.000Z</time>
      </trkpt>
      <trkpt lat="43.98399" lon="7.39246">
        <ele>1701.8000488281</ele>
        <time>2014-08-23T14:43:36.000Z</time>
      </trkpt>
      <trkpt lat="43.984" lon="7.39246">
        <ele>1701.5999755859</ele>
        <time>2014-08-23T14:43:37.000Z</time>
      </trkpt>
      <trkpt lat="43.98403" lon="7.39251">
        <ele>1701.5999755859</ele>
        <time>2014-08-23T14:43:41.000Z</time>
      </trkpt>
      <trkpt lat="43.98409" lon="7.39252">
        <ele>1700.4000244141</ele>
        <time>2014-08-23T14:43:47.000Z</time>
      </trkpt>
      <trkpt lat="43.9841" lon="7.39253">
        <ele>1700.1999511719</ele>
        <time>2014-08-23T14:43:48.000Z</time>
      </trkpt>
      <trkpt lat="43.98415" lon="7.39252">
        <ele>1698</ele>
        <time>2014-08-23T14:43:54.000Z</time>
      </trkpt>
      <trkpt lat="43.98418" lon="7.39251">
        <ele>1697</ele>
        <time>2014-08-23T14:44:01.000Z</time>
      </trkpt>
      <trkpt lat="43.98423" lon="7.39255">
        <ele>1696.5999755859</ele>
        <time>2014-08-23T14:44:08.000Z</time>
      </trkpt>
      <trkpt lat="43.9843" lon="7.39258">
        <ele>1695.4000244141</ele>
        <time>2014-08-23T14:44:16.000Z</time>
      </trkpt>
      <trkpt lat="43.98442" lon="7.39267">
        <ele>1694.1999511719</ele>
        <time>2014-08-23T14:44:22.000Z</time>
      </trkpt>
      <trkpt lat="43.98446" lon="7.39269">
        <ele>1693.8000488281</ele>
        <time>2014-08-23T14:44:24.000Z</time>
      </trkpt>
      <trkpt lat="43.9845" lon="7.39269">
        <ele>1692.8000488281</ele>
        <time>2014-08-23T14:44:27.000Z</time>
      </trkpt>
      <trkpt lat="43.98458" lon="7.39272">
        <ele>1691.4000244141</ele>
        <time>2014-08-23T14:44:33.000Z</time>
      </trkpt>
      <trkpt lat="43.98461" lon="7.39275">
        <ele>1691.1999511719</ele>
        <time>2014-08-23T14:44:36.000Z</time>
      </trkpt>
      <trkpt lat="43.98464" lon="7.39273">
        <ele>1690.1999511719</ele>
        <time>2014-08-23T14:44:39.000Z</time>
      </trkpt>
      <trkpt lat="43.98465" lon="7.39273">
        <ele>1689.8000488281</ele>
        <time>2014-08-23T14:44:40.000Z</time>
      </trkpt>
      <trkpt lat="43.98466" lon="7.39274">
        <ele>1689.8000488281</ele>
        <time>2014-08-23T14:44:41.000Z</time>
      </trkpt>
      <trkpt lat="43.98471" lon="7.39281">
        <ele>1690.4000244141</ele>
        <time>2014-08-23T14:44:45.000Z</time>
      </trkpt>
      <trkpt lat="43.98472" lon="7.39282">
        <ele>1690.8000488281</ele>
        <time>2014-08-23T14:44:46.000Z</time>
      </trkpt>
      <trkpt lat="43.98474" lon="7.39284">
        <ele>1690.8000488281</ele>
        <time>2014-08-23T14:44:50.000Z</time>
      </trkpt>
      <trkpt lat="43.98479" lon="7.39296">
        <ele>1692.8000488281</ele>
        <time>2014-08-23T14:44:57.000Z</time>
      </trkpt>
      <trkpt lat="43.9848" lon="7.39299">
        <ele>1693.5999755859</ele>
        <time>2014-08-23T14:45:00.000Z</time>
      </trkpt>
      <trkpt lat="43.98484" lon="7.39305">
        <ele>1694</ele>
        <time>2014-08-23T14:45:03.000Z</time>
      </trkpt>
      <trkpt lat="43.98487" lon="7.39309">
        <ele>1694.5999755859</ele>
        <time>2014-08-23T14:45:06.000Z</time>
      </trkpt>
      <trkpt lat="43.98488" lon="7.39312">
        <ele>1695.1999511719</ele>
        <time>2014-08-23T14:45:10.000Z</time>
      </trkpt>
      <trkpt lat="43.9849" lon="7.39314">
        <ele>1695.4000244141</ele>
        <time>2014-08-23T14:45:14.000Z</time>
      </trkpt>
      <trkpt lat="43.9849" lon="7.39317">
        <ele>1696</ele>
        <time>2014-08-23T14:45:17.000Z</time>
      </trkpt>
      <trkpt lat="43.98495" lon="7.39315">
        <ele>1694</ele>
        <time>2014-08-23T14:45:57.000Z</time>
      </trkpt>
      <trkpt lat="43.98496" lon="7.39317">
        <ele>1694.5999755859</ele>
        <time>2014-08-23T14:45:58.000Z</time>
      </trkpt>
      <trkpt lat="43.98499" lon="7.39329">
        <ele>1697.1999511719</ele>
        <time>2014-08-23T14:46:05.000Z</time>
      </trkpt>
      <trkpt lat="43.98499" lon="7.3933">
        <ele>1697.4000244141</ele>
        <time>2014-08-23T14:46:06.000Z</time>
      </trkpt>
      <trkpt lat="43.98497" lon="7.39333">
        <ele>1698.5999755859</ele>
        <time>2014-08-23T14:46:09.000Z</time>
      </trkpt>
      <trkpt lat="43.98498" lon="7.39338">
        <ele>1699.4000244141</ele>
        <time>2014-08-23T14:46:15.000Z</time>
      </trkpt>
      <trkpt lat="43.98503" lon="7.39345">
        <ele>1700</ele>
        <time>2014-08-23T14:46:22.000Z</time>
      </trkpt>
      <trkpt lat="43.98502" lon="7.39345">
        <ele>1700.4000244141</ele>
        <time>2014-08-23T14:46:23.000Z</time>
      </trkpt>
      <trkpt lat="43.98499" lon="7.39349">
        <ele>1702</ele>
        <time>2014-08-23T14:46:28.000Z</time>
      </trkpt>
      <trkpt lat="43.98496" lon="7.39351">
        <ele>1703.1999511719</ele>
        <time>2014-08-23T14:46:31.000Z</time>
      </trkpt>
      <trkpt lat="43.98495" lon="7.39354">
        <ele>1704.1999511719</ele>
        <time>2014-08-23T14:46:34.000Z</time>
      </trkpt>
      <trkpt lat="43.98496" lon="7.39358">
        <ele>1705</ele>
        <time>2014-08-23T14:46:37.000Z</time>
      </trkpt>
      <trkpt lat="43.98496" lon="7.3936">
        <ele>1705.5999755859</ele>
        <time>2014-08-23T14:46:40.000Z</time>
      </trkpt>
      <trkpt lat="43.98496" lon="7.39364">
        <ele>1706.1999511719</ele>
        <time>2014-08-23T14:46:45.000Z</time>
      </trkpt>
      <trkpt lat="43.98498" lon="7.39366">
        <ele>1706.5999755859</ele>
        <time>2014-08-23T14:46:51.000Z</time>
      </trkpt>
      <trkpt lat="43.98498" lon="7.39375">
        <ele>1708.4000244141</ele>
        <time>2014-08-23T14:47:03.000Z</time>
      </trkpt>
      <trkpt lat="43.98505" lon="7.39378">
        <ele>1707.1999511719</ele>
        <time>2014-08-23T14:47:12.000Z</time>
      </trkpt>
      <trkpt lat="43.98511" lon="7.39385">
        <ele>1707.4000244141</ele>
        <time>2014-08-23T14:47:17.000Z</time>
      </trkpt>
      <trkpt lat="43.98516" lon="7.39397">
        <ele>1709</ele>
        <time>2014-08-23T14:47:23.000Z</time>
      </trkpt>
      <trkpt lat="43.98512" lon="7.39403">
        <ele>1711.4000244141</ele>
        <time>2014-08-23T14:47:40.000Z</time>
      </trkpt>
      <trkpt lat="43.98515" lon="7.39409">
        <ele>1712.1999511719</ele>
        <time>2014-08-23T14:47:46.000Z</time>
      </trkpt>
      <trkpt lat="43.98515" lon="7.39415">
        <ele>1713.8000488281</ele>
        <time>2014-08-23T14:47:50.000Z</time>
      </trkpt>
      <trkpt lat="43.9852" lon="7.39425">
        <ele>1715.8000488281</ele>
        <time>2014-08-23T14:47:58.000Z</time>
      </trkpt>
      <trkpt lat="43.98522" lon="7.39429">
        <ele>1716.4000244141</ele>
        <time>2014-08-23T14:48:02.000Z</time>
      </trkpt>
      <trkpt lat="43.98524" lon="7.3943">
        <ele>1716.4000244141</ele>
        <time>2014-08-23T14:48:11.000Z</time>
      </trkpt>
      <trkpt lat="43.98539" lon="7.39439">
        <ele>1717.4000244141</ele>
        <time>2014-08-23T14:48:38.000Z</time>
      </trkpt>
      <trkpt lat="43.98543" lon="7.39445">
        <ele>1718.5999755859</ele>
        <time>2014-08-23T14:48:43.000Z</time>
      </trkpt>
      <trkpt lat="43.98544" lon="7.39445">
        <ele>1718.5999755859</ele>
        <time>2014-08-23T14:48:45.000Z</time>
      </trkpt>
      <trkpt lat="43.98548" lon="7.39444">
        <ele>1717.5999755859</ele>
        <time>2014-08-23T14:48:50.000Z</time>
      </trkpt>
      <trkpt lat="43.98551" lon="7.39444">
        <ele>1717.1999511719</ele>
        <time>2014-08-23T14:48:55.000Z</time>
      </trkpt>
      <trkpt lat="43.98563" lon="7.39462">
        <ele>1721.8000488281</ele>
        <time>2014-08-23T14:49:15.000Z</time>
      </trkpt>
      <trkpt lat="43.98565" lon="7.39463">
        <ele>1721.8000488281</ele>
        <time>2014-08-23T14:49:17.000Z</time>
      </trkpt>
      <trkpt lat="43.98566" lon="7.39463">
        <ele>1721.5999755859</ele>
        <time>2014-08-23T14:49:18.000Z</time>
      </trkpt>
      <trkpt lat="43.98571" lon="7.39464">
        <ele>1721.4000244141</ele>
        <time>2014-08-23T14:49:28.000Z</time>
      </trkpt>
      <trkpt lat="43.98572" lon="7.39466">
        <ele>1722</ele>
        <time>2014-08-23T14:49:29.000Z</time>
      </trkpt>
      <trkpt lat="43.98577" lon="7.39476">
        <ele>1724.8000488281</ele>
        <time>2014-08-23T14:49:36.000Z</time>
      </trkpt>
      <trkpt lat="43.98581" lon="7.39477">
        <ele>1724.5999755859</ele>
        <time>2014-08-23T14:49:40.000Z</time>
      </trkpt>
      <trkpt lat="43.98583" lon="7.39479">
        <ele>1725</ele>
        <time>2014-08-23T14:49:43.000Z</time>
      </trkpt>
      <trkpt lat="43.98599" lon="7.39491">
        <ele>1726.8000488281</ele>
        <time>2014-08-23T14:49:58.000Z</time>
      </trkpt>
      <trkpt lat="43.98607" lon="7.39486">
        <ele>1723.8000488281</ele>
        <time>2014-08-23T14:50:05.000Z</time>
      </trkpt>
      <trkpt lat="43.98608" lon="7.39486">
        <ele>1723.5999755859</ele>
        <time>2014-08-23T14:50:06.000Z</time>
      </trkpt>
      <trkpt lat="43.98611" lon="7.39483">
        <ele>1722.5999755859</ele>
        <time>2014-08-23T14:50:10.000Z</time>
      </trkpt>
      <trkpt lat="43.98616" lon="7.39486">
        <ele>1723.4000244141</ele>
        <time>2014-08-23T14:50:15.000Z</time>
      </trkpt>
      <trkpt lat="43.98616" lon="7.39485">
        <ele>1723.1999511719</ele>
        <time>2014-08-23T14:50:16.000Z</time>
      </trkpt>
      <trkpt lat="43.9862" lon="7.39479">
        <ele>1720.8000488281</ele>
        <time>2014-08-23T14:50:24.000Z</time>
      </trkpt>
      <trkpt lat="43.98621" lon="7.39481">
        <ele>1721.8000488281</ele>
        <time>2014-08-23T14:50:31.000Z</time>
      </trkpt>
      <trkpt lat="43.98617" lon="7.3948">
        <ele>1721.4000244141</ele>
        <time>2014-08-23T14:50:37.000Z</time>
      </trkpt>
      <trkpt lat="43.98616" lon="7.39483">
        <ele>1722.4000244141</ele>
        <time>2014-08-23T14:50:42.000Z</time>
      </trkpt>
      <trkpt lat="43.98616" lon="7.39486">
        <ele>1723.4000244141</ele>
        <time>2014-08-23T14:50:43.000Z</time>
      </trkpt>
      <trkpt lat="43.98612" lon="7.39494">
        <ele>1726.5999755859</ele>
        <time>2014-08-23T14:50:51.000Z</time>
      </trkpt>
      <trkpt lat="43.98611" lon="7.39496">
        <ele>1727.1999511719</ele>
        <time>2014-08-23T14:50:52.000Z</time>
      </trkpt>
      <trkpt lat="43.98606" lon="7.39502">
        <ele>1729.8000488281</ele>
        <time>2014-08-23T14:50:59.000Z</time>
      </trkpt>
      <trkpt lat="43.98603" lon="7.39508">
        <ele>1732.5999755859</ele>
        <time>2014-08-23T14:51:06.000Z</time>
      </trkpt>
      <trkpt lat="43.98602" lon="7.39508">
        <ele>1732.5999755859</ele>
        <time>2014-08-23T14:51:07.000Z</time>
      </trkpt>
      <trkpt lat="43.98594" lon="7.39507">
        <ele>1733.8000488281</ele>
        <time>2014-08-23T14:51:13.000Z</time>
      </trkpt>
      <trkpt lat="43.98592" lon="7.3951">
        <ele>1735.1999511719</ele>
        <time>2014-08-23T14:51:16.000Z</time>
      </trkpt>
      <trkpt lat="43.98589" lon="7.39508">
        <ele>1735</ele>
        <time>2014-08-23T14:51:20.000Z</time>
      </trkpt>
      <trkpt lat="43.98586" lon="7.39508">
        <ele>1735.1999511719</ele>
        <time>2014-08-23T14:51:22.000Z</time>
      </trkpt>
      <trkpt lat="43.98585" lon="7.3951">
        <ele>1736</ele>
        <time>2014-08-23T14:51:24.000Z</time>
      </trkpt>
      <trkpt lat="43.98581" lon="7.3951">
        <ele>1736.8000488281</ele>
        <time>2014-08-23T14:51:28.000Z</time>
      </trkpt>
      <trkpt lat="43.98579" lon="7.39508">
        <ele>1736</ele>
        <time>2014-08-23T14:51:30.000Z</time>
      </trkpt>
      <trkpt lat="43.98579" lon="7.39507">
        <ele>1736</ele>
        <time>2014-08-23T14:51:33.000Z</time>
      </trkpt>
      <trkpt lat="43.98573" lon="7.39506">
        <ele>1736.1999511719</ele>
        <time>2014-08-23T14:51:37.000Z</time>
      </trkpt>
      <trkpt lat="43.98572" lon="7.39506">
        <ele>1736.4000244141</ele>
        <time>2014-08-23T14:51:39.000Z</time>
      </trkpt>
      <trkpt lat="43.98569" lon="7.39507">
        <ele>1737.1999511719</ele>
        <time>2014-08-23T14:51:45.000Z</time>
      </trkpt>
      <trkpt lat="43.98566" lon="7.39508">
        <ele>1738</ele>
        <time>2014-08-23T14:51:48.000Z</time>
      </trkpt>
      <trkpt lat="43.98562" lon="7.39507">
        <ele>1738</ele>
        <time>2014-08-23T14:51:50.000Z</time>
      </trkpt>
      <trkpt lat="43.98559" lon="7.39507">
        <ele>1738.4000244141</ele>
        <time>2014-08-23T14:51:57.000Z</time>
      </trkpt>
      <trkpt lat="43.98562" lon="7.39507">
        <ele>1738</ele>
        <time>2014-08-23T14:52:04.000Z</time>
      </trkpt>
      <trkpt lat="43.98566" lon="7.39507">
        <ele>1737.8000488281</ele>
        <time>2014-08-23T14:52:11.000Z</time>
      </trkpt>
      <trkpt lat="43.98573" lon="7.39511">
        <ele>1738.4000244141</ele>
        <time>2014-08-23T14:52:18.000Z</time>
      </trkpt>
      <trkpt lat="43.98578" lon="7.39508">
        <ele>1736.1999511719</ele>
        <time>2014-08-23T14:52:24.000Z</time>
      </trkpt>
      <trkpt lat="43.9858" lon="7.39508">
        <ele>1736</ele>
        <time>2014-08-23T14:52:25.000Z</time>
      </trkpt>
      <trkpt lat="43.98585" lon="7.39505">
        <ele>1734</ele>
        <time>2014-08-23T14:52:30.000Z</time>
      </trkpt>
      <trkpt lat="43.98586" lon="7.39504">
        <ele>1733.8000488281</ele>
        <time>2014-08-23T14:52:31.000Z</time>
      </trkpt>
      <trkpt lat="43.98588" lon="7.39504">
        <ele>1733.1999511719</ele>
        <time>2014-08-23T14:52:36.000Z</time>
      </trkpt>
      <trkpt lat="43.98591" lon="7.39509">
        <ele>1735</ele>
        <time>2014-08-23T14:52:40.000Z</time>
      </trkpt>
      <trkpt lat="43.98592" lon="7.3951">
        <ele>1735.1999511719</ele>
        <time>2014-08-23T14:52:42.000Z</time>
      </trkpt>
      <trkpt lat="43.986" lon="7.39514">
        <ele>1735.5999755859</ele>
        <time>2014-08-23T14:52:47.000Z</time>
      </trkpt>
      <trkpt lat="43.98602" lon="7.39514">
        <ele>1735.4000244141</ele>
        <time>2014-08-23T14:52:49.000Z</time>
      </trkpt>
      <trkpt lat="43.98603" lon="7.39514">
        <ele>1735.1999511719</ele>
        <time>2014-08-23T14:52:50.000Z</time>
      </trkpt>
      <trkpt lat="43.98607" lon="7.3952">
        <ele>1737.1999511719</ele>
        <time>2014-08-23T14:52:54.000Z</time>
      </trkpt>
      <trkpt lat="43.98612" lon="7.39523">
        <ele>1737.4000244141</ele>
        <time>2014-08-23T14:53:00.000Z</time>
      </trkpt>
      <trkpt lat="43.98615" lon="7.39517">
        <ele>1734.8000488281</ele>
        <time>2014-08-23T14:53:05.000Z</time>
      </trkpt>
      <trkpt lat="43.9862" lon="7.39514">
        <ele>1732.8000488281</ele>
        <time>2014-08-23T14:53:11.000Z</time>
      </trkpt>
      <trkpt lat="43.98622" lon="7.3951">
        <ele>1731</ele>
        <time>2014-08-23T14:53:15.000Z</time>
      </trkpt>
      <trkpt lat="43.98623" lon="7.3951">
        <ele>1731</ele>
        <time>2014-08-23T14:53:16.000Z</time>
      </trkpt>
      <trkpt lat="43.98624" lon="7.39509">
        <ele>1730.8000488281</ele>
        <time>2014-08-23T14:53:17.000Z</time>
      </trkpt>
      <trkpt lat="43.98627" lon="7.39508">
        <ele>1730.5999755859</ele>
        <time>2014-08-23T14:53:20.000Z</time>
      </trkpt>
      <trkpt lat="43.98631" lon="7.39509">
        <ele>1731</ele>
        <time>2014-08-23T14:53:24.000Z</time>
      </trkpt>
      <trkpt lat="43.98632" lon="7.3951">
        <ele>1731</ele>
        <time>2014-08-23T14:53:25.000Z</time>
      </trkpt>
      <trkpt lat="43.98634" lon="7.39508">
        <ele>1730.8000488281</ele>
        <time>2014-08-23T14:53:28.000Z</time>
      </trkpt>
      <trkpt lat="43.98635" lon="7.39507">
        <ele>1730.4000244141</ele>
        <time>2014-08-23T14:53:30.000Z</time>
      </trkpt>
      <trkpt lat="43.98638" lon="7.3951">
        <ele>1731</ele>
        <time>2014-08-23T14:53:35.000Z</time>
      </trkpt>
      <trkpt lat="43.98639" lon="7.39507">
        <ele>1730.4000244141</ele>
        <time>2014-08-23T14:53:37.000Z</time>
      </trkpt>
      <trkpt lat="43.9864" lon="7.39507">
        <ele>1730.4000244141</ele>
        <time>2014-08-23T14:53:38.000Z</time>
      </trkpt>
      <trkpt lat="43.98641" lon="7.39508">
        <ele>1730.8000488281</ele>
        <time>2014-08-23T14:53:39.000Z</time>
      </trkpt>
      <trkpt lat="43.98646" lon="7.39507">
        <ele>1730.4000244141</ele>
        <time>2014-08-23T14:53:43.000Z</time>
      </trkpt>
      <trkpt lat="43.98649" lon="7.39505">
        <ele>1730</ele>
        <time>2014-08-23T14:53:45.000Z</time>
      </trkpt>
      <trkpt lat="43.98654" lon="7.395">
        <ele>1728.8000488281</ele>
        <time>2014-08-23T14:53:50.000Z</time>
      </trkpt>
      <trkpt lat="43.98662" lon="7.39497">
        <ele>1728</ele>
        <time>2014-08-23T14:53:59.000Z</time>
      </trkpt>
      <trkpt lat="43.98668" lon="7.39498">
        <ele>1728.5999755859</ele>
        <time>2014-08-23T14:54:13.000Z</time>
      </trkpt>
      <trkpt lat="43.98667" lon="7.39494">
        <ele>1727.1999511719</ele>
        <time>2014-08-23T14:54:19.000Z</time>
      </trkpt>
      <trkpt lat="43.98672" lon="7.39488">
        <ele>1725</ele>
        <time>2014-08-23T14:54:47.000Z</time>
      </trkpt>
      <trkpt lat="43.98677" lon="7.39482">
        <ele>1723</ele>
        <time>2014-08-23T14:54:54.000Z</time>
      </trkpt>
      <trkpt lat="43.98684" lon="7.39477">
        <ele>1721.1999511719</ele>
        <time>2014-08-23T14:55:02.000Z</time>
      </trkpt>
      <trkpt lat="43.98691" lon="7.39472">
        <ele>1719.5999755859</ele>
        <time>2014-08-23T14:55:09.000Z</time>
      </trkpt>
      <trkpt lat="43.98692" lon="7.3947">
        <ele>1718.8000488281</ele>
        <time>2014-08-23T14:55:11.000Z</time>
      </trkpt>
      <trkpt lat="43.98696" lon="7.39466">
        <ele>1717</ele>
        <time>2014-08-23T14:55:15.000Z</time>
      </trkpt>
      <trkpt lat="43.98696" lon="7.39465">
        <ele>1716.5999755859</ele>
        <time>2014-08-23T14:55:22.000Z</time>
      </trkpt>
      <trkpt lat="43.98701" lon="7.39466">
        <ele>1716.1999511719</ele>
        <time>2014-08-23T14:55:34.000Z</time>
      </trkpt>
      <trkpt lat="43.98709" lon="7.39468">
        <ele>1716.1999511719</ele>
        <time>2014-08-23T14:55:41.000Z</time>
      </trkpt>
      <trkpt lat="43.98715" lon="7.39478">
        <ele>1719.1999511719</ele>
        <time>2014-08-23T14:55:49.000Z</time>
      </trkpt>
      <trkpt lat="43.98713" lon="7.39484">
        <ele>1721.4000244141</ele>
        <time>2014-08-23T14:55:55.000Z</time>
      </trkpt>
      <trkpt lat="43.98713" lon="7.39491">
        <ele>1724.1999511719</ele>
        <time>2014-08-23T14:56:02.000Z</time>
      </trkpt>
      <trkpt lat="43.9871" lon="7.39503">
        <ele>1726.8000488281</ele>
        <time>2014-08-23T14:56:09.000Z</time>
      </trkpt>
      <trkpt lat="43.98709" lon="7.39518">
        <ele>1727</ele>
        <time>2014-08-23T14:56:18.000Z</time>
      </trkpt>
      <trkpt lat="43.98708" lon="7.39519">
        <ele>1727.4000244141</ele>
        <time>2014-08-23T14:56:19.000Z</time>
      </trkpt>
      <trkpt lat="43.98706" lon="7.39525">
        <ele>1729.5999755859</ele>
        <time>2014-08-23T14:56:24.000Z</time>
      </trkpt>
      <trkpt lat="43.98704" lon="7.39532">
        <ele>1732.1999511719</ele>
        <time>2014-08-23T14:56:28.000Z</time>
      </trkpt>
      <trkpt lat="43.98703" lon="7.39535">
        <ele>1733.5999755859</ele>
        <time>2014-08-23T14:56:30.000Z</time>
      </trkpt>
      <trkpt lat="43.98703" lon="7.39538">
        <ele>1734</ele>
        <time>2014-08-23T14:56:32.000Z</time>
      </trkpt>
      <trkpt lat="43.98702" lon="7.39545">
        <ele>1736</ele>
        <time>2014-08-23T14:56:36.000Z</time>
      </trkpt>
      <trkpt lat="43.98704" lon="7.39548">
        <ele>1736</ele>
        <time>2014-08-23T14:56:38.000Z</time>
      </trkpt>
      <trkpt lat="43.98703" lon="7.39553">
        <ele>1737.4000244141</ele>
        <time>2014-08-23T14:56:41.000Z</time>
      </trkpt>
      <trkpt lat="43.98704" lon="7.39564">
        <ele>1739.8000488281</ele>
        <time>2014-08-23T14:56:47.000Z</time>
      </trkpt>
      <trkpt lat="43.98704" lon="7.39575">
        <ele>1742.4000244141</ele>
        <time>2014-08-23T14:56:55.000Z</time>
      </trkpt>
      <trkpt lat="43.98705" lon="7.39578">
        <ele>1742.8000488281</ele>
        <time>2014-08-23T14:57:00.000Z</time>
      </trkpt>
      <trkpt lat="43.98707" lon="7.39587">
        <ele>1743</ele>
        <time>2014-08-23T14:57:05.000Z</time>
      </trkpt>
      <trkpt lat="43.98708" lon="7.39591">
        <ele>1742.5999755859</ele>
        <time>2014-08-23T14:57:07.000Z</time>
      </trkpt>
      <trkpt lat="43.98706" lon="7.39604">
        <ele>1744.8000488281</ele>
        <time>2014-08-23T14:57:14.000Z</time>
      </trkpt>
      <trkpt lat="43.98705" lon="7.39606">
        <ele>1745.1999511719</ele>
        <time>2014-08-23T14:57:15.000Z</time>
      </trkpt>
      <trkpt lat="43.98705" lon="7.39613">
        <ele>1746.5999755859</ele>
        <time>2014-08-23T14:57:19.000Z</time>
      </trkpt>
      <trkpt lat="43.98704" lon="7.39626">
        <ele>1749.1999511719</ele>
        <time>2014-08-23T14:57:25.000Z</time>
      </trkpt>
      <trkpt lat="43.98704" lon="7.3963">
        <ele>1749.8000488281</ele>
        <time>2014-08-23T14:57:27.000Z</time>
      </trkpt>
      <trkpt lat="43.98707" lon="7.39643">
        <ele>1749.8000488281</ele>
        <time>2014-08-23T14:57:34.000Z</time>
      </trkpt>
      <trkpt lat="43.98708" lon="7.39654">
        <ele>1751.1999511719</ele>
        <time>2014-08-23T14:57:41.000Z</time>
      </trkpt>
      <trkpt lat="43.98709" lon="7.39664">
        <ele>1752.4000244141</ele>
        <time>2014-08-23T14:57:48.000Z</time>
      </trkpt>
      <trkpt lat="43.98709" lon="7.39668">
        <ele>1752.5999755859</ele>
        <time>2014-08-23T14:57:50.000Z</time>
      </trkpt>
      <trkpt lat="43.98713" lon="7.39676">
        <ele>1751</ele>
        <time>2014-08-23T14:57:54.000Z</time>
      </trkpt>
      <trkpt lat="43.98711" lon="7.39678">
        <ele>1752</ele>
        <time>2014-08-23T14:57:55.000Z</time>
      </trkpt>
      <trkpt lat="43.98712" lon="7.39691">
        <ele>1751.8000488281</ele>
        <time>2014-08-23T14:58:04.000Z</time>
      </trkpt>
      <trkpt lat="43.98714" lon="7.39701">
        <ele>1751.4000244141</ele>
        <time>2014-08-23T14:58:11.000Z</time>
      </trkpt>
      <trkpt lat="43.98715" lon="7.39711">
        <ele>1751.8000488281</ele>
        <time>2014-08-23T14:58:17.000Z</time>
      </trkpt>
      <trkpt lat="43.98721" lon="7.39724">
        <ele>1749</ele>
        <time>2014-08-23T14:58:26.000Z</time>
      </trkpt>
      <trkpt lat="43.98721" lon="7.39727">
        <ele>1748.8000488281</ele>
        <time>2014-08-23T14:58:27.000Z</time>
      </trkpt>
      <trkpt lat="43.98718" lon="7.39734">
        <ele>1750.8000488281</ele>
        <time>2014-08-23T14:58:31.000Z</time>
      </trkpt>
      <trkpt lat="43.98717" lon="7.39737">
        <ele>1751.8000488281</ele>
        <time>2014-08-23T14:58:33.000Z</time>
      </trkpt>
      <trkpt lat="43.98714" lon="7.39742">
        <ele>1753.4000244141</ele>
        <time>2014-08-23T14:58:37.000Z</time>
      </trkpt>
      <trkpt lat="43.98713" lon="7.39744">
        <ele>1754</ele>
        <time>2014-08-23T14:58:39.000Z</time>
      </trkpt>
      <trkpt lat="43.98716" lon="7.39751">
        <ele>1753.4000244141</ele>
        <time>2014-08-23T14:58:45.000Z</time>
      </trkpt>
      <trkpt lat="43.98718" lon="7.39757">
        <ele>1752.5999755859</ele>
        <time>2014-08-23T14:58:49.000Z</time>
      </trkpt>
      <trkpt lat="43.98721" lon="7.3976">
        <ele>1751.4000244141</ele>
        <time>2014-08-23T14:58:51.000Z</time>
      </trkpt>
      <trkpt lat="43.98724" lon="7.39768">
        <ele>1750.8000488281</ele>
        <time>2014-08-23T14:58:57.000Z</time>
      </trkpt>
      <trkpt lat="43.98726" lon="7.3977">
        <ele>1750.1999511719</ele>
        <time>2014-08-23T14:58:59.000Z</time>
      </trkpt>
      <trkpt lat="43.98727" lon="7.39776">
        <ele>1750.1999511719</ele>
        <time>2014-08-23T14:59:03.000Z</time>
      </trkpt>
      <trkpt lat="43.98727" lon="7.39782">
        <ele>1750.8000488281</ele>
        <time>2014-08-23T14:59:07.000Z</time>
      </trkpt>
      <trkpt lat="43.98727" lon="7.39783">
        <ele>1750.8000488281</ele>
        <time>2014-08-23T14:59:08.000Z</time>
      </trkpt>
      <trkpt lat="43.9873" lon="7.39795">
        <ele>1748.1999511719</ele>
        <time>2014-08-23T14:59:14.000Z</time>
      </trkpt>
      <trkpt lat="43.98731" lon="7.39804">
        <ele>1746.1999511719</ele>
        <time>2014-08-23T14:59:19.000Z</time>
      </trkpt>
      <trkpt lat="43.98731" lon="7.39805">
        <ele>1745.8000488281</ele>
        <time>2014-08-23T14:59:20.000Z</time>
      </trkpt>
      <trkpt lat="43.98734" lon="7.39815">
        <ele>1743.1999511719</ele>
        <time>2014-08-23T14:59:27.000Z</time>
      </trkpt>
      <trkpt lat="43.98738" lon="7.39824">
        <ele>1740.5999755859</ele>
        <time>2014-08-23T14:59:32.000Z</time>
      </trkpt>
      <trkpt lat="43.98738" lon="7.39827">
        <ele>1739.8000488281</ele>
        <time>2014-08-23T14:59:34.000Z</time>
      </trkpt>
      <trkpt lat="43.98738" lon="7.39833">
        <ele>1739</ele>
        <time>2014-08-23T14:59:38.000Z</time>
      </trkpt>
      <trkpt lat="43.98738" lon="7.39835">
        <ele>1739</ele>
        <time>2014-08-23T14:59:40.000Z</time>
      </trkpt>
      <trkpt lat="43.98739" lon="7.39843">
        <ele>1739.4000244141</ele>
        <time>2014-08-23T14:59:45.000Z</time>
      </trkpt>
      <trkpt lat="43.98738" lon="7.39846">
        <ele>1739.8000488281</ele>
        <time>2014-08-23T14:59:47.000Z</time>
      </trkpt>
      <trkpt lat="43.98741" lon="7.39853">
        <ele>1739.5999755859</ele>
        <time>2014-08-23T14:59:53.000Z</time>
      </trkpt>
      <trkpt lat="43.98742" lon="7.39855">
        <ele>1739.5999755859</ele>
        <time>2014-08-23T14:59:55.000Z</time>
      </trkpt>
      <trkpt lat="43.98744" lon="7.39863">
        <ele>1739.5999755859</ele>
        <time>2014-08-23T15:00:00.000Z</time>
      </trkpt>
      <trkpt lat="43.98744" lon="7.39864">
        <ele>1739.5999755859</ele>
        <time>2014-08-23T15:00:01.000Z</time>
      </trkpt>
      <trkpt lat="43.98744" lon="7.39867">
        <ele>1739.8000488281</ele>
        <time>2014-08-23T15:00:04.000Z</time>
      </trkpt>
      <trkpt lat="43.98747" lon="7.39869">
        <ele>1739.1999511719</ele>
        <time>2014-08-23T15:00:07.000Z</time>
      </trkpt>
      <trkpt lat="43.98749" lon="7.39872">
        <ele>1739</ele>
        <time>2014-08-23T15:00:10.000Z</time>
      </trkpt>
      <trkpt lat="43.98748" lon="7.39874">
        <ele>1739.1999511719</ele>
        <time>2014-08-23T15:00:14.000Z</time>
      </trkpt>
      <trkpt lat="43.98752" lon="7.3988">
        <ele>1738.8000488281</ele>
        <time>2014-08-23T15:00:20.000Z</time>
      </trkpt>
      <trkpt lat="43.98754" lon="7.39881">
        <ele>1738.4000244141</ele>
        <time>2014-08-23T15:00:22.000Z</time>
      </trkpt>
      <trkpt lat="43.98755" lon="7.39881">
        <ele>1738.4000244141</ele>
        <time>2014-08-23T15:00:24.000Z</time>
      </trkpt>
      <trkpt lat="43.98759" lon="7.3989">
        <ele>1737.8000488281</ele>
        <time>2014-08-23T15:00:31.000Z</time>
      </trkpt>
      <trkpt lat="43.9876" lon="7.39892">
        <ele>1737.8000488281</ele>
        <time>2014-08-23T15:00:33.000Z</time>
      </trkpt>
      <trkpt lat="43.98763" lon="7.39897">
        <ele>1737.4000244141</ele>
        <time>2014-08-23T15:00:36.000Z</time>
      </trkpt>
      <trkpt lat="43.98765" lon="7.39898">
        <ele>1737.1999511719</ele>
        <time>2014-08-23T15:00:38.000Z</time>
      </trkpt>
      <trkpt lat="43.98771" lon="7.39905">
        <ele>1736.4000244141</ele>
        <time>2014-08-23T15:00:46.000Z</time>
      </trkpt>
      <trkpt lat="43.98777" lon="7.39914">
        <ele>1735.8000488281</ele>
        <time>2014-08-23T15:00:53.000Z</time>
      </trkpt>
      <trkpt lat="43.98782" lon="7.39922">
        <ele>1736.1999511719</ele>
        <time>2014-08-23T15:01:00.000Z</time>
      </trkpt>
      <trkpt lat="43.98785" lon="7.39929">
        <ele>1736.1999511719</ele>
        <time>2014-08-23T15:01:06.000Z</time>
      </trkpt>
      <trkpt lat="43.98787" lon="7.3993">
        <ele>1736.4000244141</ele>
        <time>2014-08-23T15:01:09.000Z</time>
      </trkpt>
      <trkpt lat="43.9879" lon="7.39934">
        <ele>1736.4000244141</ele>
        <time>2014-08-23T15:01:13.000Z</time>
      </trkpt>
      <trkpt lat="43.98796" lon="7.3994">
        <ele>1736.5999755859</ele>
        <time>2014-08-23T15:01:21.000Z</time>
      </trkpt>
      <trkpt lat="43.988" lon="7.39946">
        <ele>1736.5999755859</ele>
        <time>2014-08-23T15:01:27.000Z</time>
      </trkpt>
      <trkpt lat="43.98803" lon="7.3995">
        <ele>1736.8000488281</ele>
        <time>2014-08-23T15:01:32.000Z</time>
      </trkpt>
      <trkpt lat="43.98805" lon="7.39954">
        <ele>1736.8000488281</ele>
        <time>2014-08-23T15:01:35.000Z</time>
      </trkpt>
      <trkpt lat="43.98806" lon="7.39959">
        <ele>1736.5999755859</ele>
        <time>2014-08-23T15:01:41.000Z</time>
      </trkpt>
      <trkpt lat="43.9881" lon="7.39964">
        <ele>1736.8000488281</ele>
        <time>2014-08-23T15:01:46.000Z</time>
      </trkpt>
      <trkpt lat="43.98811" lon="7.39967">
        <ele>1736.5999755859</ele>
        <time>2014-08-23T15:01:48.000Z</time>
      </trkpt>
      <trkpt lat="43.98812" lon="7.39971">
        <ele>1736.5999755859</ele>
        <time>2014-08-23T15:01:51.000Z</time>
      </trkpt>
      <trkpt lat="43.98813" lon="7.39976">
        <ele>1736.5999755859</ele>
        <time>2014-08-23T15:01:55.000Z</time>
      </trkpt>
      <trkpt lat="43.98814" lon="7.39985">
        <ele>1736.1999511719</ele>
        <time>2014-08-23T15:02:01.000Z</time>
      </trkpt>
      <trkpt lat="43.98813" lon="7.39987">
        <ele>1736.1999511719</ele>
        <time>2014-08-23T15:02:02.000Z</time>
      </trkpt>
      <trkpt lat="43.9881" lon="7.39992">
        <ele>1735.8000488281</ele>
        <time>2014-08-23T15:02:06.000Z</time>
      </trkpt>
      <trkpt lat="43.9881" lon="7.39994">
        <ele>1735.5999755859</ele>
        <time>2014-08-23T15:02:07.000Z</time>
      </trkpt>
      <trkpt lat="43.98806" lon="7.40006">
        <ele>1735.1999511719</ele>
        <time>2014-08-23T15:02:16.000Z</time>
      </trkpt>
      <trkpt lat="43.98802" lon="7.40013">
        <ele>1735</ele>
        <time>2014-08-23T15:02:22.000Z</time>
      </trkpt>
      <trkpt lat="43.98802" lon="7.40013">
        <ele>1735</ele>
        <time>2014-08-23T15:02:23.000Z</time>
      </trkpt>
      <trkpt lat="43.98795" lon="7.4002">
        <ele>1734.1999511719</ele>
        <time>2014-08-23T15:02:33.000Z</time>
      </trkpt>
      <trkpt lat="43.98796" lon="7.40023">
        <ele>1733.8000488281</ele>
        <time>2014-08-23T15:02:41.000Z</time>
      </trkpt>
      <trkpt lat="43.98797" lon="7.40021">
        <ele>1734.4000244141</ele>
        <time>2014-08-23T15:02:57.000Z</time>
      </trkpt>
      <trkpt lat="43.98802" lon="7.4002">
        <ele>1735</ele>
        <time>2014-08-23T15:03:20.000Z</time>
      </trkpt>
      <trkpt lat="43.98797" lon="7.4002">
        <ele>1734.5999755859</ele>
        <time>2014-08-23T15:04:02.000Z</time>
      </trkpt>
      <trkpt lat="43.98798" lon="7.40022">
        <ele>1734.5999755859</ele>
        <time>2014-08-23T15:04:06.000Z</time>
      </trkpt>
      <trkpt lat="43.98802" lon="7.40025">
        <ele>1735</ele>
        <time>2014-08-23T15:04:12.000Z</time>
      </trkpt>
      <trkpt lat="43.98809" lon="7.40032">
        <ele>1735.4000244141</ele>
        <time>2014-08-23T15:04:20.000Z</time>
      </trkpt>
      <trkpt lat="43.9881" lon="7.40033">
        <ele>1735.4000244141</ele>
        <time>2014-08-23T15:04:21.000Z</time>
      </trkpt>
      <trkpt lat="43.98816" lon="7.40039">
        <ele>1736</ele>
        <time>2014-08-23T15:04:29.000Z</time>
      </trkpt>
      <trkpt lat="43.98824" lon="7.40046">
        <ele>1736.5999755859</ele>
        <time>2014-08-23T15:04:39.000Z</time>
      </trkpt>
      <trkpt lat="43.98831" lon="7.40053">
        <ele>1737</ele>
        <time>2014-08-23T15:04:49.000Z</time>
      </trkpt>
      <trkpt lat="43.98842" lon="7.40065">
        <ele>1737.8000488281</ele>
        <time>2014-08-23T15:05:02.000Z</time>
      </trkpt>
      <trkpt lat="43.9885" lon="7.40076">
        <ele>1737.8000488281</ele>
        <time>2014-08-23T15:05:13.000Z</time>
      </trkpt>
      <trkpt lat="43.98855" lon="7.40082">
        <ele>1738</ele>
        <time>2014-08-23T15:05:20.000Z</time>
      </trkpt>
      <trkpt lat="43.9886" lon="7.4009">
        <ele>1739.1999511719</ele>
        <time>2014-08-23T15:05:28.000Z</time>
      </trkpt>
      <trkpt lat="43.98865" lon="7.401">
        <ele>1740</ele>
        <time>2014-08-23T15:05:37.000Z</time>
      </trkpt>
      <trkpt lat="43.98872" lon="7.40112">
        <ele>1741</ele>
        <time>2014-08-23T15:05:48.000Z</time>
      </trkpt>
      <trkpt lat="43.98877" lon="7.40126">
        <ele>1741.5999755859</ele>
        <time>2014-08-23T15:05:59.000Z</time>
      </trkpt>
      <trkpt lat="43.98878" lon="7.40129">
        <ele>1741.8000488281</ele>
        <time>2014-08-23T15:06:06.000Z</time>
      </trkpt>
      <trkpt lat="43.9888" lon="7.40136">
        <ele>1742</ele>
        <time>2014-08-23T15:06:13.000Z</time>
      </trkpt>
      <trkpt lat="43.98879" lon="7.40143">
        <ele>1741.8000488281</ele>
        <time>2014-08-23T15:06:20.000Z</time>
      </trkpt>
      <trkpt lat="43.9888" lon="7.40143">
        <ele>1742</ele>
        <time>2014-08-23T15:06:45.000Z</time>
      </trkpt>
      <trkpt lat="43.98874" lon="7.40146">
        <ele>1741</ele>
        <time>2014-08-23T15:07:26.000Z</time>
      </trkpt>
      <trkpt lat="43.98869" lon="7.40147">
        <ele>1740</ele>
        <time>2014-08-23T15:07:33.000Z</time>
      </trkpt>
      <trkpt lat="43.98868" lon="7.40148">
        <ele>1740</ele>
        <time>2014-08-23T15:07:34.000Z</time>
      </trkpt>
    </trkseg>
  </trk>
</gpx>